[[{"header":{"parameterUnit":"m.s-1","parameterCategory":1,"la1":30.6,"la2":28.766,"lo1":-90.7593,"lo2":-88.6598,"dy":0.0162,"dx":0.0183,"nx":116,"ny":114,"refTime":"2023-06-04T12:00:00:Z","depth":0,"parameterNumber":2,"parameterNumberName":"U-component_of_WINDS"},"data":[0.0,0.0,0.0,0.0,0.0,0.0,0.0,0.0,0.0,0.0,0.0,0.0,0.0,0.0,0.0,0.0,0.0,0.0,0.0,0.0,0.0,0.0,0.0,0.0,0.0,0.0,0.0,0.0,0.0,0.0,0.0,0.0,0.0,0.0,0.0,0.0,0.0,0.0,0.0,0.0,0.0,0.0,0.0,0.0,0.0,0.0,0.0,0.0,0.0,0.0,0.0,0.0,0.0,0.0,0.0,0.0,0.0,0.0,0.0,0.0,0.0,0.0,0.0,0.0,0.0,0.0,0.0,0.0,0.0,0.0,0.0,0.0,0.0,0.0,0.0,0.0,0.0,0.0,0.0,0.0,0.0,0.0,0.0,0.0,0.0,0.0,0.0,0.0,0.0,0.0,0.0,0.0,0.0,0.0,0.0,0.0,0.0,0.0,0.0,0.0,0.0,0.0,0.0,0.0,0.0,0.0,0.0,0.0,0.0,0.0,0.0,0.0,0.0,0.0,0.0,0.0,0.0,0.0,0.0,0.0,0.0,0.0,0.0,0.0,0.0,0.0,0.0,0.0,0.0,0.0,0.0,0.0,0.0,0.0,0.0,0.0,0.0,0.0,0.0,0.0,0.0,0.0,0.0,0.0,0.0,0.0,0.0,0.0,0.0,0.0,0.0,0.0,0.0,0.0,0.0,0.0,0.0,0.0,0.0,0.0,0.0,0.0,0.0,0.0,0.0,0.0,0.0,0.0,0.0,0.0,0.0,0.0,0.0,0.0,0.0,0.0,0.0,0.0,0.0,0.0,0.0,0.0,0.0,0.0,0.0,0.0,0.0,0.0,0.0,0.0,0.0,0.0,0.0,0.0,0.0,0.0,0.0,0.0,0.0,0.0,0.0,0.0,0.0,0.0,0.0,0.0,0.0,0.0,0.0,0.0,0.0,0.0,0.0,0.0,0.0,0.0,0.0,0.0,0.0,0.0,0.0,0.0,0.0,0.0,0.0,0.0,0.0,0.0,0.0,0.0,0.0,0.0,0.0,0.0,0.0,0.0,0.0,0.0,0.0,0.0,0.0,0.0,0.0,0.0,0.0,0.0,0.0,0.0,0.0,0.0,0.0,0.0,0.0,0.0,0.0,0.0,0.0,0.0,0.0,0.0,0.0,0.0,0.0,0.0,0.0,0.0,0.0,0.0,0.0,0.0,0.0,0.0,0.0,0.0,0.0,0.0,0.0,0.0,0.0,0.0,0.0,0.0,0.0,0.0,0.0,0.0,0.0,0.0,0.0,0.0,0.0,0.0,0.0,0.0,0.0,0.0,0.0,0.0,0.0,0.0,0.0,0.0,0.0,0.0,0.0,0.0,0.0,0.0,0.0,0.0,0.0,0.0,0.0,0.0,0.0,0.0,0.0,0.0,0.0,0.0,0.0,0.0,0.0,0.0,0.0,0.0,0.0,0.0,0.0,0.0,0.0,0.0,0.0,0.0,0.0,0.0,0.0,0.0,0.0,0.0,0.0,0.0,0.0,0.0,0.0,0.0,0.0,0.0,0.0,0.0,0.0,0.0,0.0,0.0,0.0,0.0,0.0,0.0,0.0,0.0,0.0,0.0,0.0,0.0,0.0,0.0,0.0,0.0,0.0,0.0,0.0,0.0,0.0,0.0,0.0,0.0,0.0,0.0,0.0,0.0,0.0,0.0,0.0,0.0,0.0,0.0,0.0,0.0,0.0,0.0,0.0,0.0,0.0,0.0,0.0,0.0,0.0,0.0,0.0,0.0,0.0,0.0,0.0,0.0,0.0,0.0,0.0,0.0,0.0,0.0,0.0,0.0,0.0,0.0,0.0,0.0,0.0,0.0,0.0,0.0,0.0,0.0,0.0,0.0,0.0,0.0,0.0,0.0,0.0,0.0,0.0,0.0,0.0,0.0,0.0,0.0,0.0,0.0,0.0,0.0,0.0,0.0,0.0,0.0,0.0,0.0,0.0,0.0,0.0,0.0,0.0,0.0,0.0,0.0,0.0,0.0,0.0,0.0,0.0,0.0,0.0,0.0,0.0,0.0,0.0,0.0,0.0,0.0,0.0,0.0,0.0,0.0,0.0,0.0,0.0,0.0,0.0,0.0,0.0,0.0,0.0,0.0,0.0,0.0,0.0,0.0,0.0,0.0,0.0,0.0,0.0,0.0,0.0,0.0,0.0,0.0,0.0,0.0,0.0,0.0,0.0,0.0,0.0,0.0,0.0,0.0,0.0,0.0,0.0,0.0,0.0,0.0,0.0,0.0,0.0,0.0,0.0,0.0,0.0,0.0,0.0,0.0,0.0,0.0,0.0,0.0,0.0,0.0,0.0,0.0,0.0,0.0,0.0,0.0,0.0,0.0,0.0,0.0,0.0,0.0,0.0,0.0,0.0,0.0,0.0,0.0,0.0,0.0,0.0,0.0,0.0,0.0,0.0,0.0,0.0,0.0,0.0,0.0,0.0,0.0,0.0,0.0,0.0,0.0,0.0,0.0,0.0,0.0,0.0,0.0,0.0,0.0,0.0,0.0,0.0,0.0,0.0,0.0,0.0,0.0,0.0,0.0,0.0,0.0,0.0,0.0,0.0,0.0,0.0,0.0,0.0,0.0,0.0,0.0,0.0,0.0,0.0,0.0,0.0,0.0,0.0,0.0,0.0,0.0,0.0,0.0,0.0,0.0,0.0,0.0,0.0,0.0,0.0,0.0,0.0,0.0,0.0,0.0,0.0,0.0,0.0,0.0,0.0,0.0,0.0,0.0,0.0,0.0,0.0,0.0,0.0,0.0,0.0,0.0,0.0,0.0,0.0,0.0,0.0,0.0,0.0,0.0,0.0,0.0,0.0,0.0,0.0,0.0,0.0,0.0,0.0,0.0,0.0,0.0,0.0,0.0,0.0,0.0,0.0,0.0,0.0,0.0,0.0,0.0,0.0,0.0,0.0,0.0,0.0,0.0,0.0,0.0,0.0,0.0,0.0,0.0,0.0,0.0,0.0,0.0,0.0,0.0,0.0,0.0,0.0,0.0,0.0,0.0,0.0,0.0,0.0,0.0,0.0,0.0,0.0,0.0,0.0,0.0,0.0,0.0,0.0,0.0,0.0,0.0,0.0,0.0,0.0,0.0,0.0,0.0,0.0,0.0,0.0,0.0,0.0,0.0,0.0,0.0,0.0,0.0,0.0,0.0,0.0,0.0,0.0,0.0,0.0,0.0,0.0,0.0,0.0,0.0,0.0,0.0,0.0,0.0,0.0,0.0,0.0,0.0,0.0,0.0,0.0,0.0,0.0,0.0,0.0,0.0,0.0,0.0,0.0,0.0,0.0,0.0,0.0,0.0,0.0,0.0,0.0,0.0,0.0,0.0,0.0,0.0,0.0,0.0,0.0,0.0,0.0,0.0,0.0,0.0,0.0,0.0,0.0,0.0,0.0,0.0,0.0,0.0,0.0,0.0,0.0,0.0,0.0,0.0,0.0,0.0,0.0,0.0,0.0,0.0,0.0,0.0,0.0,0.0,0.0,0.0,0.0,0.0,0.0,0.0,0.0,0.0,0.0,0.0,0.0,0.0,0.0,0.0,0.0,0.0,0.0,0.0,0.0,0.0,0.0,0.0,0.0,0.0,0.0,0.0,0.0,0.0,0.0,0.0,0.0,0.0,0.0,0.0,0.0,0.0,0.0,0.0,0.0,0.0,0.0,0.0,0.0,0.0,0.0,0.0,0.0,0.0,0.0,0.0,0.0,0.0,0.0,0.0,0.0,0.0,0.0,0.0,0.0,0.0,0.0,0.0,0.0,0.0,0.0,0.0,0.0,0.0,0.0,0.0,0.0,0.0,0.0,0.0,0.0,0.0,0.0,0.0,0.0,0.0,0.0,0.0,0.0,0.0,0.0,0.0,0.0,0.0,0.0,0.0,0.0,0.0,0.0,0.0,0.0,0.0,0.0,0.0,0.0,0.0,0.0,0.0,0.0,0.0,0.0,0.0,0.0,0.0,0.0,0.0,0.0,0.0,0.0,0.0,0.0,0.0,0.0,0.0,0.0,0.0,0.0,0.0,0.0,0.0,0.0,0.0,0.0,0.0,0.0,0.0,0.0,0.0,0.0,0.0,0.0,0.0,0.0,0.0,0.0,0.0,0.0,0.0,0.0,0.0,0.0,0.0,0.0,0.0,0.0,0.0,0.0,0.0,0.0,0.0,0.0,0.0,0.0,0.0,0.0,0.0,0.0,0.0,0.0,0.0,0.0,0.0,0.0,0.0,0.0,0.0,0.0,0.0,0.0,0.0,0.0,0.0,0.0,0.0,0.0,0.0,0.0,0.0,0.0,0.0,0.0,0.0,0.0,0.0,0.0,0.0,0.0,0.0,0.0,0.0,0.0,0.0,0.0,0.0,0.0,0.0,0.0,0.0,0.0,0.0,0.0,0.0,0.0,0.0,0.0,0.0,0.0,0.0,0.0,0.0,0.0,0.0,0.0,0.0,0.0,0.0,0.0,0.0,0.0,0.0,0.0,0.0,0.0,0.0,0.0,0.0,0.0,0.0,0.0,0.0,0.0,0.0,0.0,0.0,0.0,0.0,0.0,0.0,0.0,0.0,0.0,0.0,0.0,0.0,0.0,0.0,0.0,0.0,0.0,0.0,0.0,0.0,0.0,0.0,0.0,0.0,0.0,0.0,0.0,0.0,0.0,0.0,0.0,0.0,0.0,0.0,0.0,0.0,0.0,0.0,0.0,0.0,0.0,0.0,0.0,0.0,0.0,0.0,0.0,0.0,0.0,0.0,0.0,0.0,0.0,0.0,0.0,0.0,0.0,0.0,0.0,0.0,0.0,0.0,0.0,0.0,0.0,0.0,0.0,0.0,0.0,0.0,0.0,0.0,0.0,0.0,0.0,0.0,0.0,0.0,0.0,0.0,0.0,0.0,0.0,0.0,0.0,0.0,0.0,0.0,0.0,0.0,0.0,0.0,0.0,0.0,0.0,0.0,0.0,0.0,0.0,0.0,0.0,0.0,0.0,0.0,0.0,0.0,0.0,0.0,0.0,0.0,0.0,0.0,0.0,0.0,0.0,0.0,0.0,0.0,0.0,0.0,0.0,0.0,0.0,0.0,0.0,0.0,0.0,0.0,0.0,0.0,0.0,0.0,0.0,0.0,0.0,0.0,0.0,0.0,0.0,0.0,0.0,0.0,0.0,0.0,0.0,0.0,0.0,0.0,0.0,0.0,0.0,0.0,0.0,0.0,0.0,0.0,0.0,0.0,0.0,0.0,0.0,0.0,0.0,0.0,0.0,0.0,0.0,0.0,0.0,0.0,0.0,0.0,0.0,0.0,0.0,0.0,0.0,0.0,0.0,0.0,0.0,0.0,0.0,0.0,0.0,0.0,0.0,0.0,0.0,0.0,0.0,0.0,0.0,0.0,0.0,0.0,0.0,0.0,0.0,0.0,0.0,0.0,0.0,0.0,0.0,0.0,0.0,0.0,0.0,0.0,0.0,0.0,0.0,0.0,0.0,0.0,0.0,0.0,0.0,0.0,0.0,0.0,0.0,0.0,0.0,0.0,0.0,0.0,0.0,0.0,0.0,0.0,0.0,0.0,0.0,0.0,0.0,0.0,0.0,0.0,0.0,0.0,0.0,0.0,0.0,0.0,0.0,0.0,0.0,0.0,0.0,0.0,0.0,0.0,0.0,0.0,0.0,0.0,0.0,0.0,0.0,0.0,0.0,0.0,0.0,0.0,0.0,0.0,0.0,0.0,0.0,0.0,0.0,0.0,0.0,0.0,0.0,0.0,0.0,0.0,0.0,0.0,0.0,0.0,0.0,0.0,0.0,0.0,0.0,0.0,0.0,0.0,0.0,0.0,0.0,0.0,0.0,0.0,0.0,0.0,0.0,0.0,0.0,0.0,0.0,0.0,0.0,0.0,0.0,0.0,0.0,0.0,0.0,0.0,0.0,0.0,0.0,0.0,0.0,0.0,0.0,0.0,0.0,0.0,0.0,0.0,0.0,0.0,0.0,0.0,0.0,0.0,0.0,0.0,0.0,0.0,0.0,0.0,0.0,0.0,0.0,0.0,0.0,0.0,0.0,0.0,0.0,0.0,3.786,0.0,0.0,0.0,0.0,0.0,0.0,0.0,0.0,0.0,0.0,0.0,0.0,0.0,0.0,0.0,0.0,0.0,0.0,0.0,0.0,0.0,0.0,0.0,0.0,0.0,0.0,0.0,0.0,0.0,0.0,0.0,0.0,0.0,0.0,0.0,0.0,0.0,0.0,0.0,3.5214,3.4861,3.4549,3.4586,3.4174,3.3434,0.0,0.0,0.0,0.0,0.0,0.0,0.0,0.0,0.0,0.0,0.0,0.0,0.0,0.0,0.0,0.0,0.0,0.0,0.0,0.0,0.0,0.0,0.0,0.0,0.0,0.0,0.0,0.0,0.0,0.0,0.0,0.0,0.0,0.0,0.0,0.0,0.0,0.0,0.0,0.0,0.0,0.0,0.0,0.0,0.0,0.0,0.0,0.0,0.0,0.0,0.0,0.0,0.0,0.0,0.0,0.0,0.0,0.0,0.0,0.0,0.0,0.0,0.0,0.0,0.0,0.0,0.0,0.0,0.0,0.0,0.0,3.838,0.0,0.0,0.0,0.0,0.0,0.0,0.0,0.0,0.0,0.0,0.0,0.0,0.0,0.0,0.0,0.0,0.0,0.0,0.0,0.0,0.0,0.0,0.0,0.0,3.5483,3.5364,3.5383,3.5326,0.0,0.0,0.0,0.0,0.0,0.0,0.0,0.0,0.0,3.5574,3.5463,3.5055,3.4389,3.4525,3.4252,3.3629,3.4291,0.0,0.0,0.0,0.0,0.0,0.0,0.0,0.0,0.0,0.0,0.0,0.0,0.0,0.0,0.0,0.0,0.0,0.0,0.0,0.0,0.0,0.0,0.0,0.0,0.0,0.0,0.0,0.0,0.0,0.0,0.0,0.0,0.0,0.0,0.0,0.0,0.0,0.0,0.0,0.0,0.0,0.0,0.0,0.0,0.0,0.0,0.0,0.0,0.0,0.0,0.0,0.0,0.0,0.0,0.0,0.0,0.0,0.0,0.0,0.0,0.0,0.0,0.0,3.9587,3.9933,3.996,4.0747,4.1085,4.1,3.9485,3.8805,3.8751,3.8733,0.0,0.0,0.0,0.0,0.0,0.0,0.0,0.0,0.0,0.0,0.0,0.0,0.0,0.0,0.0,0.0,0.0,0.0,0.0,0.0,0.0,3.5239,3.5239,3.5223,3.5223,3.5207,3.5209,0.0,0.0,0.0,0.0,0.0,0.0,3.5311,3.5391,3.5432,3.4894,3.4275,3.357,3.4272,3.4544,3.4447,3.4544,3.4544,3.4486,0.0,0.0,0.0,0.0,0.0,0.0,0.0,0.0,0.0,0.0,0.0,0.0,0.0,0.0,0.0,0.0,0.0,0.0,0.0,0.0,0.0,0.0,0.0,0.0,0.0,0.0,0.0,0.0,0.0,0.0,0.0,0.0,0.0,0.0,0.0,0.0,0.0,0.0,0.0,0.0,0.0,3.6813,3.674,0.0,0.0,0.0,0.0,0.0,0.0,0.0,0.0,0.0,0.0,0.0,0.0,0.0,3.9704,4.0458,4.0529,4.0595,4.0657,4.0831,4.0929,4.0929,4.1046,4.1071,4.1003,4.0701,0.0,4.0558,4.0479,0.0,0.0,0.0,0.0,0.0,0.0,0.0,0.0,0.0,0.0,0.0,0.0,0.0,0.0,0.0,0.0,0.0,0.0,0.0,0.0,0.0,3.527,3.5311,3.5311,3.5378,3.5378,3.5326,3.5311,0.0,0.0,0.0,3.5239,3.5311,3.5364,3.5451,3.557,3.538,3.512,3.4817,3.5168,3.5324,3.5324,3.5326,3.5324,3.5353,3.571,0.0,0.0,0.0,0.0,0.0,0.0,0.0,0.0,0.0,0.0,0.0,0.0,0.0,0.0,0.0,0.0,0.0,0.0,0.0,0.0,0.0,0.0,0.0,0.0,0.0,0.0,0.0,0.0,0.0,0.0,0.0,0.0,0.0,0.0,0.0,0.0,0.0,0.0,0.0,3.7461,3.7672,3.7683,3.799,3.8199,0.0,0.0,0.0,0.0,0.0,0.0,0.0,0.0,0.0,4.021,4.023,4.0401,4.0807,4.0826,4.115,4.1735,4.1682,4.196,4.2487,4.2466,4.2424,4.2408,4.2364,4.2344,4.2236,4.123,4.0796,4.079,0.0,0.0,0.0,0.0,4.079,4.079,0.0,0.0,0.0,0.0,0.0,0.0,0.0,0.0,0.0,0.0,0.0,0.0,3.5223,3.5311,3.5378,3.5391,3.5495,3.5495,3.5378,3.5364,0.0,0.0,0.0,3.5242,3.5326,3.5391,3.5527,3.5753,3.5846,3.5908,3.5908,3.5908,3.5908,3.5908,3.5898,3.5897,3.5899,3.5852,3.583,3.5806,0.0,0.0,0.0,0.0,0.0,0.0,0.0,0.0,0.0,0.0,0.0,0.0,0.0,0.0,0.0,0.0,0.0,0.0,0.0,0.0,0.0,0.0,0.0,0.0,0.0,0.0,0.0,0.0,0.0,0.0,0.0,0.0,0.0,0.0,0.0,0.0,0.0,3.8407,3.8562,3.8595,3.8764,3.8876,0.0,0.0,0.0,0.0,0.0,0.0,4.0771,4.079,4.0887,4.11,4.11,4.1202,4.1443,4.1447,4.1845,4.2613,4.251,4.285,4.3564,4.3514,4.3489,4.3481,4.3461,4.3427,4.3272,4.1976,4.1429,4.1409,4.1177,4.11,4.1081,4.0868,4.079,4.079,0.0,0.0,0.0,0.0,0.0,0.0,0.0,0.0,0.0,0.0,0.0,3.5223,3.53,3.5296,3.5326,3.5391,3.5405,3.5378,3.5296,3.5315,3.5254,3.5198,3.52,3.5164,3.511,3.5372,3.5621,3.5883,3.5908,3.5908,3.5908,3.5908,3.5908,3.5908,3.5898,3.5905,3.5905,3.591,3.5854,3.5794,3.5805,0.0,0.0,0.0,0.0,0.0,0.0,0.0,0.0,0.0,0.0,0.0,0.0,0.0,0.0,0.0,0.0,0.0,0.0,0.0,0.0,0.0,0.0,0.0,0.0,0.0,0.0,0.0,0.0,0.0,0.0,0.0,0.0,0.0,0.0,0.0,0.0,0.0,0.0,3.9429,4.0184,0.0,0.0,0.0,0.0,4.0732,4.0732,4.0752,4.079,4.079,4.1139,4.1912,4.1932,4.2338,4.3169,4.3252,4.333,4.3433,4.3432,4.3458,4.3497,4.3497,4.3471,4.3404,4.3404,4.3369,4.3305,4.3208,4.3169,4.3092,4.226,4.1932,4.1854,4.1081,4.079,4.079,0.0,0.0,0.0,0.0,0.0,0.0,0.0,0.0,3.52,3.5198,3.5242,3.527,3.53,3.5445,3.5519,3.5425,3.5523,3.55,3.5311,3.5315,3.5273,3.52,3.5147,3.5209,3.5359,3.5621,3.5801,3.5908,3.5908,3.5908,3.5908,3.5908,3.5897,3.5898,3.5857,3.5807,3.5782,3.5773,3.5763,3.5741,3.5737,3.5725,0.0,0.0,0.0,0.0,0.0,0.0,0.0,0.0,0.0,0.0,0.0,0.0,0.0,0.0,0.0,0.0,0.0,0.0,0.0,0.0,0.0,0.0,0.0,0.0,0.0,0.0,0.0,0.0,0.0,0.0,0.0,0.0,0.0,0.0,0.0,0.0,0.0,4.0339,4.0597,0.0,4.079,4.079,4.079,4.079,4.1274,4.1564,4.1564,4.2106,4.2531,4.2841,4.2841,4.2995,4.3305,4.3331,4.364,4.4273,4.423,4.4517,4.5114,4.5054,4.5029,4.5013,4.5013,4.4976,4.491,4.491,4.4272,4.3266,4.2957,4.2841,4.2802,4.2512,4.2415,4.2415,0.0,0.0,0.0,0.0,0.0,0.0,0.0,0.0,3.5111,3.5038,3.516,3.5239,3.527,3.5418,3.5495,3.5386,3.5488,3.5476,3.5285,3.527,3.5226,3.5147,3.5126,3.5277,3.556,3.5749,3.584,3.5908,3.5908,3.5908,3.5908,3.5908,3.5891,3.5898,3.5834,3.5754,3.5708,3.5708,3.5689,3.5696,3.5707,3.5704,3.5723,0.0,0.0,0.0,0.0,0.0,0.0,0.0,0.0,0.0,0.0,0.0,0.0,0.0,0.0,0.0,0.0,0.0,0.0,0.0,0.0,0.0,0.0,0.0,0.0,0.0,0.0,0.0,0.0,0.0,0.0,0.0,0.0,0.0,0.0,0.0,4.079,4.079,4.079,4.0906,4.1177,4.1197,4.1332,4.1622,4.2144,4.2434,4.2434,4.2995,4.344,4.373,4.375,4.3866,4.4136,4.4136,4.4466,4.5091,4.506,4.5369,4.5956,4.5929,4.5893,4.588,4.588,4.5854,4.58,4.58,4.5142,4.4117,4.3846,4.375,4.3711,4.3421,4.3305,4.3305,0.0,0.0,0.0,0.0,0.0,0.0,0.0,3.4831,3.4927,3.4714,3.4927,3.5127,3.5193,3.519,3.5223,3.53,3.53,3.527,3.5209,3.5193,3.5143,3.502,3.5136,3.5366,3.5697,3.5706,3.5764,3.5908,3.5908,3.5908,3.5908,3.5908,3.5891,3.5898,3.5834,3.5765,3.5699,3.5706,3.5704,3.5704,3.5704,3.5742,3.5781,0.0,0.0,0.0,0.0,0.0,0.0,0.0,0.0,0.0,0.0,0.0,0.0,0.0,0.0,0.0,0.0,0.0,0.0,0.0,0.0,0.0,0.0,0.0,0.0,0.0,0.0,0.0,0.0,0.0,0.0,0.0,0.0,0.0,4.079,4.081,4.0829,4.0829,4.0848,4.1177,4.1951,4.2048,4.2396,4.3247,4.3324,4.3343,4.3343,4.3363,4.3769,4.462,4.4639,4.5007,4.578,4.58,4.5822,4.5905,4.5905,4.5905,4.5905,4.5925,4.5906,4.5838,4.5858,4.5877,4.5877,4.5877,4.5877,4.58,4.4968,4.4639,4.4543,4.3692,4.3382,4.3382,0.0,0.0,0.0,0.0,0.0,0.0,0.0,3.4529,3.4694,3.4632,3.4945,3.5176,3.5209,3.5281,3.5277,3.5171,3.5184,3.5152,3.4982,3.4982,3.5035,3.5136,3.5412,3.5611,3.5697,3.5799,3.5866,3.5908,3.5908,3.5908,3.5908,3.5905,3.5878,3.5815,3.5765,3.5718,3.5706,3.5695,3.5704,3.5704,3.5704,3.5704,3.5723,0.0,0.0,0.0,0.0,0.0,0.0,0.0,0.0,0.0,0.0,0.0,0.0,0.0,0.0,0.0,0.0,0.0,0.0,0.0,0.0,0.0,0.0,0.0,0.0,0.0,0.0,0.0,0.0,0.0,0.0,0.0,0.0,4.1467,4.0868,4.1293,4.1661,4.1661,4.2222,4.2705,4.2918,4.2937,4.3034,4.3285,4.3885,4.4253,4.4253,4.4794,4.522,4.5452,4.5471,4.5568,4.58,4.58,4.5814,4.5841,4.5841,4.5841,4.586,4.6466,4.6756,4.6786,4.7405,4.7695,4.7695,4.7695,4.7695,4.754,4.6051,4.5471,4.5432,4.52,4.5104,4.5104,0.0,0.0,0.0,0.0,0.0,0.0,0.0,3.4371,3.4567,3.4439,3.4812,3.5072,3.5072,3.5136,3.5152,3.5035,3.5051,3.5016,3.4927,3.4982,3.5149,3.5393,3.5601,3.5741,3.5772,3.5866,3.5908,3.5908,3.5908,3.5908,3.5908,3.5898,3.5857,3.5791,3.5727,3.5698,3.5704,3.5704,3.5704,3.5704,3.5704,3.5704,3.5704,3.5704,3.5704,3.5704,3.5704,3.5704,3.5704,3.5704,0.0,0.0,0.0,0.0,0.0,0.0,0.0,0.0,0.0,0.0,0.0,0.0,0.0,0.0,0.0,0.0,0.0,0.0,0.0,0.0,0.0,0.0,0.0,0.0,4.199,4.2376,4.1912,4.2241,4.2531,4.2531,4.2995,4.344,4.3808,4.3846,4.3982,4.4311,4.4813,4.5104,4.5104,4.5548,4.58,4.58,4.58,4.58,4.58,4.6148,4.6341,4.6341,4.6709,4.6883,4.6902,4.7405,4.7637,4.7676,4.8179,4.8392,4.8392,4.8392,4.8392,4.8295,0.0,0.0,0.0,0.0,4.6651,4.6341,0.0,0.0,0.0,0.0,0.0,0.0,0.0,3.4221,3.4473,3.4221,3.4609,3.4908,3.4908,3.4908,3.4908,3.4908,3.4908,3.4908,3.4908,3.5102,3.5372,3.5641,3.5697,3.5776,3.5897,3.5903,3.5942,3.6039,3.6045,3.6084,3.6175,3.6164,3.6083,3.5918,3.5873,3.5785,3.5704,3.5704,3.5704,3.5704,3.5704,3.5704,3.5704,3.5704,3.5704,3.5704,3.5704,3.5762,3.5839,3.5839,0.0,0.0,0.0,0.0,0.0,0.0,0.0,0.0,0.0,0.0,0.0,0.0,0.0,0.0,0.0,0.0,0.0,0.0,0.0,0.0,0.0,0.0,0.0,0.0,4.2853,4.3413,4.3413,4.349,4.3523,4.346,4.3504,4.3858,4.4631,4.4708,4.5012,4.5728,4.58,4.58,4.58,0.0,0.0,0.0,0.0,4.5931,4.6027,4.68,4.7187,4.7187,4.7959,4.8346,4.8346,4.8443,4.8481,4.8501,4.8578,4.8651,4.8667,4.8667,4.8667,4.8662,4.8469,4.8392,4.8392,4.8392,4.7908,4.725,0.0,0.0,0.0,0.0,0.0,0.0,0.0,3.3921,3.4269,3.4197,3.4609,3.4908,3.4908,3.4908,3.4908,3.4908,3.4908,3.4908,3.4908,3.52,3.5391,3.547,3.5669,3.5799,3.5823,3.5872,3.6223,3.6865,3.6929,3.728,3.7929,3.7852,3.7461,3.6765,3.6695,3.6314,3.5704,3.5704,3.5704,3.5704,3.5704,3.5704,3.5704,3.5704,3.5704,3.5704,3.5704,3.611,3.6671,3.6671,3.7251,3.7947,3.7947,3.8063,0.0,0.0,0.0,0.0,0.0,0.0,0.0,0.0,0.0,0.0,0.0,0.0,0.0,0.0,0.0,0.0,0.0,0.0,0.0,4.2876,4.3586,4.4126,4.4126,4.4704,4.4963,4.4413,4.4824,4.5205,4.5379,4.5398,4.5472,4.5645,4.5737,4.58,4.58,4.5692,4.5957,4.667,4.6528,4.6781,4.7492,4.7665,4.7761,4.7761,4.7914,0.0,4.803,4.8721,4.9047,4.9067,4.972,5.0106,5.0256,5.0256,5.0325,5.0287,4.8933,4.8392,4.8392,4.8392,4.8295,4.814,0.0,0.0,0.0,0.0,0.0,0.0,0.0,3.3753,3.4049,3.4173,3.452,3.4791,3.4889,3.4908,3.4908,3.4908,3.4908,3.4945,3.5034,3.5216,3.5331,3.5406,3.5527,3.5611,3.5611,3.6134,3.6606,3.7039,3.7518,3.7972,3.84,3.8324,3.8084,3.7637,3.7583,3.7096,3.6303,3.6303,3.6071,3.5704,3.5704,3.5704,3.5704,3.5704,3.5955,3.6303,3.6303,3.6845,3.756,3.756,3.8141,3.8856,3.8856,3.9146,3.956,0.0,0.0,0.0,0.0,0.0,0.0,0.0,0.0,0.0,0.0,0.0,0.0,0.0,0.0,4.2456,0.0,0.0,4.3539,4.3676,4.4355,4.4876,4.4944,4.5276,4.5391,4.5137,4.5349,4.5528,4.5596,4.5545,4.572,4.6213,4.6232,4.6386,4.6831,4.6797,4.6935,4.7376,4.7299,4.7451,4.7891,4.8332,4.8543,4.8543,4.8966,4.9158,4.9177,4.9599,4.981,4.9829,5.0334,5.0547,5.0547,5.0664,5.0791,5.0828,4.9977,4.9649,4.9649,4.9649,4.9397,4.9049,0.0,0.0,0.0,0.0,0.0,0.0,0.0,3.3633,3.3868,3.4099,3.434,3.4564,3.4752,3.4772,3.4792,3.485,3.485,3.4926,3.5136,3.5168,3.5224,3.5341,3.5368,3.538,3.538,3.6335,3.6945,3.7172,3.8064,3.8617,3.8827,3.8802,3.8713,3.8518,3.8473,3.7967,3.7135,3.698,3.6535,3.5916,3.5762,3.5704,3.5704,3.5704,3.6207,3.6903,3.6903,3.758,3.845,3.845,3.9018,3.9702,3.9746,4.0198,4.0713,4.0559,4.0607,0.0,0.0,0.0,0.0,0.0,0.0,0.0,0.0,0.0,4.1844,4.1982,4.2595,4.3119,4.3119,4.3694,4.4208,4.4456,4.4978,4.54,4.551,4.5553,4.563,4.5741,4.5515,4.5458,4.5741,4.5668,4.5994,4.6972,4.6916,4.7144,4.7853,4.789,4.7926,4.8099,4.8056,4.8133,4.8305,4.8993,4.9338,4.9338,4.9988,5.0294,5.0294,5.0294,5.0294,5.0317,5.0526,5.0526,5.038,5.0547,5.07,5.0805,5.0805,5.0805,5.0805,5.0874,5.05,4.9939,0.0,0.0,0.0,0.0,0.0,0.0,0.0,0.0,3.3807,3.3842,3.4074,3.4245,3.4293,3.4293,3.4386,3.4604,3.4626,3.473,3.4908,3.5053,3.5122,3.5136,3.5247,3.5311,3.5311,3.6185,3.7016,3.7795,3.8786,3.9654,4.0372,4.0463,4.0106,3.9371,3.9371,3.8876,3.8005,3.7232,3.6845,3.6709,3.5994,3.5704,3.5704,3.5704,3.6207,3.6903,3.6903,3.7967,3.934,3.934,3.9818,4.0405,4.0591,4.059,4.0526,4.0511,0.0,4.0317,4.0176,4.0158,4.0177,4.0283,4.0383,4.0627,0.0,0.0,4.1966,4.2561,4.3368,4.3981,4.3981,4.4553,4.5061,4.5082,4.5178,4.5235,4.5237,4.5846,4.6304,4.6304,4.5674,4.5521,4.6228,4.6304,4.6666,4.7525,4.7695,4.7795,4.7891,4.7802,4.8056,4.8781,4.8669,4.8953,4.9675,4.977,4.9827,4.9827,4.9903,4.9959,4.9959,4.9959,4.9959,4.9959,5.0163,5.0236,5.0236,5.038,5.0446,5.0467,5.0467,5.0467,5.0488,5.0789,5.0848,5.077,0.0,0.0,0.0,0.0,0.0,0.0,0.0,0.0,0.0,3.378,3.3895,3.4023,3.4173,3.4197,3.4245,3.434,3.4517,3.4645,3.473,3.4889,3.4982,3.4982,3.5035,3.507,3.507,3.6009,3.668,3.7091,3.8003,3.8703,3.9136,3.9168,3.9025,3.874,3.874,3.8257,3.7425,3.7058,3.6632,3.6168,3.5839,3.5704,3.5684,3.5608,3.6395,3.7553,3.7553,3.8633,0.0,3.9991,4.0207,4.0511,4.0515,4.0496,4.0462,4.0317,4.0283,0.0,4.0139,4.0101,4.0101,0.0,4.0482,4.1017,4.1399,4.2279,4.312,4.3484,4.4192,4.4744,4.4744,4.49,4.5061,0.0,4.5103,4.5232,4.5818,4.6111,4.6459,4.6934,4.6687,4.6658,4.7095,4.7063,4.7381,4.8314,4.8367,4.8577,4.9053,4.9017,4.9138,4.948,4.944,4.9557,4.9898,4.9898,4.9898,4.9898,4.9898,4.9898,4.9898,4.9898,4.9959,5.0063,5.0038,5.0144,5.0313,5.0291,5.0336,5.0404,5.0404,5.0404,5.0425,5.0548,5.0681,5.0791,0.0,0.0,0.0,0.0,0.0,0.0,0.0,0.0,0.0,0.0,3.3698,3.378,3.3947,3.3972,3.3998,3.4074,3.434,3.4517,3.4602,3.4791,3.4908,3.4908,3.4908,3.4908,3.4908,3.5836,3.6365,3.6432,3.7302,3.7817,3.7968,3.794,3.8001,3.8087,3.8087,3.7739,3.7141,3.6909,3.6484,3.5925,3.5693,3.5584,3.5584,3.547,3.6502,3.793,3.793,3.9008,4.0431,4.0334,4.0351,4.0383,4.0317,4.0351,4.0351,4.0158,4.0158,4.0157,4.0061,0.0,0.0,4.0217,4.0748,4.1383,4.1924,4.2995,4.3973,4.4246,4.4756,4.5125,4.5125,4.501,4.4943,4.5103,4.501,4.5247,4.6206,4.6453,4.6828,4.7662,4.7946,4.815,4.8281,4.7973,4.8156,4.9099,4.9086,4.9273,4.986,4.9898,4.9898,4.9898,4.9898,4.9898,4.9898,4.9898,4.9898,4.9898,4.9898,4.9898,4.9898,4.9898,4.9959,5.0114,4.9959,5.0044,5.0249,5.0144,5.0169,5.0249,5.0249,5.0249,5.0202,5.0202,5.0361,5.0547,0.0,0.0,0.0,0.0,0.0,0.0,0.0,0.0,0.0,0.0,0.0,0.0,0.0,3.3422,3.352,3.3807,3.4049,3.4316,3.4583,3.4791,3.4908,3.4908,3.4908,3.4908,3.4908,3.5742,3.6216,3.6216,3.7147,3.7602,3.7619,3.7756,3.7801,3.7801,3.7801,3.7801,3.7705,3.6938,3.6592,3.6496,3.5656,3.5296,3.5315,3.5315,3.6351,3.7808,3.7808,3.8882,4.0317,4.03,4.0212,4.0139,4.0266,4.0212,0.0,4.0101,4.0,3.9911,0.0,0.0,4.0119,4.0953,4.1292,4.1774,4.3293,4.3764,4.4078,4.4735,4.49,4.4895,4.4895,4.4895,4.4895,4.4895,4.4895,4.5198,4.607,4.6866,4.7681,4.8553,4.9349,4.9822,0.0,4.9129,4.9015,4.9811,4.986,4.986,4.9898,4.9898,4.9898,4.9898,4.9898,4.9898,4.9898,4.9898,4.9898,4.9898,4.9898,4.9898,4.9898,4.9898,4.9879,4.9925,4.9879,4.9925,4.9906,4.9906,4.9906,4.9925,4.9925,4.9843,4.9721,4.9721,4.994,5.0206,0.0,0.0,0.0,0.0,0.0,0.0,0.0,0.0,0.0,0.0,0.0,0.0,0.0,0.0,0.0,0.0,3.378,3.3972,3.4074,3.4476,3.471,3.471,3.4831,3.4908,3.4908,3.5192,3.5344,3.5344,3.5647,3.5855,3.5944,3.5995,3.6061,3.614,3.614,3.614,3.6121,3.5852,3.5737,3.5699,3.5431,3.5315,3.5281,3.5203,3.6222,3.7656,0.0,3.867,4.0139,4.0061,4.0061,4.0081,4.006,4.0061,4.0081,3.9979,3.9954,3.9889,3.9889,0.0,4.0097,4.0991,4.1642,4.2348,4.3459,4.4147,4.4626,4.4862,4.4895,4.4895,4.4895,4.4895,4.4895,4.4895,4.4895,4.5388,4.679,4.7226,4.7908,4.933,4.9728,0.0,0.0,0.0,0.0,4.986,4.9898,4.9898,4.9898,4.9898,4.9898,4.9898,4.9898,4.9898,4.9898,4.9898,4.9898,4.9898,4.9898,4.9898,4.9898,4.9898,4.9898,4.9898,4.9898,4.9898,4.9898,4.9898,4.9843,4.9778,4.9778,4.9644,4.9506,4.9506,4.9518,4.9569,0.0,0.0,0.0,0.0,0.0,0.0,0.0,0.0,0.0,0.0,0.0,0.0,0.0,0.0,0.0,0.0,0.0,3.3807,3.3807,3.4221,3.4473,3.4473,3.4586,3.4651,3.4651,3.4651,3.4711,3.4791,3.4791,3.487,3.5035,3.5035,3.507,3.5155,3.5155,3.5155,3.5155,3.5155,3.5155,3.5155,3.5155,3.5155,3.5155,3.5053,3.5892,0.0,3.7336,3.8264,3.948,3.9797,3.9956,4.0,3.9933,3.9956,4.0,3.9933,3.9889,3.9965,4.0268,4.0344,4.065,4.1806,4.2488,4.3095,4.3947,4.4535,4.4895,4.4895,4.4895,4.4889,4.4821,4.487,4.487,4.4821,4.5136,4.5843,4.7207,4.7662,4.8363,4.9728,4.9898,4.9898,0.0,0.0,0.0,4.9898,4.9898,4.9898,4.9898,4.9898,4.9898,4.9898,4.9898,4.9898,4.9898,4.9898,4.9898,4.9898,4.9898,4.9898,4.9898,4.9898,4.9898,4.9898,4.9898,4.9898,4.9898,4.9898,4.9843,4.9759,4.9759,4.9673,4.9525,4.9525,4.9371,4.9244,0.0,0.0,0.0,0.0,0.0,0.0,0.0,0.0,0.0,0.0,0.0,0.0,0.0,0.0,0.0,0.0,0.0,0.0,3.378,3.4023,3.4173,3.4173,3.4197,3.4197,3.4197,3.4197,3.4316,3.4561,3.4561,3.4689,3.4851,3.4851,3.4851,3.4851,3.4851,3.4851,3.4851,3.4851,3.4851,3.4851,3.4851,3.4851,3.4851,3.4851,3.54,3.6271,3.7029,3.7675,3.8362,3.952,3.9889,3.9889,3.9889,3.9889,3.9889,3.9889,3.9889,4.01,4.0972,4.12,4.1598,4.3284,4.3701,4.391,4.4724,4.4895,4.4895,4.4895,4.4895,4.4846,0.0,0.0,4.4846,4.4738,4.5521,4.643,4.7283,4.8098,4.8932,0.0,0.0,0.0,0.0,0.0,0.0,4.9898,0.0,4.9898,4.9898,4.9898,4.9898,4.9898,4.9898,4.9898,4.9898,4.9898,4.9898,4.9898,4.9898,4.9898,4.9898,4.9898,4.9898,4.9898,4.9898,4.9898,4.9898,4.9898,4.9898,4.9879,4.9879,4.9788,4.9663,4.9663,4.9483,4.9179,0.0,0.0,0.0,0.0,0.0,0.0,0.0,0.0,0.0,0.0,0.0,0.0,0.0,0.0,0.0,0.0,0.0,0.0,3.3491,3.3753,3.3895,3.3895,3.4099,3.4197,3.4197,3.4197,3.4221,3.4293,3.4293,3.434,3.4367,3.4367,3.4367,3.4367,3.4367,3.4367,3.4367,3.4367,3.4325,3.4223,3.4223,3.4223,3.4223,3.4176,3.488,3.5888,3.5805,3.682,0.0,0.0,0.0,0.0,0.0,3.9889,3.9889,3.9889,3.9889,4.01,4.0972,4.12,4.1598,4.3284,4.3701,4.391,4.4724,4.4895,4.4895,4.4895,4.4821,4.4738,0.0,0.0,0.0,4.4712,4.4985,0.0,4.7188,4.7586,0.0,4.9728,0.0,4.9898,4.9898,4.9898,0.0,0.0,4.9898,4.9898,4.9898,4.9898,4.9898,4.9898,4.9898,4.9898,4.9898,4.9898,4.9898,4.9898,4.9898,4.9898,4.9898,4.9898,4.9898,4.9898,4.9898,4.9898,4.9898,4.9898,4.9741,4.9537,4.9537,4.9334,4.9094,4.9094,4.9046,4.8978,0.0,0.0,0.0,0.0,0.0,0.0,0.0,0.0,0.0,0.0,0.0,0.0,0.0,0.0,0.0,0.0,0.0,0.0,0.0,3.3549,3.3615,3.3615,3.3431,3.3309,3.3309,3.2985,3.3036,3.3512,3.3512,3.3747,3.4197,3.4197,3.4197,3.4197,3.4197,3.4154,3.4111,3.4111,3.4068,0.0,0.0,3.3956,3.3956,3.3906,3.4352,3.4987,3.5136,0.0,0.0,0.0,0.0,3.9889,3.9889,3.9889,3.9889,3.9889,0.0,4.0669,4.1503,4.2014,4.2621,4.391,4.4232,4.4345,4.48,4.4895,4.487,4.4821,4.4745,0.0,4.4551,0.0,0.0,0.0,0.0,0.0,4.6733,4.751,4.8306,0.0,4.969,0.0,4.9898,4.9898,4.9871,0.0,4.9871,4.9871,4.9816,4.9816,4.9816,4.9816,4.9816,4.9843,4.9898,4.9898,4.9898,4.9898,4.9898,4.9898,4.9898,4.9898,4.9871,4.9816,4.9816,4.9759,4.9683,4.9683,4.9566,4.9415,4.9415,4.9289,4.9127,4.9127,4.9061,4.9046,0.0,0.0,0.0,0.0,0.0,0.0,0.0,0.0,0.0,0.0,0.0,0.0,0.0,0.0,0.0,0.0,0.0,0.0,0.0,0.0,3.3304,3.3304,3.2588,3.2173,3.2065,3.1379,3.1429,3.2281,3.2281,3.2761,3.3697,3.3783,3.3864,3.3932,3.3975,3.3986,3.3899,3.388,3.3828,3.3776,3.3776,3.3776,3.3776,0.0,3.3802,0.0,0.0,0.0,0.0,0.0,3.8733,3.9848,3.9889,3.9889,3.9845,3.9845,4.0495,4.1366,4.2139,4.3014,4.3891,4.4706,4.4895,4.4895,4.4827,4.4846,4.4821,4.4667,0.0,4.4578,4.4344,4.4496,4.4605,4.4515,0.0,4.6045,4.6184,4.7529,4.8553,4.8685,4.9405,4.9879,4.9871,4.9871,4.9816,4.9721,4.9816,4.9816,4.9692,4.9692,4.9721,4.9721,4.9721,4.9788,4.9898,4.9898,4.9898,4.9898,4.9898,4.9871,4.9871,4.9871,4.9788,4.9663,4.9663,4.9555,4.9415,4.9415,4.9384,4.9384,4.9384,4.9352,4.9352,4.9352,4.9257,4.9146,0.0,0.0,0.0,0.0,0.0,0.0,0.0,0.0,0.0,0.0,3.3244,3.3352,0.0,0.0,0.0,0.0,0.0,0.0,0.0,0.0,0.0,3.2798,3.2462,3.1991,3.1405,3.1246,3.096,3.0538,3.0538,3.0743,3.116,3.1559,3.2032,3.2556,3.2835,3.3142,3.3404,3.3309,3.322,3.3178,3.3178,3.3178,3.316,3.3099,0.0,0.0,0.0,0.0,0.0,0.0,3.8377,3.9599,3.9826,3.9758,3.9575,3.9575,4.0339,4.1325,4.1908,4.2875,4.3891,4.4706,4.4895,4.4846,4.4557,4.4621,0.0,0.0,4.4335,4.4373,4.4314,4.4344,4.4401,4.4487,0.0,0.0,0.0,0.0,4.7889,0.0,0.0,0.0,0.0,0.0,0.0,0.0,4.9721,4.9721,4.9692,4.9692,4.975,4.9871,4.9871,4.9871,4.9898,4.9898,4.9898,4.9898,4.9807,4.975,4.9721,4.9566,4.9476,4.9446,4.9446,4.9446,4.9415,4.9415,4.9321,4.9244,4.9244,4.9146,4.9012,4.9012,4.8959,4.8943,0.0,0.0,0.0,0.0,0.0,0.0,0.0,3.2385,3.2214,3.2401,3.2486,3.2636,3.2961,3.2752,3.2603,0.0,0.0,0.0,0.0,0.0,0.0,0.0,0.0,0.0,3.0595,3.0191,0.0,0.0,0.0,2.9739,3.03,3.0448,3.0688,3.1034,3.1532,3.1853,3.2022,3.2309,3.2368,3.2335,3.2555,3.2639,0.0,0.0,0.0,0.0,0.0,0.0,0.0,0.0,3.744,3.8515,3.94,3.9483,3.9268,3.9458,4.0384,4.1447,4.1875,4.2711,4.3662,4.4662,4.4455,4.4075,4.4308,0.0,0.0,0.0,4.3918,4.4017,4.3942,0.0,0.0,0.0,0.0,0.0,0.0,0.0,0.0,0.0,0.0,0.0,0.0,0.0,0.0,4.9555,4.9555,4.9585,4.9692,4.9692,4.9721,4.9788,4.9807,4.9807,4.9807,4.9683,4.9655,4.9655,4.9566,4.9555,4.9555,4.9446,4.9352,4.9308,4.9308,4.9225,4.916,4.916,4.9094,4.9046,4.9046,4.8978,4.8909,4.8909,4.8909,4.8909,0.0,0.0,0.0,0.0,0.0,0.0,0.0,3.1932,3.164,3.1752,3.1642,3.1716,3.2231,3.2074,3.195,0.0,0.0,0.0,0.0,0.0,0.0,0.0,0.0,0.0,0.0,0.0,0.0,0.0,0.0,0.0,0.0,0.0,0.0,0.0,0.0,3.0543,3.0612,3.1271,3.1528,0.0,0.0,3.2162,0.0,0.0,0.0,0.0,0.0,0.0,0.0,0.0,3.6231,3.7156,3.8534,3.896,3.8971,3.9234,4.0244,4.1295,4.1492,4.2192,4.3042,4.3957,4.3619,4.3212,4.3733,4.3782,0.0,0.0,4.3474,4.3627,4.3511,0.0,0.0,0.0,0.0,0.0,0.0,0.0,0.0,0.0,0.0,0.0,0.0,0.0,0.0,4.9239,4.9302,4.9427,4.9615,4.9634,4.9634,4.9634,4.9634,4.9634,4.9634,4.9396,4.9283,4.9283,4.9169,4.9137,4.9137,4.9123,4.9042,4.8925,4.8925,4.8855,4.8714,4.8714,4.875,4.8785,4.8785,4.882,4.8909,4.8909,4.8909,4.8909,0.0,0.0,0.0,0.0,0.0,0.0,0.0,3.164,3.13,3.1677,3.1067,3.0781,3.1184,3.1585,3.1825,0.0,0.0,0.0,0.0,0.0,0.0,0.0,0.0,0.0,0.0,0.0,0.0,0.0,0.0,0.0,0.0,0.0,0.0,0.0,0.0,0.0,0.0,3.0456,0.0,0.0,0.0,0.0,0.0,0.0,0.0,0.0,0.0,0.0,0.0,0.0,0.0,3.5872,3.696,3.7912,3.8628,3.8658,0.0,0.0,4.0173,4.0859,4.1659,4.1781,4.2273,4.2674,4.2371,0.0,0.0,4.3014,4.3105,4.3232,4.3232,4.3232,0.0,0.0,0.0,4.3868,0.0,0.0,0.0,0.0,0.0,0.0,0.0,0.0,0.0,4.866,4.8956,4.922,4.9415,4.9415,4.9415,4.9415,4.9415,4.9415,4.9415,4.9118,4.8949,4.893,4.8512,4.831,4.831,4.8174,4.8132,4.8111,4.8111,4.8111,4.8072,4.8072,4.821,4.8458,4.8458,4.8623,4.8909,4.8909,4.8909,4.8909,0.0,0.0,0.0,0.0,0.0,0.0,3.1603,3.1123,3.0781,3.0965,3.0716,3.0551,3.0699,3.0925,3.1027,3.1027,0.0,0.0,0.0,0.0,0.0,0.0,0.0,0.0,0.0,0.0,0.0,2.7612,0.0,0.0,0.0,0.0,0.0,0.0,0.0,0.0,0.0,0.0,0.0,0.0,0.0,0.0,0.0,0.0,0.0,0.0,0.0,0.0,0.0,0.0,0.0,0.0,3.5969,3.6768,0.0,0.0,3.9108,3.9781,3.9808,4.0154,4.064,4.133,4.16,4.1719,4.1949,0.0,4.2884,4.2591,4.2729,4.292,4.292,4.292,4.2976,0.0,4.3284,0.0,0.0,0.0,0.0,0.0,0.0,0.0,0.0,0.0,4.8587,4.8495,4.8513,4.8603,4.8674,4.9137,4.9315,4.9118,4.9038,4.8903,4.8674,4.8495,4.8346,4.8346,4.8174,4.8056,4.8056,4.8014,4.7992,4.7992,4.7992,4.7992,4.7992,4.7992,4.8053,4.8172,4.8172,4.8249,4.8364,4.8364,4.8364,4.8364,0.0,0.0,0.0,0.0,0.0,3.1565,3.1162,3.074,3.0526,3.0526,3.0526,3.0526,3.0526,3.0526,3.0526,3.0526,3.074,0.0,0.0,0.0,0.0,0.0,0.0,0.0,0.0,0.0,2.831,2.754,2.6837,2.6485,0.0,0.0,0.0,0.0,0.0,0.0,0.0,0.0,0.0,0.0,0.0,0.0,0.0,0.0,0.0,0.0,0.0,0.0,0.0,0.0,0.0,0.0,0.0,0.0,0.0,0.0,3.8655,3.9041,3.9236,3.9301,3.9511,4.0308,4.0501,4.0641,0.0,0.0,4.2243,4.2274,4.2472,4.2555,4.2555,4.2555,4.2652,4.29,4.2902,4.2958,4.3105,0.0,0.0,0.0,0.0,0.0,0.0,4.783,4.8269,4.8251,4.8117,4.8078,4.8155,4.8676,4.8903,4.8639,4.8532,4.8402,4.8137,4.7955,4.787,4.7829,4.7747,4.7705,4.7705,4.7705,4.7705,4.7705,4.7705,4.7705,4.7705,4.7705,4.7747,4.787,4.787,4.7911,4.7992,4.7992,4.7992,4.7992,0.0,0.0,0.0,0.0,0.0,0.0,3.1162,3.074,3.0526,3.0526,3.0526,3.0526,3.0526,3.0526,3.0526,3.0526,3.051,0.0,0.0,0.0,0.0,0.0,0.0,0.0,0.0,0.0,2.8347,2.7593,2.6837,2.6434,2.6295,2.6295,0.0,0.0,0.0,0.0,0.0,0.0,0.0,0.0,0.0,0.0,0.0,0.0,0.0,0.0,0.0,0.0,0.0,0.0,0.0,0.0,0.0,0.0,0.0,0.0,3.7951,3.8002,3.8036,3.814,3.8244,3.8244,3.8737,3.9409,0.0,0.0,4.15,4.2167,4.2287,4.2287,4.2287,4.2287,4.2287,4.2328,4.2534,4.2652,4.2544,0.0,0.0,0.0,0.0,0.0,0.0,4.7257,4.7578,4.7793,4.7747,0.0,4.7992,4.7992,4.8032,4.7992,4.7992,4.7992,4.7992,4.7663,4.7511,4.7511,4.716,4.698,4.698,4.698,4.698,4.698,4.698,4.698,4.698,4.698,4.7205,4.7511,4.7511,4.7705,4.7992,4.7992,4.7992,4.7992,0.0,0.0,0.0,0.0,0.0,0.0,0.0,3.0593,3.0526,3.0526,3.0526,3.0526,3.0526,3.0526,3.0526,3.0526,3.0526,0.0,0.0,0.0,0.0,0.0,0.0,0.0,0.0,0.0,2.8123,2.7374,2.6676,2.6274,2.6222,2.6222,2.6239,2.622,0.0,0.0,0.0,0.0,0.0,0.0,0.0,0.0,0.0,0.0,0.0,0.0,0.0,0.0,0.0,0.0,0.0,0.0,0.0,0.0,0.0,3.5627,0.0,0.0,3.7828,3.7969,3.8003,3.8003,3.8581,3.9175,3.9282,4.0339,4.1339,4.1471,4.1912,4.2287,4.2287,4.2287,4.2287,4.2287,4.2351,4.2391,0.0,0.0,0.0,0.0,0.0,0.0,0.0,0.0,4.7389,4.7475,4.732,4.7249,4.732,4.732,4.7407,4.7663,4.7663,4.7536,4.732,4.7205,4.716,4.716,4.7025,4.6998,4.6998,4.6998,4.6998,4.6998,4.6998,4.6998,4.6998,4.6998,4.707,4.716,4.716,4.7205,4.732,4.732,4.732,4.732,0.0,0.0,0.0,0.0,0.0,0.0,0.0,3.0526,3.0526,3.0526,3.0526,3.0526,3.0526,3.0526,3.0526,3.0526,3.0526,0.0,0.0,0.0,0.0,0.0,0.0,0.0,0.0,2.8159,2.7378,2.6406,2.5929,2.5717,2.5717,2.5717,2.5791,2.5954,2.5954,0.0,0.0,0.0,0.0,0.0,0.0,0.0,2.9052,0.0,0.0,0.0,0.0,0.0,0.0,0.0,0.0,0.0,0.0,0.0,0.0,0.0,3.5728,3.6706,0.0,3.7468,3.7631,3.7631,3.8097,0.0,0.0,3.9636,4.0492,4.0985,4.1502,4.193,4.2234,4.2287,4.2287,4.2287,4.2287,4.2287,0.0,0.0,0.0,0.0,0.0,0.0,0.0,4.7407,4.7276,4.7276,4.7116,4.6998,4.6998,4.6998,4.7088,4.7294,4.7294,4.7205,4.6998,4.6998,4.6998,4.6998,4.6998,4.6998,4.6998,4.6998,4.6998,4.6998,4.6998,4.6998,0.0,4.6998,4.6998,4.6998,4.6998,4.6998,4.6998,4.6998,4.6998,4.6998,0.0,0.0,0.0,0.0,0.0,0.0,0.0,3.0526,3.0526,3.0526,3.0526,3.0526,3.0526,3.0526,3.0526,3.0526,0.0,0.0,0.0,0.0,0.0,0.0,0.0,0.0,2.7729,2.7195,2.6261,2.4902,2.4902,2.4902,2.4902,2.4902,2.5082,2.5465,2.5465,2.5684,0.0,0.0,0.0,0.0,0.0,0.0,0.0,0.0,0.0,0.0,0.0,0.0,0.0,0.0,0.0,0.0,0.0,0.0,0.0,0.0,0.0,0.0,0.0,3.6689,0.0,0.0,0.0,0.0,0.0,3.8719,0.0,4.0548,4.0922,4.1243,4.1973,4.2151,4.2187,4.2187,4.2228,0.0,0.0,0.0,0.0,0.0,0.0,0.0,4.7158,4.7302,4.7276,4.7196,4.7088,4.6998,4.6998,4.6998,4.6998,4.6998,4.6998,4.6998,4.6998,4.6998,4.6998,4.6998,4.6998,4.6998,4.6998,4.6998,4.6998,4.6998,4.6998,4.6998,4.6998,4.6998,4.6998,4.6998,4.6998,4.6998,4.6998,4.6998,4.6998,4.6998,0.0,0.0,0.0,0.0,0.0,0.0,0.0,0.0,0.0,0.0,3.0526,3.0526,3.0526,3.0526,3.0526,0.0,0.0,0.0,0.0,0.0,0.0,0.0,0.0,0.0,2.7713,2.6757,2.5812,2.4902,2.4902,2.4902,2.4902,2.4902,2.4942,2.5059,2.5059,2.5098,0.0,0.0,0.0,0.0,0.0,0.0,0.0,0.0,0.0,0.0,3.0526,3.0526,0.0,0.0,0.0,0.0,0.0,0.0,0.0,0.0,3.3639,3.4384,3.5073,0.0,3.6422,3.6422,3.6504,3.6597,0.0,3.7293,3.7815,0.0,0.0,4.0078,4.0252,4.0774,4.1174,4.1174,4.1445,0.0,0.0,0.0,0.0,0.0,0.0,4.5612,4.7158,4.7302,4.7276,4.7196,4.7088,4.6998,4.6998,4.6998,4.6998,4.6998,4.6998,4.6998,4.6998,4.6998,4.6998,4.6998,4.6998,4.6998,4.6998,4.6998,4.6998,4.6998,4.6998,4.6998,4.6998,4.6998,4.6998,4.6998,4.6998,4.6998,4.6998,4.6998,4.6998,4.6998,0.0,0.0,0.0,0.0,0.0,0.0,0.0,0.0,0.0,0.0,0.0,3.0526,3.0526,3.0526,0.0,0.0,0.0,0.0,0.0,0.0,0.0,0.0,0.0,2.8062,2.7105,2.5971,2.4991,2.4297,2.4297,2.4297,2.4297,2.4297,2.442,2.4639,2.4823,2.4902,2.4902,0.0,0.0,0.0,2.5503,0.0,0.0,0.0,0.0,0.0,3.0526,3.0526,0.0,3.0526,3.0526,3.0526,0.0,0.0,0.0,0.0,3.321,3.3955,3.47,3.5391,3.5933,3.5933,3.6062,3.6172,0.0,0.0,0.0,0.0,0.0,0.0,3.964,0.0,0.0,4.0802,4.1019,0.0,0.0,0.0,0.0,0.0,0.0,4.4973,0.0,4.6707,4.6519,4.6346,4.6525,4.6637,4.6637,4.6888,4.6998,4.6998,4.6998,4.6998,4.6998,4.6998,4.6998,4.6998,4.6998,4.6998,4.6998,4.6998,4.6998,4.6998,4.6998,4.6998,4.6998,4.6998,4.6998,4.6998,4.6998,4.6998,4.6998,4.6998,4.6998,4.6998,0.0,0.0,0.0,0.0,0.0,0.0,0.0,0.0,0.0,0.0,0.0,0.0,0.0,0.0,0.0,0.0,0.0,0.0,0.0,0.0,0.0,0.0,2.8386,2.74,2.6439,2.5122,2.4178,2.3595,2.3595,2.3595,2.3595,2.3595,2.3824,2.4219,2.4558,2.4704,2.4704,2.4704,0.0,0.0,2.5474,0.0,0.0,0.0,0.0,0.0,0.0,0.0,0.0,3.0526,3.0526,3.0526,3.0526,0.0,0.0,0.0,0.0,0.0,3.4667,3.5195,3.5498,3.5498,3.5732,3.602,0.0,0.0,0.0,0.0,0.0,0.0,0.0,0.0,0.0,0.0,0.0,0.0,0.0,0.0,0.0,0.0,0.0,0.0,4.6103,4.59,4.5563,4.5303,4.5751,4.607,4.607,4.6477,4.6731,4.6731,4.6731,4.6731,4.6731,4.6934,4.6998,4.6998,4.6998,4.6998,4.6998,4.6998,4.6998,4.6998,4.6888,4.6888,4.6888,4.6778,4.6731,4.6731,4.6731,4.6731,4.6731,4.6731,4.6731,4.6731,0.0,0.0,0.0,0.0,0.0,0.0,0.0,0.0,0.0,0.0,0.0,0.0,0.0,0.0,0.0,0.0,0.0,0.0,0.0,0.0,0.0,2.7736,2.7008,2.6576,2.6378,2.4653,2.3699,2.3595,2.3595,2.3595,2.3595,2.3595,2.3653,2.3724,2.3767,2.3809,2.3809,2.3809,2.4383,2.5319,2.5319,0.0,0.0,0.0,0.0,0.0,0.0,0.0,0.0,3.0526,3.0526,3.0526,3.0526,0.0,0.0,0.0,0.0,0.0,3.4518,3.493,3.5024,3.5024,3.5071,3.5102,0.0,0.0,0.0,0.0,0.0,0.0,0.0,0.0,0.0,0.0,0.0,0.0,0.0,0.0,0.0,0.0,0.0,4.3831,4.5355,4.5511,4.5459,4.5303,4.5372,4.5425,4.5425,4.5528,4.5563,4.5563,4.5563,4.5563,4.5563,4.6525,4.6998,4.6998,4.6998,4.6998,4.6998,4.6998,4.6998,4.698,4.6542,4.6332,4.6284,4.5784,4.5563,4.5563,4.5563,4.5563,4.5563,4.5563,4.5563,4.5563,0.0,0.0,0.0,0.0,0.0,0.0,0.0,0.0,0.0,0.0,0.0,0.0,0.0,0.0,0.0,0.0,0.0,0.0,0.0,0.0,2.8154,2.6972,2.632,2.5804,2.5439,2.4235,2.3595,2.3595,2.3595,2.3566,2.3538,2.348,2.3436,2.3451,2.3866,2.4089,2.4104,2.4492,2.5122,2.5782,0.0,0.0,0.0,0.0,0.0,0.0,0.0,0.0,0.0,0.0,3.0113,3.0156,3.0426,0.0,0.0,0.0,0.0,0.0,3.4502,3.4899,3.4899,3.4899,3.4899,3.4899,0.0,0.0,0.0,0.0,0.0,0.0,0.0,0.0,0.0,0.0,0.0,0.0,0.0,0.0,0.0,0.0,0.0,4.3078,4.4776,4.4746,4.4541,4.4412,4.4691,4.4855,4.4855,4.5144,4.5303,4.5303,4.5303,4.5303,4.5303,4.5835,4.6084,4.6084,4.6084,4.6084,4.6084,4.6084,4.6084,4.6052,4.5835,4.5683,4.5683,4.5407,4.5303,4.5303,4.5303,4.5303,4.5303,4.5303,4.5303,4.5303,0.0,0.0,0.0,0.0,0.0,0.0,0.0,0.0,0.0,0.0,0.0,0.0,0.0,0.0,0.0,0.0,0.0,0.0,0.0,0.0,2.7349,2.6329,2.5625,2.5058,2.4612,2.3925,2.3566,2.3508,2.3508,2.3569,2.3644,2.3541,2.3585,2.3762,2.4415,2.4698,2.4743,2.5359,2.5861,2.6291,0.0,0.0,0.0,0.0,0.0,0.0,0.0,0.0,0.0,0.0,0.0,0.0,0.0,0.0,0.0,3.2161,3.268,3.3011,3.4502,3.4899,3.4899,3.4899,0.0,0.0,0.0,0.0,0.0,0.0,0.0,0.0,0.0,0.0,0.0,0.0,0.0,0.0,0.0,3.9272,4.0054,4.2013,4.1909,4.2328,4.4187,4.4064,4.3763,4.3628,4.4006,4.4276,4.4276,4.4691,4.4875,4.4875,4.4875,4.4875,4.4875,4.4875,4.5054,4.5303,4.5303,4.5303,4.5303,4.5303,4.5303,4.5303,4.5161,4.5108,4.5108,4.4947,4.4875,4.4875,4.4875,4.4875,4.4875,4.4875,4.4875,4.4875,0.0,0.0,0.0,0.0,0.0,0.0,0.0,0.0,0.0,0.0,0.0,0.0,0.0,0.0,0.0,0.0,0.0,0.0,0.0,0.0,2.6022,2.5342,2.4722,2.4428,2.449,2.3851,2.3466,2.3319,2.3319,2.3629,2.4159,2.4159,2.4452,2.5055,2.5227,2.5337,2.5352,2.5538,2.5959,2.6561,2.6561,0.0,0.0,0.0,0.0,0.0,0.0,0.0,0.0,0.0,0.0,0.0,0.0,0.0,3.0766,3.2266,3.268,3.3011,3.4502,3.4899,3.4899,3.4899,3.4899,0.0,0.0,0.0,0.0,0.0,0.0,0.0,0.0,0.0,0.0,0.0,0.0,0.0,3.9272,0.0,3.9856,4.1299,4.1465,4.1988,4.3538,4.3628,4.3628,4.3628,4.3628,4.3671,4.3671,4.3671,4.373,4.373,4.373,4.373,4.373,4.373,4.4259,4.5303,4.5303,4.5303,4.5303,4.5303,4.5303,4.525,4.4746,4.4558,4.4485,4.3948,4.373,4.373,4.373,4.373,4.373,4.373,4.3671,4.3552,0.0,0.0,0.0,0.0,0.0,0.0,0.0,0.0,0.0,0.0,0.0,0.0,0.0,0.0,0.0,0.0,0.0,0.0,0.0,2.6441,2.5737,2.4675,2.441,2.4101,2.3643,2.3467,2.3363,2.3319,2.3643,2.4126,2.471,2.4615,2.4699,2.4961,2.5551,2.5776,2.5806,2.6367,2.6728,2.695,2.695,2.7098,0.0,0.0,0.0,0.0,0.0,0.0,0.0,0.0,2.8591,2.8826,2.9241,2.9543,3.0084,3.1795,3.2553,3.3156,3.4523,3.4899,3.4899,3.4899,0.0,0.0,0.0,0.0,0.0,0.0,0.0,0.0,0.0,0.0,0.0,0.0,0.0,0.0,3.9272,3.9272,3.9653,4.0647,4.116,4.1806,4.2833,4.3346,4.3628,4.3628,4.3628,4.3628,4.3628,4.3628,4.3628,4.3628,4.3628,4.3628,4.3628,4.3628,4.3831,4.4259,4.4259,4.4259,4.4259,4.4259,4.4259,4.4259,4.4064,4.3948,4.3889,4.3671,4.3628,4.3568,4.3509,4.3372,4.3295,4.3295,4.3235,4.3235,0.0,0.0,0.0,0.0,0.0,0.0,0.0,0.0,0.0,0.0,0.0,0.0,0.0,0.0,0.0,0.0,0.0,0.0,2.6073,2.5678,2.5096,2.4229,2.3994,2.3728,2.3343,2.345,2.3495,2.3495,2.4063,2.4626,2.5238,2.5139,2.5241,2.5473,2.6061,2.6316,2.6345,2.6938,2.7181,2.7181,2.7181,2.7181,0.0,0.0,0.0,0.0,0.0,0.0,0.0,0.0,2.7929,2.8204,2.8903,2.9292,2.9837,3.1566,3.2482,3.3226,3.4349,3.4787,3.4899,0.0,0.0,0.0,0.0,0.0,0.0,0.0,0.0,0.0,0.0,0.0,0.0,0.0,0.0,3.9272,3.9272,3.9272,3.9537,4.0282,4.0796,4.1375,4.2088,4.2634,4.2932,4.2932,4.2932,4.2932,4.2932,4.2932,4.2932,4.2932,4.2932,4.3048,4.328,4.328,4.3396,4.3628,4.3628,4.3628,4.3628,4.3628,4.3628,4.3628,4.3628,4.3568,4.3568,4.3568,4.3492,4.3432,4.3372,4.3235,4.3113,4.3113,4.3052,4.3068,0.0,0.0,0.0,0.0,0.0,0.0,0.0,0.0,0.0,0.0,0.0,0.0,0.0,0.0,0.0,0.0,0.0,0.0,2.5763,2.4588,2.3891,2.3876,2.3235,2.3207,2.3876,2.3905,2.3905,2.3905,2.453,2.5168,2.5792,2.5792,2.6141,2.6779,2.6951,2.7003,2.7003,2.713,2.7181,2.7181,2.7181,2.7181,2.7181,0.0,0.0,0.0,0.0,0.0,0.0,0.0,2.761,2.8198,2.8869,2.9503,3.0306,3.1659,3.2506,3.3129,3.3906,3.4497,0.0,0.0,0.0,0.0,0.0,0.0,0.0,0.0,0.0,0.0,0.0,0.0,0.0,3.904,3.9272,3.9272,3.9272,3.9272,3.9537,4.0282,4.0382,4.0647,4.1342,4.1409,4.1409,4.1409,4.1409,4.1409,4.1409,4.1409,4.1409,4.1409,4.1409,4.1756,4.2502,4.2502,4.2883,4.3611,4.3611,4.3611,4.3628,4.3628,4.3628,4.3628,4.3628,4.3509,4.3372,4.3372,4.3312,4.3113,4.3113,4.3113,4.3113,4.3113,4.3007,4.2899,0.0,0.0,0.0,0.0,0.0,0.0,0.0,0.0,0.0,0.0,0.0,0.0,0.0,0.0,0.0,0.0,0.0,0.0,2.4515,2.4094,2.3688,2.3238,2.347,2.3702,2.3891,2.4762,2.5226,2.5226,2.5415,2.5836,2.6489,2.6489,2.6591,2.6779,2.6846,2.6846,2.6846,2.6884,2.6937,2.6937,2.6937,2.6937,2.6937,0.0,0.0,0.0,0.0,0.0,0.0,0.0,0.0,0.0,2.8487,2.9335,3.0403,3.135,3.2327,3.3256,3.3935,3.4497,0.0,0.0,0.0,0.0,0.0,0.0,0.0,0.0,0.0,0.0,0.0,0.0,0.0,3.9206,3.9272,3.9272,3.9272,3.9272,3.9355,3.957,4.0067,4.0464,4.0663,4.1127,4.1409,4.1409,4.1409,4.1409,4.1409,4.1409,4.1409,4.1409,4.1409,4.1524,4.174,4.174,4.1856,4.2071,4.2501,4.3013,4.3628,4.3628,4.3568,4.3432,4.3432,4.3372,4.3174,4.3174,4.3129,4.2945,4.2945,4.2883,4.2743,4.2743,4.2743,4.2696,0.0,0.0,0.0,0.0,0.0,0.0,0.0,0.0,0.0,0.0,0.0,0.0,0.0,0.0,0.0,0.0,0.0,0.0,0.0,2.3659,2.3455,2.3325,2.3688,2.4123,2.4631,2.5647,2.6184,2.6184,2.6184,2.6387,2.6779,2.6779,2.6779,2.6779,2.6779,2.6779,2.6779,2.6779,2.6779,2.6779,2.6779,2.6779,2.6779,0.0,0.0,0.0,0.0,0.0,0.0,0.0,0.0,0.0,2.8847,2.9578,3.0428,3.1363,3.2353,3.3251,3.3933,0.0,0.0,0.0,0.0,0.0,0.0,0.0,0.0,0.0,0.0,0.0,0.0,3.8063,0.0,3.9222,3.9272,3.9272,3.9272,3.9272,3.9272,3.9272,3.9669,3.9934,3.9934,4.0315,4.0564,4.0564,4.0564,4.0564,4.0564,4.0564,4.0564,4.0564,4.0564,4.0713,4.0994,4.0994,4.1087,4.1295,4.17,4.2104,4.2607,4.3168,4.3372,4.3312,4.319,4.3129,4.299,4.2929,4.2867,4.2759,4.2492,4.2429,4.2571,4.2285,4.2142,4.2206,0.0,0.0,0.0,0.0,0.0,0.0,0.0,0.0,0.0,0.0,0.0,0.0,0.0,0.0,0.0,0.0,0.0,0.0,0.0,0.0,2.3264,2.3887,2.4022,2.4631,2.585,2.6474,2.6779,2.6779,2.6779,2.6779,2.6779,2.6779,2.6779,2.6779,2.6779,2.6779,2.6779,2.6779,2.6823,2.6866,2.6866,2.6895,2.6977,2.6953,0.0,0.0,0.0,0.0,0.0,0.0,0.0,0.0,2.968,3.0029,3.0421,3.1641,3.2461,3.3161,0.0,0.0,0.0,0.0,0.0,0.0,0.0,0.0,0.0,0.0,0.0,0.0,0.0,3.7814,3.8526,3.9172,3.9272,3.9272,3.9218,3.9272,3.9272,3.9218,3.9272,3.9272,3.9272,3.9272,3.9272,3.9202,3.9272,3.9272,3.9202,3.9272,3.9272,3.9272,3.9272,3.9603,4.0266,4.0266,4.0541,4.0983,4.0992,4.091,4.0876,4.2234,4.2855,4.2778,4.2626,4.2502,4.2502,4.2298,4.2267,4.2252,4.1561,4.1739,4.2285,4.1656,4.1393,4.1525,0.0,0.0,0.0,0.0,0.0,0.0,0.0,0.0,0.0,0.0,0.0,0.0,0.0,0.0,0.0,0.0,0.0,0.0,0.0,0.0,2.376,2.3893,2.4833,2.5749,2.6547,2.6707,2.6779,2.6779,2.6779,2.6779,2.6779,2.6779,2.6779,2.6779,2.6779,2.6779,2.6779,2.6779,2.707,2.7534,2.7534,2.7846,2.8276,2.8272,2.8283,0.0,0.0,0.0,0.0,0.0,0.0,0.0,2.9827,3.0221,3.0705,3.119,3.2089,3.3039,0.0,0.0,0.0,0.0,0.0,0.0,0.0,0.0,0.0,0.0,0.0,0.0,3.7847,3.856,3.9106,3.9255,3.9272,3.9148,3.859,3.8969,3.9077,3.859,3.8969,3.9272,3.9272,3.9272,3.9077,3.8535,3.9023,3.9077,3.8535,3.9023,3.9272,3.9272,3.9272,3.9284,3.9325,3.9325,3.9298,3.9335,3.9273,3.9237,3.9225,4.0782,4.1113,4.0475,3.9771,3.945,3.9435,3.937,3.9698,4.0181,3.9967,4.0308,4.0826,4.069,4.0622,4.069,0.0,0.0,0.0,0.0,0.0,0.0,0.0,0.0,0.0,0.0,0.0,0.0,0.0,0.0,0.0,0.0,0.0,0.0,0.0,0.0,2.4197,2.4761,2.5469,2.6155,2.6779,2.6779,2.6779,2.6779,2.6779,2.6779,2.6779,2.6779,2.6779,2.6794,2.7099,2.7229,2.7258,2.7563,2.7882,2.8187,2.8187,2.8371,2.8723,2.8715,2.8703,2.8747,2.9041,0.0,0.0,0.0,0.0,0.0,0.0,0.0,3.0821,3.1263,3.1864,3.2485,0.0,0.0,0.0,0.0,0.0,0.0,0.0,0.0,0.0,0.0,0.0,0.0,3.7662,3.8616,3.9202,3.8898,3.8827,3.8606,3.7937,3.8181,3.8254,3.7879,3.8197,3.8367,3.8367,3.8367,3.8254,3.7895,3.8181,3.8254,3.7879,3.8124,3.8254,3.8254,3.8181,3.8051,3.7937,3.7937,3.7879,3.7764,3.7717,3.7649,3.762,3.9166,3.9564,3.9125,3.8676,3.8481,3.8481,3.8481,3.8681,3.9005,3.8605,3.8886,3.9462,3.9123,3.9184,3.9458,0.0,0.0,0.0,0.0,0.0,0.0,0.0,0.0,0.0,0.0,0.0,0.0,0.0,0.0,0.0,0.0,0.0,0.0,0.0,0.0,0.0,2.577,2.5881,2.6179,2.6779,2.6779,2.6779,2.6779,2.6779,2.6837,2.6953,2.6953,2.6953,2.6968,2.7607,2.7897,2.7926,2.8448,2.8739,2.884,2.884,2.8924,2.9049,2.9049,2.9024,2.9058,2.9566,2.9784,2.9871,3.0424,0.0,0.0,0.0,0.0,3.0747,3.1349,3.158,3.1946,0.0,0.0,0.0,0.0,0.0,0.0,0.0,0.0,0.0,0.0,0.0,3.7016,3.7196,3.8215,3.8788,3.8238,3.8165,3.7937,3.731,3.731,3.737,3.7251,3.731,3.737,3.737,3.7294,3.7235,3.7191,3.731,3.731,3.7191,3.7115,3.7055,3.7055,3.6904,3.6783,3.6783,3.6783,3.6722,3.6538,3.643,3.6244,3.6117,3.7231,3.7881,3.7931,3.7866,3.78,3.78,3.78,3.7877,3.7918,3.7316,3.7459,3.8019,3.7428,3.7565,3.8098,0.0,0.0,0.0,0.0,0.0,0.0,0.0,0.0,0.0,0.0,0.0,0.0,0.0,0.0,0.0,0.0,0.0,0.0,2.306,0.0,0.0,2.5807,2.5906,2.6179,2.6779,2.6779,2.6779,2.6779,2.6779,2.707,0.0,0.0,2.7607,2.7636,2.8274,2.855,2.8565,2.8637,2.9,2.9493,2.9493,2.9813,3.0337,3.0337,3.0366,3.0335,3.0468,3.0482,3.0497,3.0539,3.0568,0.0,0.0,0.0,3.0642,3.0747,3.119,0.0,0.0,0.0,0.0,0.0,0.0,0.0,0.0,0.0,0.0,0.0,3.5911,3.6594,3.7277,3.7541,3.7605,3.7531,3.7546,3.731,3.66,3.7011,3.7191,3.66,3.689,3.7131,3.7131,3.698,3.6753,3.6383,3.6829,3.689,3.6383,3.6829,3.7055,3.6843,3.6828,3.6706,3.66,3.66,3.6554,3.6446,3.5834,3.5285,3.4668,3.4829,3.5289,3.5784,3.5237,3.4984,3.4984,3.4984,3.5307,3.582,3.5682,3.6018,3.657,3.6499,3.6487,3.656,0.0,0.0,0.0,0.0,0.0,0.0,0.0,0.0,0.0,0.0,0.0,0.0,0.0,0.0,0.0,2.1755,2.226,2.2886,2.3597,2.3579,2.4234,2.5839,2.5605,2.5756,2.6592,2.6645,2.6765,2.7086,2.714,0.0,0.0,2.851,2.8481,0.0,0.0,2.9146,2.9232,2.9464,2.9841,3.0161,3.0161,3.0321,3.0568,3.0568,3.0568,3.0568,3.0568,3.0568,3.0568,3.0568,3.0568,3.0568,3.0568,0.0,0.0,0.0,0.0,0.0,0.0,0.0,0.0,0.0,0.0,0.0,0.0,0.0,0.0,0.0,3.5384,3.603,3.6722,3.7131,3.731,3.689,3.6829,3.66,3.5958,3.607,3.6054,3.5767,3.58,3.5849,3.5849,3.577,3.5657,3.5494,3.5737,3.5721,3.5509,3.5672,3.5721,3.5657,3.5514,3.5449,3.5385,3.5385,3.5335,3.527,3.4971,3.4654,3.4414,3.4414,3.4534,3.4839,3.4534,3.4414,3.4414,3.4414,3.4574,3.4835,3.4835,3.4994,3.5256,3.5256,3.5473,3.5778,0.0,0.0,0.0,0.0,0.0,0.0,0.0,0.0,0.0,0.0,0.0,0.0,0.0,0.0,0.0,0.0,2.2254,2.2862,2.38,2.3484,2.3872,2.5314,2.5189,2.5453,2.6176,2.6562,2.6892,2.7324,0.0,0.0,2.857,2.9101,2.9217,0.0,2.9419,2.9635,0.0,0.0,0.0,3.0462,3.0507,3.0493,3.0539,3.0568,3.0568,3.0568,3.0568,3.0568,3.0568,3.0568,3.0568,3.0568,3.0568,3.0568,0.0,0.0,0.0,0.0,0.0,0.0,0.0,0.0,0.0,0.0,0.0,0.0,0.0,0.0,3.5001,3.5474,3.5943,3.6538,3.6723,3.6258,3.6133,3.5958,3.5489,3.5228,3.5148,3.5148,3.4935,3.4868,3.4868,3.4802,3.4802,3.4868,3.4868,3.4868,3.4868,3.475,3.4698,3.4631,3.4481,3.4414,3.4414,3.4414,3.4414,3.4414,3.4414,3.4414,3.4414,3.4414,3.4414,3.4414,3.4414,3.4414,3.4414,3.4414,3.4414,3.4414,3.4414,3.4414,3.4414,3.4414,3.4719,3.5125,0.0,0.0,0.0,0.0,0.0,0.0,0.0,0.0,0.0,0.0,0.0,0.0,2.1031,2.1498,2.1793,2.1793,2.2476,2.2932,2.3125,2.3531,2.38,2.3917,2.4824,0.0,2.5453,2.6608,2.7295,2.7324,0.0,0.0,2.9083,2.9111,2.9454,3.0011,3.0054,3.0068,3.0068,0.0,0.0,0.0,3.0266,3.0329,3.0317,3.0539,3.0568,3.0568,3.0568,3.0568,3.0568,3.0568,3.0568,3.0568,3.0568,3.0568,3.0568,0.0,0.0,0.0,0.0,0.0,0.0,0.0,0.0,0.0,0.0,0.0,0.0,0.0,3.5052,3.4935,3.4986,3.5344,3.5569,3.5554,3.5424,3.5279,3.5213,3.5001,3.4935,3.4935,3.4817,3.4698,3.4698,3.4549,3.4481,3.4698,3.4698,3.4698,3.4698,3.4698,3.4631,3.4414,3.4414,3.4414,3.4414,3.4414,3.4414,3.4414,3.4414,3.4414,3.4414,3.4414,3.4414,3.4414,3.4414,3.4414,3.4414,3.4414,3.4414,3.4414,3.4414,3.4414,3.4414,3.4414,3.4428,3.4457,0.0,0.0,0.0,0.0,0.0,0.0,0.0,0.0,0.0,0.0,0.0,0.0,0.0,2.2051,2.2322,2.2189,2.2433,2.2665,2.286,2.3017,2.3424,2.4221,2.4563,2.5101,2.575,2.6643,2.6951,0.0,0.0,2.8753,2.8914,2.936,2.9671,2.9898,2.9898,2.9974,3.0111,2.996,0.0,0.0,0.0,0.0,0.0,0.0,0.0,0.0,0.0,0.0,0.0,3.107,3.136,3.1737,3.1507,3.1546,3.1628,3.1628,3.1691,0.0,0.0,0.0,0.0,0.0,0.0,0.0,0.0,0.0,0.0,3.5023,3.4935,3.4935,3.4935,3.5001,3.5082,3.5082,3.5067,3.5001,3.5001,3.4883,3.475,3.475,3.4616,3.4481,3.4481,3.4414,3.4414,3.4481,3.4481,3.4481,3.4481,3.4481,3.4481,3.4414,3.4414,3.4414,3.4414,3.4414,3.4414,3.4414,3.4414,3.4414,3.4414,3.4414,3.4414,3.4414,3.4414,3.4414,3.4414,3.4414,3.4414,3.4414,3.4414,3.4414,3.4414,3.4414,3.4414,3.4414,0.0,0.0,0.0,0.0,0.0,0.0,0.0,0.0,0.0,2.0685,0.0,0.0,0.0,0.0,2.2494,2.242,2.242,2.2567,2.2936,2.3059,2.3489,2.4322,2.461,2.5049,2.5535,2.6404,2.6843,2.6852,2.8207,0.0,0.0,2.9512,2.9699,2.9699,2.9699,2.9837,0.0,0.0,0.0,3.0083,0.0,0.0,3.0444,0.0,0.0,0.0,0.0,0.0,0.0,0.0,3.1845,3.2246,3.1961,3.1997,3.2112,3.2112,3.2177,3.2364,3.2745,0.0,0.0,0.0,0.0,0.0,0.0,0.0,0.0,3.4802,3.4802,3.4735,3.4735,3.4735,3.4735,3.4868,3.4868,3.4802,3.4802,3.4683,3.4631,3.4631,3.4481,3.4414,3.4414,3.4414,3.4414,3.4414,3.4414,3.4414,3.4414,3.4414,3.4414,3.4414,3.4414,3.4414,3.4414,3.4414,3.4414,3.4414,3.4414,3.4414,3.4414,3.4414,3.4414,3.4414,3.4414,3.4414,3.4414,3.4414,3.4414,3.4414,3.4414,3.4414,3.4414,3.4346,3.4278,3.4307,0.0,0.0,0.0,0.0,0.0,0.0,0.0,0.0,2.1137,2.1545,0.0,0.0,0.0,0.0,0.0,2.2383,2.2445,2.2738,2.3477,2.3854,2.4079,2.3989,2.5014,2.5332,2.4743,2.6074,2.7047,2.7629,2.8338,2.9026,2.954,2.9602,2.9602,2.9602,2.9631,2.9645,2.9645,0.0,2.9631,2.9631,0.0,3.0235,3.0825,0.0,0.0,0.0,3.1909,3.191,0.0,3.1947,0.0,0.0,0.0,0.0,0.0,3.1974,3.196,3.2168,0.0,0.0,0.0,0.0,0.0,0.0,0.0,0.0,3.4698,3.4698,3.4549,3.4414,3.4414,3.4414,3.4481,3.4802,3.475,3.4698,3.4698,3.4481,3.4414,3.4414,3.4414,3.4414,3.4414,3.4414,3.4414,3.4414,3.4414,3.4414,3.4414,3.4414,3.4414,3.4414,3.4414,3.4414,3.4414,3.4414,3.4414,3.4346,3.4346,3.4346,3.4332,3.4346,3.4346,3.4332,3.4346,3.4332,3.4346,3.4346,3.4346,3.4332,3.4332,3.4346,3.4264,3.4128,3.4059,3.4106,0.0,0.0,0.0,0.0,0.0,2.1356,2.077,2.1039,2.1342,0.0,0.0,0.0,2.2173,2.2197,2.2342,2.279,2.2826,2.3119,2.3717,2.3806,2.4051,2.4524,2.5212,2.5741,2.5987,2.7344,2.7857,2.7512,2.876,2.9157,2.8839,2.9324,2.9602,0.0,3.008,3.0263,3.0263,3.0263,0.0,0.0,3.0898,3.1174,0.0,0.0,0.0,0.0,0.0,3.2067,3.2475,0.0,3.2833,3.3348,0.0,0.0,0.0,3.3149,3.3218,3.3397,3.365,0.0,0.0,0.0,0.0,0.0,0.0,0.0,0.0,3.4481,3.4414,3.4414,3.4414,3.4414,3.4414,3.4534,3.4481,3.4481,3.4481,3.4414,3.4414,3.4414,3.4414,3.4414,3.4414,3.4414,3.4414,0.0,3.4414,3.4414,3.4414,3.4414,3.4414,3.4414,3.4414,3.4346,3.4196,3.4196,3.3839,3.3199,3.3199,3.2974,3.2519,3.2349,3.2349,3.2519,3.2349,3.2263,3.2349,3.3227,3.3157,3.2519,3.2519,3.2434,3.2277,3.2277,3.245,3.2758,0.0,0.0,0.0,0.0,0.0,2.1851,2.1052,2.1392,2.1728,0.0,0.0,0.0,2.2498,2.2522,2.2739,2.3268,2.3603,2.3823,2.4049,2.4408,2.4639,2.4927,2.5302,2.579,2.6435,2.7236,2.7733,2.792,2.8493,2.8823,2.898,2.9384,2.9728,3.001,0.0,0.0,0.0,0.0,0.0,0.0,3.1411,0.0,0.0,3.1878,3.204,0.0,0.0,0.0,3.2919,3.2905,3.3213,0.0,0.0,0.0,3.3466,3.3466,3.3536,3.3675,3.3744,3.3758,0.0,0.0,0.0,0.0,3.4074,3.4128,3.4128,3.4346,3.4414,3.4414,3.4414,3.4414,3.4414,3.4414,3.4414,3.4414,3.4414,3.4414,3.4414,3.4414,3.4414,3.4414,3.4414,3.4414,3.4414,3.4414,3.4414,3.4414,3.4414,3.4414,3.4346,3.4264,3.4264,3.421,3.4005,3.3701,3.3269,3.2704,3.239,3.2015,3.1709,3.1536,3.1536,3.1709,3.1536,3.1315,3.1031,3.1696,3.1842,3.1696,3.1696,3.1623,3.1489,3.1668,3.1885,3.2154,0.0,0.0,2.4212,2.2052,2.2553,2.2871,2.1762,2.2007,2.2309,0.0,2.2246,2.2462,2.2931,2.3039,2.328,2.3809,2.439,2.4744,2.4578,2.5216,2.5506,2.5288,2.5382,2.5721,2.6414,2.6567,2.7247,2.8492,2.8071,2.8455,2.9715,2.9725,3.0014,3.0656,0.0,0.0,0.0,0.0,0.0,3.1696,3.1696,3.203,0.0,0.0,3.2833,3.3326,3.3326,3.3326,3.3326,3.3326,3.3326,0.0,0.0,0.0,3.3326,3.3326,3.3326,3.3326,3.3536,3.3536,3.3605,0.0,0.0,0.0,3.3991,3.4059,3.4128,3.4278,3.4346,3.4346,3.4196,3.4196,3.4196,3.4113,3.4196,3.4264,3.4414,3.4414,3.4414,3.4414,3.4414,3.4414,3.4414,3.4414,3.4332,3.4264,3.4264,3.4264,3.4264,3.4196,3.4128,3.3825,3.3825,3.377,3.3591,3.2917,3.2475,3.2331,3.1623,3.1241,3.1167,3.1167,3.1167,3.1167,3.1167,3.0732,3.0101,3.0101,3.0519,3.1167,3.1167,3.1206,3.1325,3.1625,3.1823,3.1993,0.0,0.0,2.4128,2.3554,2.366,2.3609,2.2862,2.2845,2.275,2.2247,2.257,2.2859,2.2967,2.3364,2.3821,2.4326,2.4498,2.4715,2.5119,2.5296,2.5344,2.53,2.5861,2.6277,2.6414,2.6966,2.7683,2.8492,2.895,2.9549,3.0361,3.0862,3.1156,3.1331,3.1949,0.0,0.0,0.0,0.0,3.296,3.296,0.0,3.3115,3.3115,3.3199,3.3326,3.3326,3.3326,3.3326,3.3326,3.3326,3.3326,0.0,0.0,0.0,3.3326,3.3326,3.3326,3.3326,0.0,0.0,0.0,0.0,0.0,3.3675,3.3675,3.3744,3.3951,3.402,3.3799,3.3129,3.3058,3.2818,3.2205,3.2706,3.3451,3.4278,3.4414,3.4414,3.4414,3.4414,3.4414,3.4414,3.4414,3.4113,3.352,3.3325,3.3255,3.3241,3.3115,3.2747,3.2046,3.1974,3.1915,3.1709,3.1549,3.1119,3.0304,3.0152,2.9768,2.9316,2.9172,2.9172,2.9316,2.9172,2.9028,2.8816,2.8816,2.9028,2.9316,2.9316,2.951,2.977,2.9788,3.0388,3.116,0.0,2.498,2.4808,2.4137,2.4285,2.4176,2.3217,2.3088,2.2958,2.2672,2.3051,2.3603,2.4239,2.419,2.435,2.4867,2.5249,2.5371,2.5229,2.5804,2.6,2.5709,2.6346,2.6947,2.7458,2.816,2.8704,2.9214,2.9295,2.9591,3.0105,3.0569,3.0771,3.0798,3.2208,0.0,0.0,0.0,3.3326,3.3326,3.3326,0.0,3.2737,3.2737,3.2471,3.2081,3.2081,3.2346,3.2737,3.2737,3.2947,0.0,0.0,3.3326,3.3326,0.0,3.3326,3.3326,0.0,0.0,0.0,3.3326,0.0,0.0,0.0,3.3297,3.3058,3.3297,3.2974,3.2605,3.216,3.2074,3.2001,3.1536,3.2218,3.2818,3.2946,3.3825,3.4346,3.4264,3.4264,3.421,3.4157,3.4157,3.3785,3.303,3.2519,3.2218,3.2205,3.2146,3.1856,3.1402,3.1315,3.1254,3.1031,3.0657,3.0215,2.9704,2.925,2.8961,2.8657,2.859,2.8578,2.8657,2.851,2.851,2.8534,2.8799,2.8976,2.9044,2.9044,2.9145,2.9364,2.9893,3.0422,3.0915,2.5247,0.0,2.5562,2.4559,2.4832,2.4751,2.3446,2.3475,2.3634,2.355,2.3908,2.4529,2.5482,2.5012,2.4843,2.5205,2.5791,2.5873,2.5111,2.622,2.662,2.607,2.679,2.752,2.8277,2.8879,2.939,2.9658,2.9346,2.9353,2.9746,3.0013,3.0215,3.0414,3.1987,0.0,0.0,0.0,0.0,3.2779,0.0,3.2611,3.2289,3.214,3.173,3.1087,3.0922,3.1213,3.1789,3.1968,3.2471,3.3045,3.3213,3.3156,0.0,0.0,0.0,0.0,0.0,0.0,0.0,0.0,0.0,3.3086,0.0,0.0,0.0,3.2318,3.1856,0.0,0.0,0.0,0.0,3.0944,0.0,0.0,0.0,3.272,0.0,3.3604,3.3839,3.3937,3.366,3.3521,3.3143,3.2547,3.1709,3.1241,3.1241,3.1167,3.1031,3.0657,3.0657,3.0581,3.0443,2.9768,2.9484,2.9484,2.8816,2.851,2.851,2.851,2.851,2.851,2.851,2.857,2.8691,2.9124,2.9364,2.9448,2.9448,2.9508,2.9701,3.0555,3.0939,3.1096,2.5755,2.5837,2.5865,2.5686,2.5742,2.537,2.4079,2.4864,2.5601,2.5589,2.5472,2.5457,2.5586,0.0,0.0,0.0,0.0,0.0,2.5111,2.5943,2.6289,2.5968,2.7031,2.7646,2.7462,2.7995,2.849,2.8763,2.9014,2.9356,2.9675,3.0083,3.0768,3.1569,3.0929,0.0,0.0,0.0,3.0932,0.0,3.0932,3.1789,0.0,3.2376,3.2019,3.185,3.0915,3.0605,3.0675,0.0,3.1901,3.2165,0.0,3.2691,3.2158,3.3056,0.0,0.0,0.0,0.0,0.0,0.0,3.2232,0.0,0.0,0.0,3.1119,3.1119,0.0,0.0,0.0,0.0,0.0,0.0,0.0,0.0,3.0203,3.1093,3.1829,3.1829,3.3044,3.366,3.2931,3.2187,3.1723,3.1609,3.0758,3.0165,3.0139,2.9986,2.9549,2.8803,2.8816,2.8816,2.8736,2.8657,2.8669,2.8669,2.851,2.851,2.851,2.851,2.851,2.851,2.851,2.8775,2.9208,2.9268,2.9581,3.0001,3.0001,3.029,3.0711,3.0831,3.1168,3.1589,2.5702,2.5798,0.0,2.5893,2.5893,2.5716,2.5181,2.5848,2.6419,2.6595,2.6505,2.648,0.0,0.0,0.0,0.0,0.0,2.5242,0.0,0.0,2.6476,2.6939,2.751,2.791,2.8137,2.86,2.8819,2.8697,2.9013,2.9123,2.9006,2.9437,2.9779,3.006,3.022,0.0,3.0851,0.0,3.0583,0.0,0.0,0.0,0.0,3.0742,3.0063,2.9598,2.9141,2.925,2.9633,0.0,3.0935,0.0,0.0,0.0,0.0,3.1776,0.0,0.0,0.0,0.0,0.0,0.0,0.0,0.0,3.1476,0.0,3.005,0.0,0.0,0.0,0.0,0.0,0.0,0.0,2.925,0.0,0.0,0.0,3.118,3.1315,0.0,0.0,3.239,3.1649,3.1119,3.118,2.9935,2.9118,2.9094,2.9028,2.8882,2.851,2.851,2.851,2.851,2.851,2.851,2.851,2.851,2.851,2.851,2.851,2.8679,2.8967,2.8967,2.9268,2.9785,2.9917,3.0168,3.031,3.0545,3.0703,3.0915,3.1041,3.1292,3.1484,2.5355,0.0,0.0,0.0,2.5979,2.6232,2.6476,2.6698,2.6995,2.7551,0.0,0.0,2.7604,2.6564,0.0,0.0,2.5253,2.5134,0.0,0.0,2.6688,2.7434,2.7952,0.0,2.8843,2.9308,2.9377,2.9277,2.913,2.887,2.851,2.8554,2.8686,2.8799,0.0,2.9618,2.977,0.0,2.9825,2.9739,2.9731,2.9703,2.9618,2.9214,2.8558,2.7775,2.7766,2.8128,2.8632,2.8903,2.9877,0.0,3.0456,3.1114,3.1797,0.0,0.0,0.0,3.0944,0.0,0.0,0.0,0.0,0.0,0.0,0.0,0.0,0.0,0.0,0.0,0.0,0.0,2.8363,2.8363,0.0,2.9028,0.0,2.9328,0.0,0.0,0.0,0.0,0.0,3.0895,3.0443,3.0228,2.9184,2.851,2.851,2.851,2.851,2.851,2.851,2.851,2.851,2.851,2.851,2.851,2.851,2.851,2.851,2.8655,2.885,2.9222,2.9366,2.9654,3.0168,3.0379,3.0529,3.0695,3.0909,3.1003,3.097,3.1175,3.1229,3.1229,2.4624,2.5258,0.0,0.0,0.0,0.0,2.8014,0.0,0.0,0.0,0.0,0.0,0.0,0.0,0.0,0.0,0.0,2.4929,2.5187,0.0,2.6821,2.6788,2.8263,2.9074,0.0,2.972,3.0088,3.0343,2.9471,2.887,2.851,2.7626,2.7743,2.8702,2.7949,2.8183,2.9114,2.8339,2.7824,2.762,2.7631,2.7452,2.7475,0.0,2.8432,2.7487,2.7498,0.0,0.0,2.8386,2.8726,2.9003,2.9961,0.0,0.0,0.0,0.0,0.0,0.0,0.0,0.0,2.9381,0.0,0.0,0.0,0.0,2.7962,0.0,0.0,0.0,2.7881,2.7881,2.7881,2.7881,2.7962,0.0,0.0,0.0,0.0,0.0,0.0,0.0,0.0,2.9781,2.9406,2.8669,2.851,2.851,2.851,2.851,2.851,2.851,2.851,2.851,2.851,2.851,2.851,2.851,2.851,2.851,2.8522,2.9039,2.9116,2.8917,2.9415,2.9863,3.0185,3.0208,3.0502,3.096,3.0972,3.0972,3.096,3.0972,3.0984,3.0984,0.0,0.0,0.0,0.0,0.0,0.0,0.0,2.8003,0.0,0.0,0.0,0.0,0.0,2.5931,2.5527,0.0,0.0,2.5424,2.6209,2.6476,0.0,0.0,0.0,2.7894,0.0,0.0,2.8167,2.8247,2.8007,2.7777,2.7626,2.7313,2.7626,2.8362,0.0,2.7706,0.0,0.0,0.0,0.0,0.0,2.7464,2.7393,0.0,2.7626,2.7265,2.7265,2.7254,2.7242,2.7615,2.814,2.8609,2.83,2.8979,2.9566,2.8546,2.8426,2.8718,2.8834,2.8621,2.845,2.9316,0.0,0.0,0.0,0.0,0.0,0.0,0.0,0.0,0.0,2.7893,2.7893,2.7893,2.7893,2.7893,0.0,2.7893,0.0,0.0,0.0,0.0,0.0,0.0,2.9459,2.9328,2.8803,2.851,2.851,2.851,2.851,2.851,2.851,2.851,2.851,2.8351,2.8339,2.8259,2.8454,2.8527,2.855,2.9094,2.952,2.9777,2.9942,3.0331,3.0725,3.0524,3.0617,3.0679,3.0499,3.0499,3.0499,3.0679,3.0769,3.0679,2.7074,0.0,0.0,0.0,0.0,0.0,0.0,0.0,0.0,0.0,2.704,0.0,2.6126,0.0,2.5589,0.0,2.562,2.572,2.6653,2.6632,0.0,2.7615,2.7464,0.0,0.0,0.0,0.0,0.0,2.7696,2.7545,2.7545,2.7301,2.7393,2.786,0.0,2.7545,2.781,0.0,2.7487,0.0,0.0,2.7382,0.0,0.0,2.7221,2.7265,2.7242,2.7231,2.7231,2.7231,2.7626,2.8023,2.7382,2.8113,2.8906,2.758,2.7672,2.8119,2.7926,2.7545,2.7464,2.8542,2.8007,2.7383,2.8235,0.0,2.7452,0.0,0.0,0.0,0.0,2.7638,2.7638,2.7638,2.7638,2.7638,0.0,2.7638,0.0,0.0,0.0,0.0,0.0,2.8924,2.9015,2.925,2.8724,2.8431,2.851,2.8431,2.8419,2.8419,2.8351,2.8283,2.8283,2.8288,2.8371,2.8371,2.874,2.8915,2.8927,2.9468,2.9804,3.0033,3.0296,3.0477,3.0691,3.0487,3.0487,3.0487,3.0306,3.0216,3.0216,3.0397,3.0487,3.0397,0.0,0.0,0.0,0.0,2.684,0.0,0.0,0.0,2.7736,0.0,2.6671,2.6602,2.6346,2.6033,2.5946,2.6299,2.5972,2.5968,2.6473,2.6746,0.0,0.0,2.7371,2.7684,2.8179,0.0,0.0,0.0,0.0,2.8179,2.8179,2.7464,2.7231,2.7231,2.7382,0.0,2.7231,2.7382,2.737,2.7231,2.7231,2.7231,2.7196,2.722,2.7383,2.7508,2.7277,2.7254,2.7206,2.7277,2.7218,2.7229,2.7311,2.73,2.73,2.73,2.73,2.73,2.73,2.73,2.73,2.73,2.7288,2.7265,2.7265,2.7161,2.7149,0.0,0.0,0.0,0.0,2.7149,2.7231,2.7231,2.7231,2.7231,2.7231,2.7231,2.7231,0.0,0.0,0.0,0.0,2.803,2.8042,2.8431,2.8339,2.8259,0.0,2.8259,2.8179,2.8179,2.8042,2.7904,2.7928,2.8386,2.8633,2.8668,2.9136,2.9394,2.9406,2.9921,3.0056,2.988,3.0368,3.0487,3.0216,3.0216,3.0216,3.0216,3.0216,3.0216,3.0216,3.0216,3.0216,3.0216,2.7987,2.7521,2.7092,0.0,2.7551,2.7827,0.0,0.0,0.0,0.0,2.6429,2.6249,2.5356,2.5564,2.5889,2.6415,2.6343,0.0,0.0,0.0,0.0,2.7219,2.7219,2.7301,2.7464,2.7464,0.0,2.7696,0.0,2.7464,2.7464,2.7313,2.7231,2.7231,0.0,0.0,2.7231,2.7254,2.7242,2.7231,2.7231,2.7265,2.737,0.0,2.7549,2.8053,2.7406,2.7455,2.7776,2.7775,2.8026,2.8282,2.8294,2.8322,2.8322,2.8322,2.8322,2.8322,2.8322,2.8322,2.8322,2.8322,2.8046,2.7782,2.7782,2.7235,2.6704,2.6704,2.6704,2.6704,2.6704,2.6962,2.7231,2.7231,2.7231,2.7231,2.7231,0.0,0.0,2.7231,0.0,0.0,2.7684,2.7788,2.8042,2.8259,2.8259,2.8259,2.8259,2.8111,2.7962,2.7962,2.7962,2.8069,2.8433,2.8409,2.8582,2.8858,2.9317,2.9473,2.9496,2.9993,3.0111,3.0122,3.0249,3.0306,3.0216,3.0216,3.0216,3.0216,3.0216,3.0216,3.0216,3.0216,3.0216,3.0216,2.8457,0.0,0.0,2.7523,0.0,0.0,2.7523,2.7732,0.0,2.6779,2.6828,0.0,2.5761,2.587,2.6152,2.6439,2.6668,0.0,2.7208,0.0,0.0,2.7231,2.7231,2.7231,2.7231,2.7231,0.0,2.7231,0.0,2.7231,2.7231,2.7231,2.7231,2.7231,0.0,2.7231,2.7231,2.7231,2.7231,2.7231,2.7231,2.7382,0.0,2.7615,2.7946,2.841,2.8,2.8053,2.8343,2.8305,2.8516,2.8688,2.8735,2.87,2.87,2.87,2.87,2.87,2.87,2.87,2.87,2.87,2.8494,2.8214,2.8043,2.755,2.7082,2.6827,2.6672,2.6528,2.6528,2.6779,2.6974,2.7149,2.7231,2.7231,0.0,0.0,0.0,0.0,2.7231,2.7219,2.7371,2.7615,2.7788,2.803,2.8111,2.8111,0.0,2.7869,2.7813,2.8058,2.7976,2.8209,2.8614,2.8785,2.8953,2.923,2.9662,2.9814,2.9814,3.0089,3.0216,3.0216,3.0216,3.0216,3.0216,3.0216,3.0216,3.0216,3.0216,3.0216,3.0216,3.0216,3.0216,3.0216,0.0,0.0,0.0,0.0,0.0,0.0,0.0,2.7923,0.0,2.7678,0.0,2.7271,2.6757,2.6636,2.6565,2.6565,0.0,2.7231,2.7231,2.7231,2.7231,2.7231,2.7231,2.7231,2.7231,2.7231,2.7231,0.0,0.0,2.7231,2.7231,2.7231,2.7231,0.0,0.0,0.0,0.0,2.7231,2.7242,2.7277,2.7284,2.7633,2.8126,2.8126,2.8411,2.8767,2.8813,2.8835,2.8828,2.8828,2.8836,2.8896,2.8896,2.8896,2.8896,2.8896,2.8896,2.8896,2.8896,2.8809,2.8809,2.8809,2.8676,2.8532,2.8096,2.7876,2.7645,2.7205,2.6813,2.6639,2.6639,2.6609,2.6707,2.7158,2.7241,0.0,0.0,0.0,0.0,0.0,0.0,0.0,2.7231,2.7371,2.7615,2.78,2.7881,0.0,0.0,0.0,2.7788,2.8321,2.8165,2.831,2.8804,2.9263,2.9527,2.9596,3.0021,3.0216,3.0216,3.0216,3.0216,3.0216,3.0216,3.0216,3.0216,3.0216,3.0125,3.0125,3.0023,3.0023,3.0023,3.0023,3.0023,3.0034,0.0,0.0,0.0,0.0,0.0,2.7491,2.7474,2.7627,2.7621,2.7621,2.7458,2.7305,2.7252,2.7172,2.7093,2.7093,2.7174,0.0,0.0,0.0,0.0,2.7231,2.7231,2.7231,2.7231,2.7231,2.7231,0.0,2.7231,2.7231,2.7231,2.7231,2.7231,0.0,0.0,0.0,2.7231,2.7231,0.0,2.7882,2.7863,2.811,2.8612,2.8612,2.888,2.9319,2.9342,2.9353,2.9324,2.9324,2.9653,2.9952,2.9952,2.9952,2.9952,2.9952,2.9952,2.9952,2.9952,2.967,2.9319,2.9319,2.8745,2.8085,2.8006,2.742,2.6793,2.6694,2.664,2.6587,2.6587,2.6844,2.7074,2.7285,2.7229,0.0,0.0,0.0,0.0,0.0,0.0,2.6787,2.7149,2.7371,2.7522,2.7603,0.0,0.0,0.0,0.0,2.8153,2.8648,2.8574,2.8827,2.9355,2.9458,2.9699,3.0089,3.017,3.0216,3.0216,3.0216,3.0216,3.0216,3.0216,3.0216,3.0216,3.0216,2.9943,2.9577,2.9106,2.9002,2.9002,2.9002,2.9002,2.9095,0.0,0.0,0.0,0.0,0.0,0.0,0.0,2.763,2.7508,2.7889,2.812,2.8168,2.7877,2.7475,2.7231,2.7231,2.7231,2.7231,2.7231,2.7231,2.7231,2.7231,2.7231,2.7231,2.7231,2.7231,2.7231,2.7231,2.7231,2.7231,2.7231,2.7231,2.7231,2.7231,0.0,2.7231,0.0,0.0,2.7776,2.7981,2.8243,2.871,2.9127,2.9127,2.941,2.9829,2.9829,2.9817,2.9871,2.9871,3.0021,3.0216,3.0216,3.0216,3.0216,3.0216,3.0216,3.0125,2.9943,2.9669,2.9393,2.9106,2.8745,2.8305,2.8039,2.7672,2.7246,2.697,2.6781,2.663,2.6578,2.6961,2.7217,2.7238,0.0,0.0,0.0,0.0,2.6852,0.0,0.0,0.0,0.0,0.0,0.0,0.0,0.0,0.0,0.0,0.0,2.8322,2.9091,2.9114,2.9355,2.986,2.9871,2.9986,3.0216,3.0216,3.0216,3.0216,3.0216,3.0216,3.0216,3.0216,3.0216,3.0216,2.9943,2.9577,2.9106,2.8828,2.8735,2.8724,2.8724,2.8735,2.8828,0.0,2.7628,0.0,0.0,2.8143,0.0,2.8245,2.7937,2.7823,2.813,2.8517,2.8554,2.8259,2.7626,2.7231,2.7231,2.7231,2.7231,2.7231,2.7231,2.7231,2.7231,2.7231,2.7231,2.7231,2.7231,2.7231,0.0,0.0,2.7231,2.7231,2.7231,2.7231,2.7231,0.0,0.0,2.7364,2.7844,2.8098,2.8327,2.8721,2.9149,2.967,2.967,2.992,3.0216,3.0216,3.0216,3.0216,3.0216,3.0216,3.0216,3.0216,3.0216,3.0216,3.0034,3.0034,2.9943,2.9485,2.9301,2.9117,2.8631,2.8445,2.8269,2.7904,2.7809,2.7715,2.7357,2.6972,2.6795,2.6886,2.7083,2.7309,2.7368,2.7624,0.0,0.0,0.0,0.0,0.0,0.0,0.0,2.72,2.6931,0.0,0.0,0.0,0.0,2.863,2.842,2.8712,2.9441,2.9475,2.9646,2.984,2.984,2.984,2.984,3.0034,3.0034,2.984,3.0034,3.0034,2.984,2.984,2.984,2.9852,2.9382,2.8921,2.8538,2.8466,2.8466,2.8351,2.8351,2.8456,2.8466,0.0,0.0,0.0,0.0,0.0,2.8936,2.8286,2.8637,2.8825,2.8282,2.7755,2.7615,2.8179,2.7626,2.7231,2.7231,2.7231,2.7231,2.7231,2.7231,2.7231,2.7231,2.7231,2.7231,2.7231,2.7231,2.7231,0.0,0.0,2.7231,2.7231,2.7231,2.7231,2.7231,2.7231,2.7478,2.7917,2.7996,2.8508,2.9387,2.9398,2.9682,3.0102,3.0102,3.0204,3.0216,3.0216,3.0216,3.0216,3.0216,3.0216,3.0216,3.0216,3.0216,3.0125,2.9669,2.9577,2.9485,2.891,2.8445,2.8081,2.8092,2.7715,2.7441,2.7357,2.7357,2.7347,2.7357,2.7231,2.7369,2.7787,2.7599,2.7452,2.7934,2.7597,2.7163,0.0,0.0,2.6704,2.6704,0.0,0.0,2.7129,2.7129,0.0,0.0,2.7553,0.0,0.0,2.9101,2.9418,2.9498,2.951,2.9257,2.8817,2.8817,2.8817,2.8817,2.929,2.929,2.8817,2.9382,2.929,2.8817,2.8817,2.8828,2.8932,2.8373,2.8081,2.7987,2.7631,2.7452,2.7441,2.7441,2.7452,2.7452,0.0,0.0,0.0,0.0,0.0,0.0,0.0,2.8307,2.7925,2.762,2.7728,2.7777,2.7626,2.7383,2.7231,2.7231,2.7231,2.7231,2.7231,2.7231,2.7231,2.7231,2.7231,2.7231,2.7231,2.7231,2.7231,0.0,2.7231,2.7231,2.7231,2.688,2.679,2.6841,2.6841,2.7064,2.7562,2.7888,2.8364,2.902,2.9362,2.9795,3.0216,3.0216,3.0216,3.0216,3.0216,3.0216,3.0114,2.936,2.9555,3.0125,2.9463,2.9187,2.8888,2.8121,2.8143,2.8247,2.7683,2.7788,2.7904,2.7631,2.7441,2.7262,2.7262,2.7262,2.7262,2.7262,2.7262,2.7357,2.7536,2.7631,2.7662,2.766,2.7628,2.7564,2.7096,0.0,0.0,2.6992,0.0,2.7062,0.0,2.7009,0.0,0.0,0.0,0.0,0.0,2.8643,2.871,2.8991,2.9013,2.891,2.8724,2.8724,2.8724,2.8724,2.891,2.8921,2.8746,2.8921,2.891,2.8724,2.8724,2.8549,2.8279,2.8081,2.7809,2.7536,2.7357,2.7262,2.7262,2.7262,2.7262,2.7262,2.8307,0.0,2.9086,0.0,2.9189,2.8728,2.8797,2.8087,2.7522,2.7426,2.7848,2.793,2.7531,2.7323,2.7288,2.7438,2.7311,2.7231,2.7231,2.7231,2.7231,2.7231,2.7231,0.0,2.7231,2.7231,2.7138,2.6974,2.6974,2.6891,2.6809,2.6613,2.6609,2.6824,2.6824,2.7042,2.748,2.7796,2.8265,2.8729,2.9268,2.9577,2.9749,3.0125,2.984,2.9463,2.984,2.9646,2.8969,2.833,2.8505,2.8969,2.8226,2.784,2.7547,2.6693,2.6703,2.6914,2.634,2.6638,2.703,2.6965,2.6976,2.6965,2.7262,2.7262,2.7262,2.7262,2.7262,2.7262,2.7262,2.7536,2.7715,2.7536,2.7631,2.7726,2.7536,2.7357,0.0,2.7262,2.7262,2.7316,2.7262,2.6952,0.0,0.0,0.0,0.0,2.8121,2.8131,2.8305,2.8527,2.8445,2.8445,2.8269,2.8269,2.8269,2.8269,2.8445,2.8456,2.8384,2.8269,2.8269,2.8269,2.8269,2.8081,2.7809,2.7809,2.7631,2.7262,2.7262,2.7262,2.7262,2.7262,2.7262,2.7262,2.8386,2.9314,2.9891,2.9287,2.9656,2.9561,2.8407,2.8179,2.8127,2.7992,2.7977,2.7977,2.7977,2.7529,2.7426,2.7931,2.7518,2.7231,2.7231,2.7231,2.7231,0.0,0.0,2.7231,2.7231,2.7231,2.6962,2.6528,2.6528,2.629,2.5917,2.6398,2.6856,2.7183,2.7183,2.7466,2.8025,2.8036,2.8309,2.8724,2.929,2.9198,2.8817,2.984,2.9095,2.7778,2.9106,2.8226,2.6577,2.7379,2.7084,2.6481,2.6386,2.6386,2.629,2.5838,2.5751,2.5654,2.508,2.4894,2.5089,2.5897,2.6091,2.6294,2.7167,2.7262,2.7262,2.7262,2.7262,2.7262,2.7262,2.7262,2.7441,2.7904,2.7631,2.7441,2.7904,2.7631,0.0,2.7262,2.7262,2.7262,2.7347,2.7251,0.0,0.0,0.0,0.0,2.6829,2.8049,2.8445,2.7987,2.7987,2.7809,2.7347,2.7357,2.7357,2.7347,2.7809,2.7809,2.7357,2.7357,2.7357,2.7357,2.7357,2.7357,2.7357,2.7357,2.7262,2.7262,2.7262,2.7262,2.7262,2.7262,2.7262,2.7167,2.8895,2.9266,2.9401,2.916,2.8905,2.8754,2.8712,2.8292,2.8159,2.8402,2.8471,2.8609,2.8976,2.854,2.8299,0.0,2.8322,2.8092,0.0,2.7748,2.7587,2.7242,2.688,2.6704,2.6704,2.6479,2.6229,2.6052,2.6052,2.5884,2.5475,2.5862,2.6158,2.6336,2.6651,2.7062,2.7504,2.7504,2.7766,2.8269,2.8456,2.8549,2.8724,2.8527,2.806,2.7579,2.7463,2.6958,2.629,2.5644,2.5353,2.4963,2.4088,2.4384,2.4963,2.4106,2.4115,2.4304,2.4115,2.4501,2.4992,2.5197,2.5693,2.6197,2.639,2.687,2.7262,2.7262,2.7262,2.7262,2.7262,2.7262,2.7357,2.7536,2.7452,2.7347,2.7536,2.7347,2.7262,2.7262,2.7262,2.7262,2.7262,2.7262,0.0,0.0,0.0,2.7251,2.7146,2.7526,2.7726,2.7536,2.7536,2.7441,2.7262,2.7262,2.7262,2.7262,2.7441,2.7441,2.7262,2.7262,2.7262,2.7262,2.7262,2.7262,2.7262,2.7262,2.7262,2.7262,2.7262,2.7262,2.7262,2.7262,2.6965,2.6486,2.8762,2.8988,2.9085,2.8797,2.8563,2.8478,2.8563,2.8368,2.8436,2.893,2.8999,2.9194,2.9711,2.947,2.9194,2.9022,2.8815,2.8574,2.8264,2.8253,2.8019,2.7542,2.7257,2.6914,2.6568,2.6253,2.5997,2.5633,2.5475,2.5307,2.5219,2.5514,2.5811,2.6154,2.6434,2.6827,2.7262,2.7262,2.7441,2.7715,2.761,2.76,2.7694,2.7284,2.6713,2.6137,2.6118,2.5625,2.4856,2.4393,2.4007,2.3619,2.2837,2.3129,2.3619,2.3038,2.3046,2.3338,2.3338,2.3628,2.4106,2.4402,2.4805,2.5304,2.5596,2.6081,2.6466,2.6774,2.687,2.6965,2.7251,2.7262,2.7262,2.7262,2.7262,2.7262,2.7262,2.7262,2.7262,2.7262,2.7262,2.7262,2.7262,2.7262,2.7061,2.6582,0.0,2.7262,2.7262,2.7262,2.7262,2.7262,2.7262,2.7262,2.7262,2.7262,2.7262,2.7262,2.7262,2.7262,2.7262,2.7262,2.7262,2.7262,2.7262,2.7262,2.7262,2.7262,2.7262,2.7262,2.6965,2.687,2.6774,2.6466,2.6081,2.5596,2.8191,2.866,2.887,2.8295,2.8537,2.8716,2.8153,2.8471,2.8941,2.9481,2.955,2.9722,3.0079,3.0125,2.9942,2.9495,2.9091,2.8792,2.866,2.866,2.8475,2.8007,2.7919,2.7457,2.6595,2.6563,2.6034,2.5115,2.47,2.4757,2.5181,2.5213,2.5678,2.6486,2.6548,2.6806,2.721,2.7251,2.7262,2.7251,2.6935,2.6456,2.6091,2.6214,2.5158,2.3827,2.507,2.4196,2.2745,2.3438,2.3138,2.2644,2.2644,2.2644,2.2644,2.2644,2.2644,2.2644,2.2644,2.2644,2.2745,2.3438,2.3628,2.3926,2.4698,2.4894,2.5089,2.5897,2.5994,2.6284,2.6965,2.7156,2.7156,2.7262,2.7262,2.7262,2.7262,2.7262,2.7262,2.7262,2.7262,2.7262,2.7262,2.7262,2.7262,2.7262,0.0,2.7262,2.7262,2.7262,2.7262,2.7262,2.7262,2.7262,2.7262,2.7262,2.7262,2.7262,2.7262,2.7262,2.7262,2.7262,2.7262,2.7262,2.7262,2.7262,2.7262,2.7262,2.7262,2.7156,2.6284,2.5994,2.5897,2.5187,2.4894,2.4698,2.8215,2.8323,2.8378,2.8057,2.8147,2.8399,2.9022,2.924,2.9481,2.9975,3.0044,2.9908,2.9658,2.9669,2.9429,2.894,2.9466,2.9509,2.8778,2.8667,2.831,2.7393,2.7138,2.6829,2.6633,2.5929,2.5267,2.4711,2.454,2.4602,2.4705,2.5068,2.5347,2.5575,2.6268,2.663,2.6755,2.7107,2.7262,2.7251,2.6572,2.6187,2.5994,2.4796,2.4115,2.3628,2.3429,2.3038,2.2653,2.2846,2.2745,2.2644,2.2644,2.2644,2.2644,2.2644,2.2644,2.2644,2.2644,2.2644,2.2644,2.2846,2.3238,2.3926,2.4698,2.4894,2.4992,2.5089,2.5187,2.5285,2.5382,2.5479,2.5684,2.6284,2.638,2.6582,2.7262,2.7262,2.7262,2.7262,2.7262,2.7262,2.7262,2.7262,2.7262,2.7262,2.7262,2.7262,2.7262,2.7262,2.7262,2.7262,2.7262,2.7262,2.7262,2.7262,2.7262,2.7262,2.7262,2.7262,2.7262,2.7262,2.7262,2.7262,2.7262,2.7262,2.7262,2.6678,2.638,2.6284,2.5489,2.5187,2.5187,2.4992,2.4501,2.3926,2.7429,2.7626,2.7633,2.7426,2.7671,2.8141,2.869,2.9229,2.9466,2.9543,2.976,2.9669,2.9198,2.9117,2.9024,2.8724,2.9187,2.9271,2.873,2.8719,2.8324,2.7597,2.7323,2.7056,2.6571,2.6059,2.5523,2.4861,2.4654,2.454,2.455,2.4799,2.5026,2.5254,2.574,2.6185,2.6589,2.6837,2.6876,2.6678,2.5887,2.5304,2.4913,2.3628,2.3238,2.3138,2.2745,2.2644,2.2644,2.2644,2.2644,2.2644,2.2644,2.2644,2.2644,2.2644,2.2644,2.2644,2.2644,2.2644,2.2644,2.2644,2.2946,2.3338,2.3719,2.3818,2.3917,2.4313,2.4313,2.4501,2.4796,2.4894,2.4992,2.5489,2.5586,2.579,2.6678,2.6774,2.687,2.7081,2.7081,2.7081,2.7081,2.7081,2.6986,2.6774,2.7061,2.7061,2.6572,2.7061,2.7262,2.7262,2.7262,2.7262,2.7262,2.7262,2.7262,2.7262,2.7262,2.7262,2.7262,2.7262,2.7262,2.7262,2.7262,2.7061,2.6678,2.6284,2.5897,2.5499,2.4707,2.4313,2.4313,2.4016,2.3529,2.3238,2.6629,2.6819,2.7078,2.6813,2.7512,2.8058,2.8134,2.8851,2.9209,2.8839,2.9117,2.9198,2.8631,2.8653,2.8653,2.8549,2.8445,2.8538,2.8631,2.8631,2.8362,2.7904,2.7904,2.7536,2.6682,2.661,2.6134,2.5233,2.484,2.4612,2.454,2.454,2.4747,2.513,2.5202,2.5647,2.6382,2.6517,2.6411,2.5905,2.5168,2.4402,2.3628,2.2846,2.2644,2.2644,2.2644,2.2644,2.2644,2.2644,2.2644,2.2644,2.2644,2.2644,2.2644,2.2644,2.2644,2.2644,2.2644,2.2644,2.2644,2.2644,2.2644,2.2644,2.2644,2.2644,2.2745,2.3429,2.3529,2.3728,2.4402,2.4501,2.4492,2.4894,2.4688,2.4786,2.579,2.579,2.5897,2.6294,2.64,2.64,2.64,2.64,2.6197,2.5693,2.6274,2.6274,2.5392,2.637,2.686,2.6658,2.7061,2.7262,2.7262,2.7262,2.7262,2.7262,2.7262,2.7262,2.7262,2.7156,2.7167,2.7061,2.6965,2.6572,2.5897,2.58,2.5304,2.4599,2.3818,2.3529,2.3438,2.2846,2.2644,2.2644,2.6601,2.6658,2.6965,2.7687,2.7938,2.8167,2.856,2.868,2.8817,2.8724,2.8817,2.8631,2.8175,2.8081,2.7998,2.7536,2.7536,2.7715,2.8081,2.8081,2.7904,2.7441,2.7441,2.7315,2.7148,2.6765,2.6134,2.5233,2.5161,2.4923,2.454,2.454,2.4581,2.4664,2.5057,2.5306,2.5492,2.6248,2.6144,2.547,2.5043,2.4402,2.3628,2.2846,2.2644,2.2644,2.2644,2.2644,2.2644,2.2644,2.2644,2.2644,2.2644,2.2644,2.2644,2.2644,2.2644,2.2644,2.2644,2.2644,2.2644,2.2644,2.2644,2.2644,2.2644,2.2644,2.2644,2.2745,2.2745,2.2846,2.2937,2.2526,2.2811,2.4599,2.3592,2.3176,2.5158,2.4473,2.3791,2.389,2.389,2.389,2.389,2.389,2.3791,2.3791,2.389,2.3881,2.3692,2.4688,2.4884,2.398,2.6167,2.7262,2.7262,2.7262,2.7262,2.7262,2.7262,2.7262,2.7262,2.6582,2.6294,2.6284,2.5586,2.5187,2.4992,2.4313,2.4026,2.3827,2.3038,2.2745,2.2745,2.2644,2.2644,2.2644,2.6314,2.6592,2.6986,2.7232,2.7427,2.766,2.7872,2.8175,2.8269,2.7987,2.8175,2.8175,2.762,2.7631,2.7536,2.7357,2.7262,2.7347,2.7631,2.7631,2.7536,2.7357,2.7262,2.7262,2.7262,2.6806,2.6248,2.5585,2.5347,2.4995,2.454,2.454,2.454,2.455,2.4767,2.4995,2.5166,2.5298,2.5083,2.4669,2.4197,2.3628,2.3038,2.2745,2.2644,2.2644,2.2644,2.2644,2.2644,2.2644,2.2644,2.2644,2.2644,2.2644,2.2644,2.2644,2.2644,2.2644,2.2644,2.2644,2.2644,2.2644,2.2644,2.2544,2.2232,2.2139,2.2038,2.1733,2.1632,2.1632,2.1632,2.1428,2.1615,2.261,2.2005,2.1903,2.3375,2.3076,2.2785,2.3085,2.3085,2.3085,2.3085,2.3085,2.2985,2.2685,2.3085,2.3094,2.2492,2.3484,2.3791,2.3085,2.4375,2.5168,2.5168,2.5168,2.5168,2.5168,2.5168,2.5275,2.5567,2.5187,2.5187,2.5392,2.5089,2.4698,2.4214,2.3827,2.3438,2.3038,2.2745,2.2644,2.2544,2.2241,2.2342,2.2544,2.6101,2.6626,2.697,2.6806,2.7024,2.7262,2.7262,2.7631,2.7715,2.7357,2.7631,2.7715,2.7357,2.7262,2.7262,2.7262,2.7262,2.7262,2.7262,2.7262,2.7262,2.7262,2.7262,2.7262,2.7262,2.691,2.6496,2.6041,2.5595,2.515,2.4695,2.4592,2.454,2.454,2.454,2.4736,2.499,2.4444,2.4131,2.39,2.3437,2.293,2.2424,2.2509,2.2644,2.2644,2.2644,2.2644,2.2644,2.2644,2.2644,2.2644,2.2644,2.2644,2.2544,2.2443,2.2342,2.2241,2.2544,2.2544,2.2443,2.2443,2.2342,2.2038,2.1632,2.1522,2.142,2.1019,2.0925,2.0925,2.0925,2.0814,2.0814,2.1113,2.0814,2.0806,2.1794,2.1692,2.1582,2.1988,2.2089,2.2089,2.2089,2.2089,2.1887,2.1489,2.1988,2.1988,2.1183,2.219,2.2693,2.2484,2.2985,2.3285,2.3285,2.3285,2.3285,2.3285,2.3285,2.3493,2.389,2.3692,2.389,2.4295,2.4196,2.371,2.3029,2.3229,2.2837,2.2241,2.2241,2.2241,2.2139,2.1725,2.1827,2.2038,2.6483,2.662,2.6796,2.7138,2.7241,2.7262,2.7262,2.7357,2.7357,2.7262,2.7357,2.7357,2.7262,2.7262,2.7262,2.7262,2.7262,2.7262,2.7262,2.7262,2.7262,2.7262,2.7262,2.7262,2.7262,2.7231,2.6982,2.6517,2.6061,2.5606,2.5171,2.4736,2.454,2.454,2.454,2.456,2.4537,2.4313,2.3799,2.3107,2.3217,2.277,2.2073,2.2415,2.2644,2.2644,2.2644,2.2644,2.2644,2.2644,2.2644,2.2644,2.2644,2.2644,2.2443,2.1928,2.1428,2.1224,2.2342,2.2232,2.1725,2.1725,2.1428,2.1027,2.0925,2.0917,2.0925,2.0925,2.0925,2.0925,2.0925,2.0498,2.0585,2.1785,2.0585,1.9879,2.1183,2.0285,1.948,1.9576,1.9583,1.9583,1.9583,1.9583,1.9583,1.948,1.9576,1.9576,1.948,2.0483,2.1089,2.1089,2.2484,2.3285,2.3285,2.3285,2.3285,2.3285,2.3285,2.3285,2.3285,2.2593,2.2291,2.2291,2.2013,2.1623,2.1121,2.1623,2.1522,2.1027,2.1027,2.1027,2.1019,2.1019,2.1027,2.1027,2.6588,2.6796,2.7055,2.7231,2.7262,2.7262,2.7262,2.7262,2.7262,2.7262,2.7262,2.7262,2.7262,2.7262,2.7262,2.7262,2.7262,2.7262,2.7262,2.7262,2.7262,2.7262,2.7262,2.7262,2.7262,2.7262,2.7034,2.6568,2.6392,2.5937,2.5223,2.5047,2.4819,2.454,2.454,2.4282,2.3851,2.3291,2.2792,2.2272,2.2167,2.2065,2.2038,2.2407,2.2342,2.2139,2.2443,2.2139,2.1632,2.1928,2.1835,2.153,2.153,2.153,2.153,2.1224,2.1019,2.1027,2.1428,2.1428,2.1224,2.1224,2.1019,2.0814,2.0498,2.0395,2.0292,1.9998,1.9894,1.9894,1.9894,1.9791,1.9776,2.0285,1.9783,1.948,1.9983,1.9576,1.9279,1.9279,1.9279,1.9279,1.9279,1.9279,1.9279,1.9279,1.9279,1.9279,1.9279,1.968,1.9879,1.9879,2.0483,2.0783,2.0783,2.0783,2.0783,2.0783,2.0783,2.0979,2.1285,2.0987,2.0995,2.131,2.1216,2.1121,2.0925,2.1121,2.1121,2.0925,2.0925,2.0925,2.0822,2.0506,2.0609,2.0814,2.6755,2.7044,2.7262,2.7262,2.7262,2.7262,2.7262,2.7262,2.7262,2.7262,2.7262,2.7262,2.7262,2.7262,2.7262,2.7262,2.7262,2.7262,2.7262,2.7262,2.7262,2.7262,2.7262,2.7262,2.7262,2.7262,2.7107,2.6786,2.6558,2.6166,2.5468,2.518,2.4882,2.4574,2.4344,2.411,2.3677,2.2501,2.2039,2.1898,2.1199,2.1181,2.1573,2.1954,2.1835,2.1522,2.1937,2.153,2.0917,2.1326,2.1224,2.0925,2.0925,2.0814,2.0609,2.0609,2.0506,2.0411,2.0411,2.0411,2.0411,2.0609,2.0506,2.03,1.9879,1.9887,1.9783,1.9376,1.9279,1.9279,1.9279,1.9279,1.9279,1.9279,1.9279,1.9279,1.9279,1.9279,1.9279,1.9279,1.9279,1.9279,1.9279,1.9279,1.9279,1.9279,1.9279,1.9279,1.9279,1.9279,1.9279,1.9279,1.9279,1.9279,1.9279,1.9279,1.9279,1.9279,1.9279,1.948,1.9887,1.9887,2.0094,2.0411,2.0609,2.0506,2.0403,2.0609,2.0506,2.0411,2.0411,2.0411,2.0308,1.9983,2.0094,2.0308,2.7169,2.7262,2.7262,2.7262,2.7262,2.7262,2.7262,2.7262,2.7262,2.7262,2.7262,2.7262,2.7262,2.7262,2.7262,2.7262,2.7262,2.7262,2.7262,2.7262,2.7262,2.7262,2.7262,2.7262,2.7262,2.7262,2.7262,2.7262,2.6535,2.6227,2.6196,2.5028,2.4604,2.4751,2.4129,2.3947,2.4034,2.2148,2.1615,2.1956,2.052,2.016,2.0638,2.0857,2.0925,2.0917,2.0925,2.0917,2.0925,2.0917,2.0917,2.0925,2.0925,2.0498,2.0078,2.0078,1.968,1.9279,1.9279,1.9279,1.948,1.9983,1.968,1.9279,1.9279,1.9279,1.9279,1.9279,1.9279,1.9279,1.9279,1.9279,1.9279,1.9279,1.9279,1.9279,1.9279,1.9279,1.9279,1.9279,1.9279,1.9279,1.9279,1.9279,1.9279,1.9279,1.9279,1.9279,1.9279,1.9279,1.9279,1.9279,1.9279,1.9279,1.9279,1.9279,1.9279,1.9279,1.9279,1.9279,1.9279,1.9279,1.9279,1.9383,1.9879,1.9776,1.9376,1.9879,1.9783,1.9279,1.9279,1.9279,1.9279,1.9279,1.9279,1.9279,2.7231,2.7262,2.7262,2.7262,2.7262,2.7262,2.7262,2.7262,2.7262,2.7262,2.7262,2.7262,2.7262,2.7262,2.7262,2.7262,2.7262,2.7262,2.7262,2.7262,2.7262,2.7262,2.7262,2.7262,2.7262,2.7081,2.6986,2.6986,2.6652,2.6239,2.5916,2.5561,2.5269,2.5048,2.4816,2.4496,2.4043,2.2741,2.1897,2.1576,2.0525,2.0226,2.0472,2.0742,2.0712,2.0395,2.0712,2.0411,1.9791,2.0189,2.0094,1.9791,1.9791,1.9687,1.9583,1.9583,1.948,1.9279,1.9279,1.9279,1.9376,1.948,1.9376,1.9279,1.9279,1.9279,1.9279,1.9279,1.9279,1.9279,1.9279,1.9279,1.9279,1.9279,1.9279,1.9279,1.9279,1.9279,1.9279,1.9279,1.9279,1.9279,1.9279,1.9279,1.9279,1.9279,1.9279,1.9279,1.9279,1.9279,1.9279,1.9279,1.9279,1.9279,1.9279,1.9279,1.9279,1.9279,1.9279,1.9279,1.9279,1.9279,1.9279,1.9279,1.948,1.948,1.9272,1.948,1.948,1.9279,1.9279,1.9279,1.9279,1.9279,1.9279,1.9279,2.7262,2.7262,2.7262,2.7262,2.7262,2.7262,2.7262,2.7262,2.7262,2.7262,2.7262,2.7262,2.7262,2.7262,2.7262,2.7262,2.7262,2.7262,2.7177,2.7262,2.7167,2.6976,2.7081,2.7177,2.7177,2.689,2.6699,2.6699,2.6496,2.6164,2.5894,2.562,2.5391,2.5225,2.4482,2.4034,2.3663,2.2046,2.1292,2.0958,2.0043,1.9783,2.0023,2.0169,2.0094,1.9783,2.0197,1.9894,1.9383,1.968,1.9583,1.9279,1.9279,1.9279,1.9279,1.9279,1.9279,1.9279,1.9279,1.9279,1.9279,1.9279,1.9279,1.9279,1.9279,1.9279,1.9279,1.9279,1.9279,1.9279,1.9279,1.9279,1.9279,1.9279,1.9279,1.9279,1.9279,1.9279,1.9279,1.9279,1.9279,1.9279,1.9279,1.9279,1.9279,1.9279,1.9279,1.9279,1.9279,1.9279,1.9279,1.9279,1.9279,1.9279,1.9279,1.9279,1.9279,1.9279,1.9279,1.9279,1.9279,1.9279,1.9279,1.9279,1.9279,1.9279,1.9279,1.9279,1.9279,1.9279,1.9279,1.9279,1.9279,1.9279,1.9279,1.9279,2.7262,2.7262,2.7262,2.7262,2.7262,2.7262,2.7262,2.7262,2.7262,2.7262,2.7262,2.7262,2.7262,2.7262,2.7262,2.7262,2.7262,2.7071,2.69,2.7081,2.6976,2.6496,2.6699,2.6805,2.6805,2.6602,2.6496,2.6496,2.6197,2.61,2.6091,2.5303,2.5117,2.5382,2.355,2.2997,2.3091,2.0895,2.0135,2.0459,1.9305,1.9137,1.9471,1.9369,1.9279,1.9279,1.9279,1.9279,1.9279,1.9279,1.9279,1.9279,1.9279,1.9279,1.9279,1.9279,1.9279,1.9279,1.9279,1.9279,1.9279,1.9279,1.9279,1.9279,1.9279,1.9279,1.9279,1.9279,1.9279,1.9279,1.9279,1.9279,1.9279,1.9279,1.9279,1.9279,1.9279,1.9279,1.9279,1.9279,1.9279,1.9279,1.9279,1.9279,1.9279,1.9279,1.9279,1.9279,1.9279,1.9279,1.9279,1.9279,1.9279,1.9279,1.9279,1.9279,1.9279,1.9279,1.9279,1.9279,1.9279,1.9279,1.9279,1.9279,1.9279,1.9279,1.9279,1.9279,1.9279,1.9279,1.9279,1.9279,1.9279,1.9279,1.9279,1.9279,2.7262,2.7262,2.7262,2.7262,2.7262,2.7262,2.7262,2.7262,2.7262,2.7262,2.7262,2.7262,2.7262,2.7081,2.6986,2.6986,2.6784,2.6688,2.6592,2.6592,2.6592,2.6496,2.639,2.6294,2.6294,2.6197,2.6197,2.6197,2.5917,2.583,2.5732,2.4809,2.4771,2.5586,2.3475,2.3036,2.3733,2.1553,2.0764,2.0772,1.9641,1.9273,1.9384,1.9354,1.9279,1.9279,1.9279,1.9279,1.9279,1.9279,1.9279,1.9279,1.9279,1.9279,1.9279,1.9279,1.9279,1.9279,1.9279,1.9279,1.9279,1.9279,1.9279,1.9279,1.9279,1.9279,1.9279,1.9279,1.9279,1.9279,1.9279,1.9279,1.9279,1.9279,1.9279,1.9279,1.9279,1.9279,1.9279,1.9279,1.9279,1.9279,1.9279,1.9279,1.9279,1.9279,1.9279,1.9279,1.9279,1.9279,1.9279,1.9279,1.9279,1.9279,1.9279,1.9279,1.9279,1.9279,1.9279,1.9279,1.9279,1.9279,1.9279,1.9279,1.9279,1.9279,1.9279,1.9279,1.9279,1.9279,1.9279,1.9279,1.9279,1.9279,1.9279,1.9279,2.7262,2.7262,2.7262,2.7262,2.7262,2.7262,2.7177,2.7081,2.7081,2.6976,2.688,2.688,2.688,2.6784,2.6699,2.6699,2.6602,2.64,2.6294,2.64,2.64,2.612,2.61,2.6004,2.5917,2.5917,2.5917,2.5917,2.5732,2.543,2.4913,2.4393,2.4097,2.4106,2.2492,2.2089,2.2492,2.0783,2.0181,2.0086,1.948,1.9279,1.9279,1.9279,1.9279,1.9279,1.9279,1.9279,1.9279,1.9279,1.9279,1.9279,1.9279,1.9279,1.9279,1.9279,1.9279,1.9279,1.9279,1.9279,1.9279,1.9279,1.9279,1.9279,1.9279,1.9279,1.9279,1.9279,1.9279,1.9279,1.9279,1.9279,1.9279,1.9279,1.9279,1.9279,1.9279,1.9279,1.9279,1.9279,1.9279,1.9279,1.9279,1.9279,1.9279,1.9279,1.9279,1.9279,1.9279,1.9279,1.9279,1.9279,1.9279,1.9279,1.9279,1.9279,1.9279,1.9279,1.9279,1.9279,1.9279,1.9279,1.9279,1.9279,1.9279,1.9279,1.9279,1.9279,1.9279,1.9279,1.9279,1.9279,1.9279,1.9279,1.9279,1.9279,2.7262,2.7262,2.7262,2.7262,2.7262,2.7177,2.69,2.6805,2.6794,2.6506,2.6496,2.6496,2.6496,2.6496,2.64,2.64,2.64,2.6304,2.6004,2.6207,2.612,2.5742,2.5713,2.5606,2.543,2.5226,2.5333,2.5742,2.5742,2.5118,2.4088,2.389,2.3384,2.2492,2.1183,2.0688,2.0783,1.9783,1.9279,1.9279,1.9279,1.9279,1.9279,1.9279,1.9279,1.9279,1.9279,1.9279,1.9279,1.9279,1.9279,1.9279,1.9279,1.9279,1.9279,1.9279,1.9279,1.9279,1.9279,1.9279,1.9279,1.9279,1.9279,1.9279,1.9279,1.9279,1.9279,1.9279,1.9279,1.9279,1.9279,1.9279,1.9279,1.9279,1.9279,1.9279,1.9279,1.9279,1.9279,1.9279,1.9279,1.9279,1.9279,1.9279,1.9279,1.9279,1.9279,1.9279,1.9279,1.9279,1.9279,1.9279,1.9279,1.9279,1.9279,1.9279,1.9279,1.9279,1.9279,1.9279,1.9279,1.9279,1.9279,1.9279,1.9279,1.9279,1.9279,1.9279,1.9279,1.9279,1.9279,1.9279,1.9279,1.9279,1.9279,1.9279,2.7262,2.7262,2.7262,2.6986,2.6996,2.689,2.6602,2.6592,2.6496,2.6496,2.6496,2.6496,2.6496,2.6294,2.61,2.583,2.583,2.583,2.5732,2.583,2.5732,2.5742,2.4805,2.4393,2.4295,2.3393,2.3809,2.5742,2.5742,2.5118,2.4088,2.3185,2.2685,2.2383,2.0388,2.0078,2.0783,1.9783,1.9279,1.9279,1.9279,1.9279,1.9279,1.9279,1.9279,1.9279,1.9279,1.9279,1.9279,1.9279,1.9279,1.9279,1.9279,1.9279,1.9279,1.9279,1.9279,1.9279,1.9279,1.9279,1.9279,1.9279,1.9279,1.9279,1.9279,1.9279,1.9279,1.9279,1.9279,1.9279,1.9279,1.9279,1.9279,1.9279,1.9279,1.9279,1.9279,1.9279,1.9279,1.9279,1.9279,1.9279,1.9279,1.9279,1.9279,1.9279,1.9279,1.9279,1.9279,1.9279,1.9279,1.9279,1.9279,1.9279,1.9279,1.9279,1.9279,1.9279,1.9279,1.9279,1.9279,1.9279,1.9279,1.9279,1.9279,1.9279,1.9279,1.9279,1.9279,1.9279,1.9279,1.9279,1.9279,1.9279,1.9279,1.9279,2.7262,2.7167,2.7081,2.69,2.6805,2.6602,2.6294,2.6294,2.6197,2.611,2.6024,2.6024,2.6024,2.5917,2.582,2.5732,2.5742,2.543,2.4815,2.4815,2.451,2.3908,2.3493,2.3194,2.3194,2.2785,2.2994,2.3908,2.3908,2.3402,2.2291,2.1785,2.1285,2.068,1.968,1.9576,1.9983,1.948,1.9279,1.9279,1.9279,1.9279,1.9279,1.9279,1.9279,1.9279,1.9279,1.9279,1.9279,1.9279,1.9279,1.9279,1.9279,1.9279,1.9279,1.9279,1.9279,1.9279,1.9279,1.9279,1.9279,1.9279,1.9279,1.9279,1.9279,1.9279,1.9279,1.9279,1.9279,1.9279,1.9279,1.9279,1.9279,1.9279,1.9279,1.9279,1.9279,1.9279,1.9279,1.9279,1.9279,1.9279,1.9279,1.9279,1.9279,1.9279,1.9279,1.9279,1.9279,1.9279,1.9279,1.9279,1.9279,1.9279,1.9279,1.9279,1.9279,1.9279,1.9279,1.9279,1.9279,1.9279,1.9279,1.9279,1.9279,1.9279,1.9279,1.9279,1.9279,1.9279,1.9279,1.9279,1.9279,1.9279,1.9175,1.9078]},{"header":{"parameterUnit":"m.s-1","parameterCategory":1,"la1":30.6,"la2":28.766,"lo1":-90.7593,"lo2":-88.6598,"dy":0.0162,"dx":0.0183,"nx":116,"ny":114,"refTime":"2023-06-04T12:00:00:Z","depth":0,"parameterNumber":3,"parameterNumberName":"V-component_of_WINDS"},"data":[0.0,0.0,0.0,0.0,0.0,0.0,0.0,0.0,0.0,0.0,0.0,0.0,0.0,0.0,0.0,0.0,0.0,0.0,0.0,0.0,0.0,0.0,0.0,0.0,0.0,0.0,0.0,0.0,0.0,0.0,0.0,0.0,0.0,0.0,0.0,0.0,0.0,0.0,0.0,0.0,0.0,0.0,0.0,0.0,0.0,0.0,0.0,0.0,0.0,0.0,0.0,0.0,0.0,0.0,0.0,0.0,0.0,0.0,0.0,0.0,0.0,0.0,0.0,0.0,0.0,0.0,0.0,0.0,0.0,0.0,0.0,0.0,0.0,0.0,0.0,0.0,0.0,0.0,0.0,0.0,0.0,0.0,0.0,0.0,0.0,0.0,0.0,0.0,0.0,0.0,0.0,0.0,0.0,0.0,0.0,0.0,0.0,0.0,0.0,0.0,0.0,0.0,0.0,0.0,0.0,0.0,0.0,0.0,0.0,0.0,0.0,0.0,0.0,0.0,0.0,0.0,0.0,0.0,0.0,0.0,0.0,0.0,0.0,0.0,0.0,0.0,0.0,0.0,0.0,0.0,0.0,0.0,0.0,0.0,0.0,0.0,0.0,0.0,0.0,0.0,0.0,0.0,0.0,0.0,0.0,0.0,0.0,0.0,0.0,0.0,0.0,0.0,0.0,0.0,0.0,0.0,0.0,0.0,0.0,0.0,0.0,0.0,0.0,0.0,0.0,0.0,0.0,0.0,0.0,0.0,0.0,0.0,0.0,0.0,0.0,0.0,0.0,0.0,0.0,0.0,0.0,0.0,0.0,0.0,0.0,0.0,0.0,0.0,0.0,0.0,0.0,0.0,0.0,0.0,0.0,0.0,0.0,0.0,0.0,0.0,0.0,0.0,0.0,0.0,0.0,0.0,0.0,0.0,0.0,0.0,0.0,0.0,0.0,0.0,0.0,0.0,0.0,0.0,0.0,0.0,0.0,0.0,0.0,0.0,0.0,0.0,0.0,0.0,0.0,0.0,0.0,0.0,0.0,0.0,0.0,0.0,0.0,0.0,0.0,0.0,0.0,0.0,0.0,0.0,0.0,0.0,0.0,0.0,0.0,0.0,0.0,0.0,0.0,0.0,0.0,0.0,0.0,0.0,0.0,0.0,0.0,0.0,0.0,0.0,0.0,0.0,0.0,0.0,0.0,0.0,0.0,0.0,0.0,0.0,0.0,0.0,0.0,0.0,0.0,0.0,0.0,0.0,0.0,0.0,0.0,0.0,0.0,0.0,0.0,0.0,0.0,0.0,0.0,0.0,0.0,0.0,0.0,0.0,0.0,0.0,0.0,0.0,0.0,0.0,0.0,0.0,0.0,0.0,0.0,0.0,0.0,0.0,0.0,0.0,0.0,0.0,0.0,0.0,0.0,0.0,0.0,0.0,0.0,0.0,0.0,0.0,0.0,0.0,0.0,0.0,0.0,0.0,0.0,0.0,0.0,0.0,0.0,0.0,0.0,0.0,0.0,0.0,0.0,0.0,0.0,0.0,0.0,0.0,0.0,0.0,0.0,0.0,0.0,0.0,0.0,0.0,0.0,0.0,0.0,0.0,0.0,0.0,0.0,0.0,0.0,0.0,0.0,0.0,0.0,0.0,0.0,0.0,0.0,0.0,0.0,0.0,0.0,0.0,0.0,0.0,0.0,0.0,0.0,0.0,0.0,0.0,0.0,0.0,0.0,0.0,0.0,0.0,0.0,0.0,0.0,0.0,0.0,0.0,0.0,0.0,0.0,0.0,0.0,0.0,0.0,0.0,0.0,0.0,0.0,0.0,0.0,0.0,0.0,0.0,0.0,0.0,0.0,0.0,0.0,0.0,0.0,0.0,0.0,0.0,0.0,0.0,0.0,0.0,0.0,0.0,0.0,0.0,0.0,0.0,0.0,0.0,0.0,0.0,0.0,0.0,0.0,0.0,0.0,0.0,0.0,0.0,0.0,0.0,0.0,0.0,0.0,0.0,0.0,0.0,0.0,0.0,0.0,0.0,0.0,0.0,0.0,0.0,0.0,0.0,0.0,0.0,0.0,0.0,0.0,0.0,0.0,0.0,0.0,0.0,0.0,0.0,0.0,0.0,0.0,0.0,0.0,0.0,0.0,0.0,0.0,0.0,0.0,0.0,0.0,0.0,0.0,0.0,0.0,0.0,0.0,0.0,0.0,0.0,0.0,0.0,0.0,0.0,0.0,0.0,0.0,0.0,0.0,0.0,0.0,0.0,0.0,0.0,0.0,0.0,0.0,0.0,0.0,0.0,0.0,0.0,0.0,0.0,0.0,0.0,0.0,0.0,0.0,0.0,0.0,0.0,0.0,0.0,0.0,0.0,0.0,0.0,0.0,0.0,0.0,0.0,0.0,0.0,0.0,0.0,0.0,0.0,0.0,0.0,0.0,0.0,0.0,0.0,0.0,0.0,0.0,0.0,0.0,0.0,0.0,0.0,0.0,0.0,0.0,0.0,0.0,0.0,0.0,0.0,0.0,0.0,0.0,0.0,0.0,0.0,0.0,0.0,0.0,0.0,0.0,0.0,0.0,0.0,0.0,0.0,0.0,0.0,0.0,0.0,0.0,0.0,0.0,0.0,0.0,0.0,0.0,0.0,0.0,0.0,0.0,0.0,0.0,0.0,0.0,0.0,0.0,0.0,0.0,0.0,0.0,0.0,0.0,0.0,0.0,0.0,0.0,0.0,0.0,0.0,0.0,0.0,0.0,0.0,0.0,0.0,0.0,0.0,0.0,0.0,0.0,0.0,0.0,0.0,0.0,0.0,0.0,0.0,0.0,0.0,0.0,0.0,0.0,0.0,0.0,0.0,0.0,0.0,0.0,0.0,0.0,0.0,0.0,0.0,0.0,0.0,0.0,0.0,0.0,0.0,0.0,0.0,0.0,0.0,0.0,0.0,0.0,0.0,0.0,0.0,0.0,0.0,0.0,0.0,0.0,0.0,0.0,0.0,0.0,0.0,0.0,0.0,0.0,0.0,0.0,0.0,0.0,0.0,0.0,0.0,0.0,0.0,0.0,0.0,0.0,0.0,0.0,0.0,0.0,0.0,0.0,0.0,0.0,0.0,0.0,0.0,0.0,0.0,0.0,0.0,0.0,0.0,0.0,0.0,0.0,0.0,0.0,0.0,0.0,0.0,0.0,0.0,0.0,0.0,0.0,0.0,0.0,0.0,0.0,0.0,0.0,0.0,0.0,0.0,0.0,0.0,0.0,0.0,0.0,0.0,0.0,0.0,0.0,0.0,0.0,0.0,0.0,0.0,0.0,0.0,0.0,0.0,0.0,0.0,0.0,0.0,0.0,0.0,0.0,0.0,0.0,0.0,0.0,0.0,0.0,0.0,0.0,0.0,0.0,0.0,0.0,0.0,0.0,0.0,0.0,0.0,0.0,0.0,0.0,0.0,0.0,0.0,0.0,0.0,0.0,0.0,0.0,0.0,0.0,0.0,0.0,0.0,0.0,0.0,0.0,0.0,0.0,0.0,0.0,0.0,0.0,0.0,0.0,0.0,0.0,0.0,0.0,0.0,0.0,0.0,0.0,0.0,0.0,0.0,0.0,0.0,0.0,0.0,0.0,0.0,0.0,0.0,0.0,0.0,0.0,0.0,0.0,0.0,0.0,0.0,0.0,0.0,0.0,0.0,0.0,0.0,0.0,0.0,0.0,0.0,0.0,0.0,0.0,0.0,0.0,0.0,0.0,0.0,0.0,0.0,0.0,0.0,0.0,0.0,0.0,0.0,0.0,0.0,0.0,0.0,0.0,0.0,0.0,0.0,0.0,0.0,0.0,0.0,0.0,0.0,0.0,0.0,0.0,0.0,0.0,0.0,0.0,0.0,0.0,0.0,0.0,0.0,0.0,0.0,0.0,0.0,0.0,0.0,0.0,0.0,0.0,0.0,0.0,0.0,0.0,0.0,0.0,0.0,0.0,0.0,0.0,0.0,0.0,0.0,0.0,0.0,0.0,0.0,0.0,0.0,0.0,0.0,0.0,0.0,0.0,0.0,0.0,0.0,0.0,0.0,0.0,0.0,0.0,0.0,0.0,0.0,0.0,0.0,0.0,0.0,0.0,0.0,0.0,0.0,0.0,0.0,0.0,0.0,0.0,0.0,0.0,0.0,0.0,0.0,0.0,0.0,0.0,0.0,0.0,0.0,0.0,0.0,0.0,0.0,0.0,0.0,0.0,0.0,0.0,0.0,0.0,0.0,0.0,0.0,0.0,0.0,0.0,0.0,0.0,0.0,0.0,0.0,0.0,0.0,0.0,0.0,0.0,0.0,0.0,0.0,0.0,0.0,0.0,0.0,0.0,0.0,0.0,0.0,0.0,0.0,0.0,0.0,0.0,0.0,0.0,0.0,0.0,0.0,0.0,0.0,0.0,0.0,0.0,0.0,0.0,0.0,0.0,0.0,0.0,0.0,0.0,0.0,0.0,0.0,0.0,0.0,0.0,0.0,0.0,0.0,0.0,0.0,0.0,0.0,0.0,0.0,0.0,0.0,0.0,0.0,0.0,0.0,0.0,0.0,0.0,0.0,0.0,0.0,0.0,0.0,0.0,0.0,0.0,0.0,0.0,0.0,0.0,0.0,0.0,0.0,0.0,0.0,0.0,0.0,0.0,0.0,0.0,0.0,0.0,0.0,0.0,0.0,0.0,0.0,0.0,0.0,0.0,0.0,0.0,0.0,0.0,0.0,0.0,0.0,0.0,0.0,0.0,0.0,0.0,0.0,0.0,0.0,0.0,0.0,0.0,0.0,0.0,0.0,0.0,0.0,0.0,0.0,0.0,0.0,0.0,0.0,0.0,0.0,0.0,0.0,0.0,0.0,0.0,0.0,0.0,0.0,0.0,0.0,0.0,0.0,0.0,0.0,0.0,0.0,0.0,0.0,0.0,0.0,0.0,0.0,0.0,0.0,0.0,0.0,0.0,0.0,0.0,0.0,0.0,0.0,0.0,0.0,0.0,0.0,0.0,0.0,0.0,0.0,0.0,0.0,0.0,0.0,0.0,0.0,0.0,0.0,0.0,0.0,0.0,0.0,0.0,0.0,0.0,0.0,0.0,0.0,0.0,0.0,0.0,0.0,0.0,0.0,0.0,0.0,0.0,0.0,0.0,0.0,0.0,0.0,0.0,0.0,0.0,0.0,0.0,0.0,0.0,0.0,0.0,0.0,0.0,0.0,0.0,0.0,0.0,0.0,0.0,0.0,0.0,0.0,0.0,0.0,0.0,0.0,0.0,0.0,0.0,0.0,0.0,0.0,0.0,0.0,0.0,0.0,0.0,0.0,0.0,0.0,0.0,0.0,0.0,0.0,0.0,0.0,0.0,0.0,0.0,0.0,0.0,0.0,0.0,0.0,0.0,0.0,0.0,0.0,0.0,0.0,0.0,0.0,0.0,0.0,0.0,0.0,0.0,0.0,0.0,0.0,0.0,0.0,0.0,0.0,0.0,0.0,0.0,0.0,0.0,0.0,0.0,0.0,0.0,0.0,0.0,0.0,0.0,0.0,0.0,0.0,0.0,0.0,0.0,0.0,0.0,0.0,0.0,0.0,0.0,0.0,0.0,0.0,0.0,0.0,0.0,0.0,0.0,0.0,0.0,0.0,0.0,0.0,0.0,0.0,0.0,0.0,0.0,0.0,0.0,0.0,0.0,0.0,0.0,0.0,0.0,0.0,0.0,0.0,0.0,0.0,0.0,0.0,0.0,0.0,0.0,0.0,0.0,0.0,0.0,0.0,0.0,0.0,0.0,0.0,0.0,0.0,0.0,0.0,0.0,0.0,0.0,0.0,0.0,0.0,0.0,0.0,0.0,0.0,0.0,0.0,0.0,0.0,0.0,0.0,0.0,0.0,0.0,0.0,0.0,0.0,0.0,0.0,0.0,0.0,0.0,0.0,0.0,0.0,0.0,0.0,0.0,0.0,0.0,0.0,0.0,0.0,0.0,0.0,0.0,0.0,0.0,0.0,0.0,0.0,0.0,0.0,0.0,0.0,0.0,0.0,0.0,0.0,0.0,0.0,0.0,0.0,0.0,0.0,0.0,0.0,0.0,0.0,0.0,0.0,-0.3562,0.0,0.0,0.0,0.0,0.0,0.0,0.0,0.0,0.0,0.0,0.0,0.0,0.0,0.0,0.0,0.0,0.0,0.0,0.0,0.0,0.0,0.0,0.0,0.0,0.0,0.0,0.0,0.0,0.0,0.0,0.0,0.0,0.0,0.0,0.0,0.0,0.0,0.0,0.0,-0.4558,-0.3895,-0.3099,-0.2646,-0.239,-0.2338,0.0,0.0,0.0,0.0,0.0,0.0,0.0,0.0,0.0,0.0,0.0,0.0,0.0,0.0,0.0,0.0,0.0,0.0,0.0,0.0,0.0,0.0,0.0,0.0,0.0,0.0,0.0,0.0,0.0,0.0,0.0,0.0,0.0,0.0,0.0,0.0,0.0,0.0,0.0,0.0,0.0,0.0,0.0,0.0,0.0,0.0,0.0,0.0,0.0,0.0,0.0,0.0,0.0,0.0,0.0,0.0,0.0,0.0,0.0,0.0,0.0,0.0,0.0,0.0,0.0,0.0,0.0,0.0,0.0,0.0,0.0,-0.3865,0.0,0.0,0.0,0.0,0.0,0.0,0.0,0.0,0.0,0.0,0.0,0.0,0.0,0.0,0.0,0.0,0.0,0.0,0.0,0.0,0.0,0.0,0.0,0.0,-0.5699,-0.6395,-0.6398,-0.6707,0.0,0.0,0.0,0.0,0.0,0.0,0.0,0.0,0.0,-0.5237,-0.4905,-0.3917,-0.2405,-0.2414,-0.2395,-0.2352,-0.2398,0.0,0.0,0.0,0.0,0.0,0.0,0.0,0.0,0.0,0.0,0.0,0.0,0.0,0.0,0.0,0.0,0.0,0.0,0.0,0.0,0.0,0.0,0.0,0.0,0.0,0.0,0.0,0.0,0.0,0.0,0.0,0.0,0.0,0.0,0.0,0.0,0.0,0.0,0.0,0.0,0.0,0.0,0.0,0.0,0.0,0.0,0.0,0.0,0.0,0.0,0.0,0.0,0.0,0.0,0.0,0.0,0.0,0.0,0.0,0.0,0.0,0.0,0.0,-0.355,-0.3406,-0.332,-0.3028,-0.2963,-0.3047,-0.3368,-0.3736,-0.4073,-0.4584,0.0,0.0,0.0,0.0,0.0,0.0,0.0,0.0,0.0,0.0,0.0,0.0,0.0,0.0,0.0,0.0,0.0,0.0,0.0,0.0,0.0,-0.7249,-0.7249,-0.7326,-0.7326,-0.7403,-0.7484,0.0,0.0,0.0,0.0,0.0,0.0,-0.6784,-0.624,-0.6009,-0.4594,-0.33,-0.2347,-0.2397,-0.2416,-0.2409,-0.2416,-0.2416,-0.2411,0.0,0.0,0.0,0.0,0.0,0.0,0.0,0.0,0.0,0.0,0.0,0.0,0.0,0.0,0.0,0.0,0.0,0.0,0.0,0.0,0.0,0.0,0.0,0.0,0.0,0.0,0.0,0.0,0.0,0.0,0.0,0.0,0.0,0.0,0.0,0.0,0.0,0.0,0.0,0.0,0.0,-0.4683,-0.5082,0.0,0.0,0.0,0.0,0.0,0.0,0.0,0.0,0.0,0.0,0.0,0.0,0.0,-0.5315,-0.4968,-0.4528,-0.4088,-0.3646,-0.3213,-0.2952,-0.2952,-0.296,-0.3142,-0.3497,-0.4009,0.0,-0.4263,-0.4791,0.0,0.0,0.0,0.0,0.0,0.0,0.0,0.0,0.0,0.0,0.0,0.0,0.0,0.0,0.0,0.0,0.0,0.0,0.0,0.0,0.0,-0.7096,-0.6784,-0.6784,-0.6318,-0.6318,-0.6707,-0.6784,0.0,0.0,0.0,-0.7249,-0.6784,-0.6395,-0.5774,-0.4841,-0.3641,-0.2841,-0.2435,-0.2459,-0.247,-0.247,-0.2703,-0.247,-0.2007,-0.3046,0.0,0.0,0.0,0.0,0.0,0.0,0.0,0.0,0.0,0.0,0.0,0.0,0.0,0.0,0.0,0.0,0.0,0.0,0.0,0.0,0.0,0.0,0.0,0.0,0.0,0.0,0.0,0.0,0.0,0.0,0.0,0.0,0.0,0.0,0.0,0.0,0.0,0.0,0.0,-0.4849,-0.5043,-0.4961,-0.517,-0.5368,0.0,0.0,0.0,0.0,0.0,0.0,0.0,0.0,0.0,-0.5651,-0.5654,-0.5409,-0.501,-0.5013,-0.4598,-0.3651,-0.4014,-0.3763,-0.3064,-0.3342,-0.3618,-0.3803,-0.4266,-0.4637,-0.4905,-0.5245,-0.5552,-0.5733,0.0,0.0,0.0,0.0,-0.5733,-0.5733,0.0,0.0,0.0,0.0,0.0,0.0,0.0,0.0,0.0,0.0,0.0,0.0,-0.7326,-0.6784,-0.6318,-0.624,-0.5622,-0.5622,-0.6318,-0.6395,0.0,0.0,0.0,-0.733,-0.6707,-0.624,-0.5151,-0.3443,-0.2821,-0.2511,-0.2511,-0.2511,-0.2511,-0.2511,-0.2904,-0.2668,-0.2038,-0.3215,-0.345,-0.329,0.0,0.0,0.0,0.0,0.0,0.0,0.0,0.0,0.0,0.0,0.0,0.0,0.0,0.0,0.0,0.0,0.0,0.0,0.0,0.0,0.0,0.0,0.0,0.0,0.0,0.0,0.0,0.0,0.0,0.0,0.0,0.0,0.0,0.0,0.0,0.0,0.0,-0.5142,-0.5162,-0.491,-0.5276,-0.5464,0.0,0.0,0.0,0.0,0.0,0.0,-0.573,-0.5733,-0.5746,-0.5776,-0.5776,-0.5607,-0.5272,-0.5549,-0.5045,-0.3916,-0.4562,-0.4315,-0.3333,-0.3711,-0.3996,-0.4282,-0.4664,-0.514,-0.5601,-0.5713,-0.5822,-0.582,-0.5787,-0.5776,-0.5773,-0.5744,-0.5733,-0.5733,0.0,0.0,0.0,0.0,0.0,0.0,0.0,0.0,0.0,0.0,0.0,-0.7326,-0.6942,-0.6861,-0.6707,-0.624,-0.6163,-0.6318,-0.6861,-0.6865,-0.7173,-0.7723,-0.7804,-0.7876,-0.8025,-0.6237,-0.4453,-0.2588,-0.2511,-0.2511,-0.2511,-0.2511,-0.2511,-0.2511,-0.2904,-0.3062,-0.3062,-0.3221,-0.361,-0.4157,-0.4238,0.0,0.0,0.0,0.0,0.0,0.0,0.0,0.0,0.0,0.0,0.0,0.0,0.0,0.0,0.0,0.0,0.0,0.0,0.0,0.0,0.0,0.0,0.0,0.0,0.0,0.0,0.0,0.0,0.0,0.0,0.0,0.0,0.0,0.0,0.0,0.0,0.0,0.0,-0.5454,-0.5558,0.0,0.0,0.0,0.0,-0.5725,-0.5725,-0.5727,-0.5733,-0.5733,-0.5782,-0.589,-0.5893,-0.595,-0.6067,-0.5598,-0.5128,-0.4565,-0.4182,-0.3898,-0.3901,-0.3901,-0.4377,-0.5329,-0.5329,-0.5613,-0.6086,-0.6072,-0.6067,-0.6056,-0.5939,-0.5893,-0.5882,-0.5773,-0.5733,-0.5733,0.0,0.0,0.0,0.0,0.0,0.0,0.0,0.0,-0.7804,-0.7723,-0.733,-0.7096,-0.6942,-0.5931,-0.5467,-0.5928,-0.5309,-0.5464,-0.6784,-0.6865,-0.7176,-0.7804,-0.7953,-0.7484,-0.6314,-0.4453,-0.3132,-0.2511,-0.2511,-0.2511,-0.2511,-0.2511,-0.2668,-0.2904,-0.3374,-0.3684,-0.3919,-0.3997,-0.3917,-0.3756,-0.4467,-0.4862,0.0,0.0,0.0,0.0,0.0,0.0,0.0,0.0,0.0,0.0,0.0,0.0,0.0,0.0,0.0,0.0,0.0,0.0,0.0,0.0,0.0,0.0,0.0,0.0,0.0,0.0,0.0,0.0,0.0,0.0,0.0,0.0,0.0,0.0,0.0,0.0,0.0,-0.5579,-0.5706,0.0,-0.5733,-0.5733,-0.5733,-0.5733,-0.5801,-0.5841,-0.5841,-0.5918,-0.5977,-0.6021,-0.6021,-0.6043,-0.6086,-0.5897,-0.5648,-0.5142,-0.5333,-0.5072,-0.4443,-0.4835,-0.523,-0.5527,-0.5527,-0.5821,-0.6312,-0.6312,-0.6222,-0.6081,-0.6037,-0.6021,-0.6015,-0.5975,-0.5961,-0.5961,0.0,0.0,0.0,0.0,0.0,0.0,0.0,0.0,-0.8106,-0.825,-0.7714,-0.7249,-0.7096,-0.6086,-0.5622,-0.616,-0.5541,-0.5619,-0.7019,-0.7096,-0.7407,-0.7953,-0.7868,-0.6857,-0.4919,-0.3679,-0.2899,-0.2511,-0.2511,-0.2511,-0.2511,-0.2511,-0.2746,-0.3141,-0.3608,-0.3995,-0.4384,-0.4543,-0.4382,-0.3988,-0.4701,-0.5018,-0.5021,0.0,0.0,0.0,0.0,0.0,0.0,0.0,0.0,0.0,0.0,0.0,0.0,0.0,0.0,0.0,0.0,0.0,0.0,0.0,0.0,0.0,0.0,0.0,0.0,0.0,0.0,0.0,0.0,0.0,0.0,0.0,0.0,0.0,0.0,0.0,-0.5733,-0.5733,-0.5733,-0.5749,-0.5787,-0.579,-0.5809,-0.585,-0.5923,-0.5964,-0.5964,-0.6043,-0.6105,-0.6146,-0.6149,-0.6165,-0.6203,-0.6203,-0.5953,-0.5536,-0.5932,-0.5671,-0.5033,-0.5436,-0.5737,-0.5837,-0.5837,-0.6037,-0.6437,-0.6437,-0.6344,-0.62,-0.6162,-0.6149,-0.6143,-0.6102,-0.6086,-0.6086,0.0,0.0,0.0,0.0,0.0,0.0,0.0,-0.8927,-0.8627,-0.9221,-0.8627,-0.7949,-0.7561,-0.748,-0.7326,-0.6942,-0.6942,-0.7096,-0.7484,-0.7561,-0.7791,-0.8327,-0.7548,-0.6157,-0.4146,-0.4068,-0.3522,-0.2511,-0.2511,-0.2511,-0.2511,-0.2511,-0.2746,-0.3141,-0.3608,-0.4075,-0.4462,-0.4859,-0.5018,-0.5018,-0.5018,-0.5023,-0.5029,0.0,0.0,0.0,0.0,0.0,0.0,0.0,0.0,0.0,0.0,0.0,0.0,0.0,0.0,0.0,0.0,0.0,0.0,0.0,0.0,0.0,0.0,0.0,0.0,0.0,0.0,0.0,0.0,0.0,0.0,0.0,0.0,0.0,-0.5733,-0.5735,-0.5738,-0.5738,-0.5741,-0.5787,-0.5896,-0.5909,-0.5958,-0.6078,-0.6089,-0.6092,-0.6092,-0.6094,-0.6151,-0.6271,-0.6274,-0.6325,-0.6434,-0.6437,-0.6134,-0.5636,-0.5636,-0.5636,-0.5636,-0.5639,-0.5942,-0.6442,-0.6445,-0.6448,-0.6448,-0.6448,-0.6448,-0.6437,-0.632,-0.6274,-0.626,-0.614,-0.6097,-0.6097,0.0,0.0,0.0,0.0,0.0,0.0,0.0,-0.982,-0.9296,-0.9523,-0.847,-0.7638,-0.7484,-0.6938,-0.6857,-0.7476,-0.7318,-0.7472,-0.8318,-0.8399,-0.8089,-0.7548,-0.5767,-0.453,-0.4146,-0.3368,-0.2823,-0.2511,-0.2511,-0.2511,-0.2511,-0.2826,-0.3139,-0.3606,-0.4075,-0.4465,-0.4859,-0.4937,-0.5018,-0.5018,-0.5018,-0.5018,-0.5021,0.0,0.0,0.0,0.0,0.0,0.0,0.0,0.0,0.0,0.0,0.0,0.0,0.0,0.0,0.0,0.0,0.0,0.0,0.0,0.0,0.0,0.0,0.0,0.0,0.0,0.0,0.0,0.0,0.0,0.0,0.0,0.0,-0.5828,-0.5744,-0.5803,-0.5855,-0.5855,-0.5934,-0.6002,-0.6032,-0.6034,-0.6048,-0.6083,-0.6168,-0.6219,-0.6219,-0.6295,-0.6355,-0.6388,-0.6391,-0.6404,-0.6437,-0.6437,-0.6337,-0.6137,-0.6137,-0.6137,-0.6139,-0.6324,-0.6363,-0.6575,-0.6662,-0.6703,-0.6703,-0.6703,-0.6703,-0.6681,-0.6472,-0.6391,-0.6385,-0.6352,-0.6339,-0.6339,0.0,0.0,0.0,0.0,0.0,0.0,0.0,-1.0426,-0.983,-1.0201,-0.8922,-0.8016,-0.8016,-0.7548,-0.7472,-0.8089,-0.7931,-0.8084,-0.8627,-0.8318,-0.7391,-0.6002,-0.4608,-0.3756,-0.3444,-0.2823,-0.2511,-0.2511,-0.2511,-0.2511,-0.2511,-0.2904,-0.3374,-0.3841,-0.4229,-0.4621,-0.5018,-0.5018,-0.5018,-0.5018,-0.5018,-0.5018,-0.5018,-0.5018,-0.5018,-0.5018,-0.5018,-0.5018,-0.5018,-0.5018,0.0,0.0,0.0,0.0,0.0,0.0,0.0,0.0,0.0,0.0,0.0,0.0,0.0,0.0,0.0,0.0,0.0,0.0,0.0,0.0,0.0,0.0,0.0,0.0,-0.5901,-0.5956,-0.589,-0.5937,-0.5977,-0.5977,-0.6043,-0.6105,-0.6157,-0.6162,-0.6181,-0.6227,-0.6298,-0.6339,-0.6339,-0.6401,-0.6437,-0.6437,-0.6437,-0.6437,-0.6437,-0.6486,-0.6513,-0.6513,-0.6564,-0.6589,-0.6592,-0.6662,-0.6695,-0.67,-0.6771,-0.6801,-0.6801,-0.6801,-0.6801,-0.6787,0.0,0.0,0.0,0.0,-0.6556,-0.6513,0.0,0.0,0.0,0.0,0.0,0.0,0.0,-1.1037,-1.0293,-1.1037,-0.9679,-0.8703,-0.8703,-0.8703,-0.8703,-0.8703,-0.8703,-0.8703,-0.8703,-0.7702,-0.6237,-0.4455,-0.4146,-0.3602,-0.2668,-0.2589,-0.2592,-0.2599,-0.252,-0.2523,-0.2609,-0.3005,-0.3474,-0.3934,-0.4325,-0.4711,-0.5018,-0.5018,-0.5018,-0.5018,-0.5018,-0.5018,-0.5018,-0.5018,-0.5018,-0.5018,-0.5018,-0.5026,-0.5037,-0.5037,0.0,0.0,0.0,0.0,0.0,0.0,0.0,0.0,0.0,0.0,0.0,0.0,0.0,0.0,0.0,0.0,0.0,0.0,0.0,0.0,0.0,0.0,0.0,0.0,-0.6213,-0.6295,-0.6295,-0.6306,-0.6214,-0.6108,-0.6211,-0.6359,-0.6471,-0.6482,-0.6426,-0.6528,-0.6437,-0.6437,-0.6437,0.0,0.0,0.0,0.0,-0.6762,-0.6776,-0.689,-0.6947,-0.6947,-0.7061,-0.7118,-0.7118,-0.7132,-0.7137,-0.714,-0.7152,-0.7054,-0.6948,-0.6948,-0.6948,-0.6839,-0.6812,-0.6801,-0.6801,-0.6801,-0.6733,-0.6641,0.0,0.0,0.0,0.0,0.0,0.0,0.0,-1.1929,-1.0887,-1.1111,-0.9679,-0.8703,-0.8703,-0.8703,-0.8703,-0.8703,-0.8703,-0.8703,-0.8703,-0.7242,-0.624,-0.5777,-0.4538,-0.3763,-0.3528,-0.3217,-0.301,-0.3063,-0.2744,-0.277,-0.3235,-0.3645,-0.402,-0.4433,-0.4831,-0.5023,-0.5018,-0.5018,-0.5018,-0.5018,-0.5018,-0.5018,-0.5018,-0.5018,-0.5018,-0.5018,-0.5018,-0.5075,-0.5154,-0.5154,-0.5235,-0.5333,-0.5333,-0.5349,0.0,0.0,0.0,0.0,0.0,0.0,0.0,0.0,0.0,0.0,0.0,0.0,0.0,0.0,0.0,0.0,0.0,0.0,0.0,-0.7079,-0.7098,-0.7186,-0.7186,-0.728,-0.7021,-0.6341,-0.6899,-0.7362,-0.739,-0.7394,-0.7304,-0.7332,-0.6734,-0.6437,-0.6437,-0.7033,-0.7485,-0.7601,-0.8204,-0.867,-0.8802,-0.8834,-0.8852,-0.8852,-0.888,0.0,-0.8902,-0.903,-0.909,-0.9094,-0.9215,-0.8835,-0.8185,-0.8185,-0.7746,-0.7067,-0.6877,-0.6801,-0.6801,-0.6801,-0.6787,-0.6766,0.0,0.0,0.0,0.0,0.0,0.0,0.0,-1.2452,-1.1558,-1.1186,-1.0062,-0.916,-0.878,-0.8703,-0.8703,-0.8703,-0.8703,-0.847,-0.8008,-0.7165,-0.6468,-0.5925,-0.5151,-0.4688,-0.4688,-0.4277,-0.3928,-0.373,-0.3447,-0.3406,-0.3444,-0.4028,-0.4423,-0.4705,-0.5115,-0.5214,-0.5102,-0.5102,-0.5069,-0.5018,-0.5018,-0.5018,-0.5018,-0.5018,-0.5053,-0.5102,-0.5102,-0.5178,-0.5279,-0.5279,-0.536,-0.5461,-0.5461,-0.5502,-0.5648,0.0,0.0,0.0,0.0,0.0,0.0,0.0,0.0,0.0,0.0,0.0,0.0,0.0,0.0,-0.7105,0.0,0.0,-0.8266,-0.7505,-0.7821,-0.8014,-0.7622,-0.7882,-0.7902,-0.7048,-0.769,-0.8028,-0.763,-0.7928,-0.8062,-0.7733,-0.7737,-0.7762,-0.7942,-0.8252,-0.8593,-0.8674,-0.9087,-0.9331,-0.9418,-0.9504,-0.9546,-0.9546,-0.9518,-0.9555,-0.9559,-0.9641,-0.9682,-0.9686,-0.9329,-0.914,-0.914,-0.8706,-0.7931,-0.7143,-0.7024,-0.6978,-0.6978,-0.6978,-0.6942,-0.6893,0.0,0.0,0.0,0.0,0.0,0.0,0.0,-1.2826,-1.2077,-1.1409,-1.0663,-0.9911,-0.9231,-0.9155,-0.9079,-0.8932,-0.8932,-0.8546,-0.7548,-0.7395,-0.6927,-0.6073,-0.5918,-0.5841,-0.5841,-0.543,-0.5028,-0.4646,-0.4421,-0.4229,-0.391,-0.4507,-0.4753,-0.49,-0.5236,-0.5336,-0.5219,-0.5197,-0.5135,-0.5048,-0.5026,-0.5018,-0.5018,-0.5018,-0.5089,-0.5186,-0.5186,-0.5281,-0.5404,-0.5404,-0.5571,-0.5757,-0.5586,-0.5739,-0.5994,-0.6605,-0.6432,0.0,0.0,0.0,0.0,0.0,0.0,0.0,0.0,0.0,-0.7096,-0.7214,-0.7894,-0.8381,-0.8381,-0.9088,-0.9397,-0.8139,-0.8539,-0.8825,-0.8127,-0.8649,-0.887,-0.8168,-0.8641,-0.8836,-0.8168,-0.867,-0.894,-0.8494,-0.8907,-0.9271,-0.941,-0.9526,-0.9642,-0.9677,-0.9886,-0.9902,-0.9937,-1.0079,-1.015,-1.015,-1.0284,-1.0347,-1.0347,-1.0347,-1.0347,-1.0237,-0.9364,-0.9364,-1.0021,-0.914,-0.8371,-0.7706,-0.7706,-0.7706,-0.7706,-0.7376,-0.7097,-0.7018,0.0,0.0,0.0,0.0,0.0,0.0,0.0,0.0,-1.2305,-1.215,-1.1484,-1.0962,-1.0812,-1.0812,-1.0513,-0.9841,-0.9765,-0.9387,-0.8623,-0.8012,-0.7706,-0.7548,-0.7011,-0.6784,-0.6784,-0.6462,-0.6361,-0.6325,-0.5537,-0.5397,-0.5764,-0.5237,-0.5102,-0.5446,-0.5446,-0.5464,-0.5341,-0.5233,-0.5178,-0.5159,-0.5059,-0.5018,-0.5018,-0.5018,-0.5089,-0.5186,-0.5186,-0.5336,-0.5529,-0.5529,-0.604,-0.658,-0.5885,-0.6157,-0.6691,-0.6779,0.0,-0.7746,-0.8448,-0.8627,-0.854,-0.7921,-0.7394,-0.7255,0.0,0.0,-0.7305,-0.8177,-0.843,-0.8549,-0.8549,-0.9368,-0.9887,-0.9788,-0.9809,-0.9821,-0.9719,-0.9954,-1.0054,-1.0054,-0.9917,-0.9884,-1.0037,-1.0054,-1.0132,-1.0319,-0.9704,-0.9399,-0.9418,-1.0052,-1.0544,-1.0703,-1.146,-1.1866,-1.2041,-1.2064,-1.2077,-1.2077,-1.2096,-1.211,-1.211,-1.211,-1.211,-1.211,-1.1236,-1.0907,-1.0907,-1.0021,-0.9578,-0.9467,-0.9467,-0.9467,-0.9357,-0.7817,-0.7146,-0.7135,0.0,0.0,0.0,0.0,0.0,0.0,0.0,0.0,0.0,-1.2378,-1.2003,-1.1632,-1.1186,-1.1111,-1.0962,-1.0663,-1.0143,-0.9771,-0.9387,-0.8699,-0.8318,-0.8318,-0.8089,-0.7936,-0.7936,-0.7572,-0.7213,-0.7042,-0.6615,-0.6217,-0.5849,-0.5766,-0.5658,-0.5445,-0.5445,-0.5377,-0.526,-0.5208,-0.5148,-0.5083,-0.5037,-0.5018,-0.5015,-0.5401,-0.5683,-0.5864,-0.5864,-0.6033,0.0,-0.6692,-0.6819,-0.6779,-0.6871,-0.6868,-0.6953,-0.7746,-0.7921,0.0,-0.8715,-0.889,-0.889,0.0,-0.8975,-0.8812,-0.88,-0.8698,-0.8577,-0.8551,-0.8991,-0.9409,-0.9409,-1.016,-1.0507,0.0,-1.0413,-1.0547,-1.0262,-1.0646,-1.1047,-1.116,-1.1101,-1.0879,-1.0548,-1.0865,-1.1048,-1.0822,-1.0944,-1.0992,-1.11,-1.1429,-1.1684,-1.1765,-1.2098,-1.2356,-1.2441,-1.2441,-1.2441,-1.2441,-1.2441,-1.2441,-1.2441,-1.2441,-1.211,-1.1673,-1.1782,-1.1232,-1.0351,-1.046,-1.0241,-0.9798,-0.9798,-0.9798,-0.9688,-0.9027,-0.8367,-0.7931,0.0,0.0,0.0,0.0,0.0,0.0,0.0,0.0,0.0,0.0,-1.2599,-1.2378,-1.1855,-1.1781,-1.1706,-1.1484,-1.0663,-1.0143,-0.9922,-0.916,-0.8703,-0.8703,-0.8703,-0.8703,-0.8703,-0.8438,-0.8145,-0.7744,-0.7589,-0.7094,-0.6354,-0.6519,-0.6274,-0.5862,-0.5862,-0.5809,-0.5716,-0.5681,-0.5615,-0.5529,-0.5494,-0.5556,-0.5556,-0.6015,-0.6354,-0.6688,-0.6688,-0.6878,-0.7129,-0.7658,-0.757,-0.7394,-0.7746,-0.757,-0.757,-0.8627,-0.8627,-0.8536,-0.9065,0.0,0.0,-0.9934,-1.0065,-0.9935,-0.9679,-0.9729,-0.9648,-0.9405,-0.982,-1.0314,-1.0314,-1.0806,-1.0998,-1.0413,-1.0806,-1.1072,-1.0668,-1.1152,-1.1676,-1.1883,-1.1954,-1.1782,-1.1146,-1.1517,-1.1672,-1.1335,-1.1898,-1.2285,-1.2432,-1.2441,-1.2441,-1.2441,-1.2441,-1.2441,-1.2441,-1.2441,-1.2441,-1.2441,-1.2441,-1.2441,-1.2441,-1.2441,-1.211,-1.1455,-1.211,-1.1669,-1.0566,-1.1232,-1.1122,-1.0566,-1.0566,-1.0566,-1.0785,-1.0785,-1.0017,-0.914,0.0,0.0,0.0,0.0,0.0,0.0,0.0,0.0,0.0,0.0,0.0,0.0,0.0,-1.3419,-1.3119,-1.2305,-1.1558,-1.0738,-0.9916,-0.916,-0.8703,-0.8703,-0.8703,-0.8703,-0.8703,-0.8911,-0.8946,-0.8946,-0.8491,-0.825,-0.8168,-0.751,-0.7177,-0.7177,-0.7177,-0.7177,-0.7159,-0.7013,-0.6947,-0.6929,-0.685,-0.6861,-0.6865,-0.6865,-0.7066,-0.7349,-0.7349,-0.7558,-0.7746,-0.7834,-0.8273,-0.8715,-0.8009,-0.8273,0.0,-0.889,-0.9419,-0.9951,0.0,0.0,-1.0003,-1.0211,-0.9723,-0.9548,-1.0594,-1.0305,-1.0075,-1.0947,-1.1091,-1.1194,-1.1194,-1.1194,-1.1194,-1.1194,-1.1194,-1.1269,-1.1487,-1.1685,-1.1888,-1.2106,-1.2304,-1.2422,0.0,-1.2135,-1.2107,-1.2304,-1.2432,-1.2432,-1.2441,-1.2441,-1.2441,-1.2441,-1.2441,-1.2441,-1.2441,-1.2441,-1.2441,-1.2441,-1.2441,-1.2441,-1.2441,-1.2441,-1.2436,-1.2332,-1.2436,-1.2332,-1.2327,-1.2327,-1.2327,-1.2332,-1.2332,-1.2659,-1.3207,-1.3207,-1.2105,-1.0672,0.0,0.0,0.0,0.0,0.0,0.0,0.0,0.0,0.0,0.0,0.0,0.0,0.0,0.0,0.0,0.0,-1.2378,-1.1781,-1.1484,-1.0212,-0.9463,-0.9463,-0.9008,-0.8703,-0.8703,-0.8774,-0.8812,-0.8812,-0.864,-0.836,-0.7969,-0.7733,-0.7419,-0.7025,-0.7025,-0.7025,-0.7021,-0.6969,-0.6947,-0.6939,-0.6887,-0.6865,-0.6938,-0.7322,-0.7699,-0.809,0.0,-0.8573,-0.8623,-0.9065,-0.9065,-0.8978,-0.9157,-0.9065,-0.8978,-0.9506,-0.9777,-1.0038,-1.0038,0.0,-1.009,-1.022,-1.019,-1.0265,-1.0735,-1.0803,-1.0817,-1.1082,-1.1194,-1.1194,-1.1194,-1.1194,-1.1194,-1.1194,-1.1194,-1.1316,-1.1666,-1.1775,-1.1945,-1.2299,-1.2398,0.0,0.0,0.0,0.0,-1.2432,-1.2441,-1.2441,-1.2441,-1.2441,-1.2441,-1.2441,-1.2441,-1.2441,-1.2441,-1.2441,-1.2441,-1.2441,-1.2441,-1.2441,-1.2441,-1.2441,-1.2441,-1.2441,-1.2441,-1.2441,-1.2441,-1.2441,-1.2659,-1.2989,-1.2989,-1.3418,-1.3846,-1.3846,-1.3732,-1.3398,0.0,0.0,0.0,0.0,0.0,0.0,0.0,0.0,0.0,0.0,0.0,0.0,0.0,0.0,0.0,0.0,0.0,-1.2305,-1.2305,-1.1037,-1.0293,-1.0293,-0.9836,-0.9528,-0.9528,-0.9528,-0.9382,-0.916,-0.916,-0.8775,-0.8089,-0.8089,-0.7936,-0.7553,-0.7553,-0.7553,-0.7553,-0.7553,-0.7553,-0.7553,-0.7553,-0.7553,-0.7553,-0.8012,-0.8286,0.0,-0.9136,-0.9452,-0.9661,-0.9923,-0.9685,-0.9419,-0.9864,-0.9685,-0.9419,-0.9864,-1.0038,-1.0057,-1.0133,-1.0152,-1.0135,-1.0423,-1.0594,-1.0745,-1.0957,-1.1104,-1.1194,-1.1194,-1.1194,-1.1296,-1.1487,-1.1292,-1.1292,-1.1487,-1.1358,-1.143,-1.177,-1.1883,-1.2058,-1.2398,-1.2441,-1.2441,0.0,0.0,0.0,-1.2441,-1.2441,-1.2441,-1.2441,-1.2441,-1.2441,-1.2441,-1.2441,-1.2441,-1.2441,-1.2441,-1.2441,-1.2441,-1.2441,-1.2441,-1.2441,-1.2441,-1.2441,-1.2441,-1.2441,-1.2441,-1.2441,-1.2441,-1.2659,-1.2985,-1.2985,-1.331,-1.3851,-1.3851,-1.439,-1.4821,0.0,0.0,0.0,0.0,0.0,0.0,0.0,0.0,0.0,0.0,0.0,0.0,0.0,0.0,0.0,0.0,0.0,0.0,-1.2378,-1.1632,-1.1186,-1.1186,-1.1111,-1.1111,-1.1111,-1.1111,-1.0738,-0.9992,-0.9992,-0.9539,-0.8851,-0.8851,-0.8851,-0.8851,-0.8851,-0.8851,-0.8851,-0.8851,-0.8851,-0.8851,-0.8851,-0.8851,-0.8851,-0.8851,-0.8908,-0.9128,-0.9318,-1.0095,-1.091,-1.0221,-1.0038,-1.0038,-1.0038,-1.0038,-1.0038,-1.0038,-1.0038,-0.9998,-1.0216,-1.0272,-1.0371,-1.0792,-1.0896,-1.0948,-1.1151,-1.1194,-1.1194,-1.1194,-1.1194,-1.1389,0.0,0.0,-1.1389,-1.1883,-1.1667,-1.1576,-1.1789,-1.1992,-1.22,0.0,0.0,0.0,0.0,0.0,0.0,-1.2441,0.0,-1.2441,-1.2441,-1.2441,-1.2441,-1.2441,-1.2441,-1.2441,-1.2441,-1.2441,-1.2441,-1.2441,-1.2441,-1.2441,-1.2441,-1.2441,-1.2441,-1.2441,-1.2441,-1.2441,-1.2441,-1.2441,-1.2441,-1.2436,-1.2436,-1.2876,-1.3423,-1.3423,-1.4072,-1.5035,0.0,0.0,0.0,0.0,0.0,0.0,0.0,0.0,0.0,0.0,0.0,0.0,0.0,0.0,0.0,0.0,0.0,0.0,-1.3193,-1.2452,-1.2003,-1.2003,-1.1409,-1.1111,-1.1111,-1.1111,-1.1037,-1.0812,-1.0812,-1.0663,-1.0507,-1.0507,-1.0507,-1.0507,-1.0507,-1.0507,-1.0507,-1.0507,-1.0576,-1.0708,-1.0708,-1.0708,-1.0708,-1.0858,-1.0498,-1.0037,-1.0947,-1.1169,0.0,0.0,0.0,0.0,0.0,-1.0038,-1.0038,-1.0038,-1.0038,-0.9998,-1.0216,-1.0272,-1.0371,-1.0792,-1.0896,-1.0948,-1.1151,-1.1194,-1.1194,-1.1194,-1.1487,-1.1883,0.0,0.0,0.0,-1.198,-1.1634,0.0,-1.1765,-1.1865,0.0,-1.2398,0.0,-1.2441,-1.2441,-1.2441,0.0,0.0,-1.2441,-1.2441,-1.2441,-1.2441,-1.2441,-1.2441,-1.2441,-1.2441,-1.2441,-1.2441,-1.2441,-1.2441,-1.2441,-1.2441,-1.2441,-1.2441,-1.2441,-1.2441,-1.2441,-1.2441,-1.2441,-1.2441,-1.298,-1.3738,-1.3738,-1.4379,-1.5244,-1.5244,-1.5464,-1.5678,0.0,0.0,0.0,0.0,0.0,0.0,0.0,0.0,0.0,0.0,0.0,0.0,0.0,0.0,0.0,0.0,0.0,0.0,0.0,-1.3046,-1.282,-1.282,-1.2251,-1.1959,-1.1959,-1.1762,-1.1618,-1.1376,-1.1376,-1.1292,-1.1111,-1.1111,-1.1111,-1.1111,-1.1111,-1.118,-1.1248,-1.1248,-1.1316,0.0,0.0,-1.1527,-1.1527,-1.1675,-1.1328,-1.0948,-1.1756,0.0,0.0,0.0,0.0,-1.0038,-1.0038,-1.0038,-1.0038,-1.0038,0.0,-1.014,-1.0348,-1.0475,-1.0627,-1.0948,-1.1028,-1.1057,-1.117,-1.1194,-1.1292,-1.1487,-1.178,0.0,-1.2565,0.0,0.0,0.0,0.0,0.0,-1.1652,-1.1846,-1.2044,0.0,-1.2389,0.0,-1.2441,-1.2441,-1.255,0.0,-1.255,-1.255,-1.2767,-1.2767,-1.2767,-1.2767,-1.2767,-1.2659,-1.2441,-1.2441,-1.2441,-1.2441,-1.2441,-1.2441,-1.2441,-1.2441,-1.255,-1.2767,-1.2767,-1.2985,-1.3197,-1.3197,-1.363,-1.4169,-1.4169,-1.46,-1.5137,-1.5137,-1.5351,-1.5464,0.0,0.0,0.0,0.0,0.0,0.0,0.0,0.0,0.0,0.0,0.0,0.0,0.0,0.0,0.0,0.0,0.0,0.0,0.0,0.0,-1.371,-1.371,-1.3499,-1.3327,-1.3282,-1.2998,-1.2618,-1.215,-1.215,-1.1924,-1.1439,-1.155,-1.1495,-1.1354,-1.1533,-1.162,-1.1755,-1.1749,-1.1896,-1.2044,-1.2044,-1.2044,-1.2044,0.0,-1.197,0.0,0.0,0.0,0.0,0.0,-1.1382,-1.012,-1.0038,-1.0038,-1.0212,-1.0212,-1.019,-1.041,-1.0702,-1.0824,-1.0943,-1.1146,-1.1194,-1.1194,-1.1385,-1.1389,-1.1487,-1.2073,0.0,-1.2467,-1.3346,-1.2759,-1.237,-1.2764,0.0,-1.1587,-1.1515,-1.185,-1.2106,-1.2139,-1.2318,-1.2436,-1.255,-1.255,-1.2767,-1.3207,-1.2767,-1.2767,-1.3315,-1.3315,-1.3207,-1.3207,-1.3207,-1.2876,-1.2441,-1.2441,-1.2441,-1.2441,-1.2441,-1.255,-1.255,-1.255,-1.2876,-1.3423,-1.3423,-1.3743,-1.4169,-1.4169,-1.4277,-1.4277,-1.4277,-1.4385,-1.4385,-1.4385,-1.4708,-1.5143,0.0,0.0,0.0,0.0,0.0,0.0,0.0,0.0,0.0,0.0,-1.3855,-1.3645,0.0,0.0,0.0,0.0,0.0,0.0,0.0,0.0,0.0,-1.4689,-1.5051,-1.5088,-1.4728,-1.4653,-1.4437,-1.3998,-1.3998,-1.3688,-1.3067,-1.3968,-1.3762,-1.2742,-1.3769,-1.3897,-1.3411,-1.3542,-1.376,-1.3912,-1.3912,-1.3912,-1.3905,-1.4049,0.0,0.0,0.0,0.0,0.0,0.0,-1.2469,-1.0982,-1.0207,-1.0467,-1.1068,-1.1068,-1.0715,-1.0495,-1.1425,-1.1288,-1.0943,-1.1146,-1.1194,-1.1389,-1.2252,-1.2165,0.0,0.0,-1.3238,-1.3249,-1.3443,-1.3346,-1.3152,-1.2861,0.0,0.0,0.0,0.0,-1.194,0.0,0.0,0.0,0.0,0.0,0.0,0.0,-1.3207,-1.3207,-1.3315,-1.3315,-1.3098,-1.255,-1.255,-1.255,-1.2441,-1.2441,-1.2441,-1.2441,-1.2881,-1.3098,-1.3207,-1.363,-1.3954,-1.4062,-1.4062,-1.4062,-1.4169,-1.4169,-1.4493,-1.4821,-1.4821,-1.5143,-1.5571,-1.5571,-1.5672,-1.5785,0.0,0.0,0.0,0.0,0.0,0.0,0.0,-1.5534,-1.5886,-1.5455,-1.5321,-1.5046,-1.4418,-1.484,-1.5117,0.0,0.0,0.0,0.0,0.0,0.0,0.0,0.0,0.0,-1.484,-1.4644,0.0,0.0,0.0,-1.4185,-1.4049,-1.4605,-1.4555,-1.3898,-1.4872,-1.5108,-1.4932,-1.5238,-1.5525,-1.5683,-1.5267,-1.5133,0.0,0.0,0.0,0.0,0.0,0.0,0.0,0.0,-1.3166,-1.2422,-1.1112,-1.1322,-1.1912,-1.1408,-1.158,-1.1983,-1.1909,-1.1745,-1.1597,-1.1239,-1.1497,-1.2016,-1.2705,0.0,0.0,0.0,-1.4376,-1.4196,-1.449,0.0,0.0,0.0,0.0,0.0,0.0,0.0,0.0,0.0,0.0,0.0,0.0,0.0,0.0,-1.3743,-1.3743,-1.3635,-1.3315,-1.3315,-1.3207,-1.2876,-1.2881,-1.2881,-1.2881,-1.3197,-1.3305,-1.3305,-1.363,-1.3743,-1.3743,-1.4062,-1.4385,-1.4606,-1.4606,-1.4815,-1.503,-1.503,-1.5244,-1.5464,-1.5464,-1.5678,-1.5891,-1.5891,-1.5891,-1.5891,0.0,0.0,0.0,0.0,0.0,0.0,0.0,-1.6446,-1.7001,-1.6706,-1.6913,-1.6775,-1.5895,-1.6167,-1.6367,0.0,0.0,0.0,0.0,0.0,0.0,0.0,0.0,0.0,0.0,0.0,0.0,0.0,0.0,0.0,0.0,0.0,0.0,0.0,0.0,-1.573,-1.5766,-1.6278,-1.6587,0.0,0.0,-1.6035,0.0,0.0,0.0,0.0,0.0,0.0,0.0,0.0,-1.3908,-1.3892,-1.2428,-1.2378,-1.2851,-1.2089,-1.2592,-1.3219,-1.2587,-1.2498,-1.2444,-1.1778,-1.2199,-1.2903,-1.3475,-1.4226,0.0,0.0,-1.5609,-1.5235,-1.5622,0.0,0.0,0.0,0.0,0.0,0.0,0.0,0.0,0.0,0.0,0.0,0.0,0.0,0.0,-1.4702,-1.4487,-1.4056,-1.3527,-1.3532,-1.3532,-1.3532,-1.3532,-1.3532,-1.3532,-1.4164,-1.4482,-1.4482,-1.4798,-1.4905,-1.4905,-1.5018,-1.5345,-1.5779,-1.5779,-1.5992,-1.6418,-1.6418,-1.6311,-1.6205,-1.6205,-1.6099,-1.5891,-1.5891,-1.5891,-1.5891,0.0,0.0,0.0,0.0,0.0,0.0,0.0,-1.7001,-1.7619,-1.6932,-1.8027,-1.8586,-1.7823,-1.706,-1.6567,0.0,0.0,0.0,0.0,0.0,0.0,0.0,0.0,0.0,0.0,0.0,0.0,0.0,0.0,0.0,0.0,0.0,0.0,0.0,0.0,0.0,0.0,-1.5939,0.0,0.0,0.0,0.0,0.0,0.0,0.0,0.0,0.0,0.0,0.0,0.0,0.0,-1.4859,-1.4188,-1.3987,-1.3964,-1.388,0.0,0.0,-1.3931,-1.3671,-1.3235,-1.3173,-1.343,-1.3969,-1.5213,0.0,0.0,-1.6943,-1.6763,-1.6487,-1.6487,-1.6487,0.0,0.0,0.0,-1.4465,0.0,0.0,0.0,0.0,0.0,0.0,0.0,0.0,0.0,-1.6518,-1.5553,-1.4696,-1.4169,-1.4169,-1.4169,-1.4169,-1.4169,-1.4169,-1.4169,-1.49,-1.5316,-1.531,-1.6586,-1.7226,-1.7226,-1.7772,-1.7996,-1.8108,-1.8108,-1.8108,-1.8213,-1.8213,-1.7786,-1.7041,-1.7041,-1.6624,-1.5891,-1.5891,-1.5891,-1.5891,0.0,0.0,0.0,0.0,0.0,0.0,-1.707,-1.7969,-1.8586,-1.824,-1.8731,-1.8998,-1.8721,-1.8307,-1.8094,-1.8094,0.0,0.0,0.0,0.0,0.0,0.0,0.0,0.0,0.0,0.0,0.0,-1.6427,0.0,0.0,0.0,0.0,0.0,0.0,0.0,0.0,0.0,0.0,0.0,0.0,0.0,0.0,0.0,0.0,0.0,0.0,0.0,0.0,0.0,0.0,0.0,0.0,-1.5827,-1.5702,0.0,0.0,-1.4525,-1.4676,-1.4489,-1.4219,-1.3894,-1.3429,-1.3919,-1.4774,-1.5684,0.0,-1.7217,-1.8079,-1.7699,-1.7232,-1.7232,-1.7232,-1.7037,0.0,-1.6183,0.0,0.0,0.0,0.0,0.0,0.0,0.0,0.0,0.0,-1.673,-1.6935,-1.6704,-1.638,-1.6168,-1.4905,-1.4374,-1.49,-1.5227,-1.5654,-1.6168,-1.6817,-1.7239,-1.7239,-1.7772,-1.8087,-1.8087,-1.8311,-1.8422,-1.8422,-1.8422,-1.8422,-1.8422,-1.8422,-1.8206,-1.7891,-1.7891,-1.7681,-1.7364,-1.7364,-1.7364,-1.7364,0.0,0.0,0.0,0.0,0.0,-1.7139,-1.7901,-1.8654,-1.9075,-1.9075,-1.9075,-1.9075,-1.9075,-1.9075,-1.9075,-1.9075,-1.8654,0.0,0.0,0.0,0.0,0.0,0.0,0.0,0.0,0.0,-1.701,-1.6548,-1.6125,-1.5914,0.0,0.0,0.0,0.0,0.0,0.0,0.0,0.0,0.0,0.0,0.0,0.0,0.0,0.0,0.0,0.0,0.0,0.0,0.0,0.0,0.0,0.0,0.0,0.0,0.0,0.0,-1.5324,-1.5675,-1.4963,-1.4792,-1.4674,-1.4076,-1.4641,-1.5499,0.0,0.0,-1.8149,-1.8711,-1.8357,-1.8064,-1.8064,-1.8064,-1.7885,-1.7333,-1.7225,-1.703,-1.6655,0.0,0.0,0.0,0.0,0.0,0.0,-1.7291,-1.7569,-1.7562,-1.7871,-1.7975,-1.7765,-1.6287,-1.5654,-1.6274,-1.6711,-1.714,-1.7759,-1.8408,-1.8736,-1.884,-1.9049,-1.9153,-1.9153,-1.9153,-1.9153,-1.9153,-1.9153,-1.9153,-1.9153,-1.9153,-1.9049,-1.8736,-1.8736,-1.8632,-1.8422,-1.8422,-1.8422,-1.8422,0.0,0.0,0.0,0.0,0.0,0.0,-1.7901,-1.8654,-1.9075,-1.9075,-1.9075,-1.9075,-1.9075,-1.9075,-1.9075,-1.9075,-1.9065,0.0,0.0,0.0,0.0,0.0,0.0,0.0,0.0,0.0,-1.6948,-1.6497,-1.6125,-1.5961,-1.6114,-1.6114,0.0,0.0,0.0,0.0,0.0,0.0,0.0,0.0,0.0,0.0,0.0,0.0,0.0,0.0,0.0,0.0,0.0,0.0,0.0,0.0,0.0,0.0,0.0,0.0,-1.5914,-1.5741,-1.5658,-1.5506,-1.5354,-1.5354,-1.5749,-1.6324,0.0,0.0,-1.8045,-1.8664,-1.8827,-1.8827,-1.8827,-1.8827,-1.8827,-1.8735,-1.8164,-1.7885,-1.8388,0.0,0.0,0.0,0.0,0.0,0.0,-1.8854,-1.9465,-1.8826,-1.9049,0.0,-1.8422,-1.8422,-1.8318,-1.8422,-1.8422,-1.8422,-1.8422,-1.9257,-1.968,-1.968,-2.0506,-2.0917,-2.0917,-2.0917,-2.0917,-2.0917,-2.0917,-2.0917,-2.0917,-2.0917,-2.0403,-1.968,-1.968,-1.9153,-1.8422,-1.8422,-1.8422,-1.8422,0.0,0.0,0.0,0.0,0.0,0.0,0.0,-1.8931,-1.9075,-1.9075,-1.9075,-1.9075,-1.9075,-1.9075,-1.9075,-1.9075,-1.9075,0.0,0.0,0.0,0.0,0.0,0.0,0.0,0.0,0.0,-1.7318,-1.6857,-1.6427,-1.6259,-1.6306,-1.6306,-1.6316,-1.6384,0.0,0.0,0.0,0.0,0.0,0.0,0.0,0.0,0.0,0.0,0.0,0.0,0.0,0.0,0.0,0.0,0.0,0.0,0.0,0.0,0.0,-1.8055,0.0,0.0,-1.6154,-1.5922,-1.5839,-1.5839,-1.6178,-1.6528,-1.6877,-1.7435,-1.7975,-1.8356,-1.8661,-1.8827,-1.8827,-1.8827,-1.8827,-1.8827,-1.8635,-1.8542,0.0,0.0,0.0,0.0,0.0,0.0,0.0,0.0,-1.9872,-1.9665,-2.0086,-2.03,-2.0086,-2.0086,-1.9879,-1.9257,-1.9257,-1.9569,-2.0086,-2.0403,-2.0506,-2.0506,-2.0814,-2.0925,-2.0925,-2.0925,-2.0925,-2.0925,-2.0925,-2.0925,-2.0925,-2.0925,-2.0712,-2.0506,-2.0506,-2.0403,-2.0086,-2.0086,-2.0086,-2.0086,0.0,0.0,0.0,0.0,0.0,0.0,0.0,-1.9075,-1.9075,-1.9075,-1.9075,-1.9075,-1.9075,-1.9075,-1.9075,-1.9075,-1.9075,0.0,0.0,0.0,0.0,0.0,0.0,0.0,0.0,-1.8462,-1.8121,-1.7395,-1.7162,-1.7022,-1.7022,-1.7022,-1.6909,-1.6694,-1.6694,0.0,0.0,0.0,0.0,0.0,0.0,0.0,-1.8154,0.0,0.0,0.0,0.0,0.0,0.0,0.0,0.0,0.0,0.0,0.0,0.0,0.0,-1.8797,-1.8301,0.0,-1.6878,-1.6558,-1.6558,-1.6565,0.0,0.0,-1.7337,-1.7817,-1.8247,-1.8478,-1.8669,-1.8804,-1.8827,-1.8827,-1.8827,-1.8827,-1.8827,0.0,0.0,0.0,0.0,0.0,0.0,0.0,-1.9879,-2.0189,-2.0189,-2.0609,-2.0925,-2.0925,-2.0925,-2.0719,-2.0197,-2.0197,-2.0403,-2.0925,-2.0925,-2.0925,-2.0925,-2.0925,-2.0925,-2.0925,-2.0925,-2.0925,-2.0925,-2.0925,-2.0925,0.0,-2.0925,-2.0925,-2.0925,-2.0925,-2.0925,-2.0925,-2.0925,-2.0925,-2.0925,0.0,0.0,0.0,0.0,0.0,0.0,0.0,-1.9075,-1.9075,-1.9075,-1.9075,-1.9075,-1.9075,-1.9075,-1.9075,-1.9075,0.0,0.0,0.0,0.0,0.0,0.0,0.0,0.0,-1.8616,-1.9219,-1.908,-1.8093,-1.8093,-1.8093,-1.8093,-1.8093,-1.7809,-1.7257,-1.7257,-1.7,0.0,0.0,0.0,0.0,0.0,0.0,0.0,0.0,0.0,0.0,0.0,0.0,0.0,0.0,0.0,0.0,0.0,0.0,0.0,0.0,0.0,0.0,0.0,-1.8292,0.0,0.0,0.0,0.0,0.0,-1.7239,0.0,-1.8266,-1.8434,-1.8579,-1.8907,-1.8988,-1.9004,-1.9004,-1.8912,0.0,0.0,0.0,0.0,0.0,0.0,0.0,-2.0017,-2.0078,-2.0189,-2.0522,-2.0719,-2.0925,-2.0925,-2.0925,-2.0925,-2.0925,-2.0925,-2.0925,-2.0925,-2.0925,-2.0925,-2.0925,-2.0925,-2.0925,-2.0925,-2.0925,-2.0925,-2.0925,-2.0925,-2.0925,-2.0925,-2.0925,-2.0925,-2.0925,-2.0925,-2.0925,-2.0925,-2.0925,-2.0925,-2.0925,0.0,0.0,0.0,0.0,0.0,0.0,0.0,0.0,0.0,0.0,-1.9075,-1.9075,-1.9075,-1.9075,-1.9075,0.0,0.0,0.0,0.0,0.0,0.0,0.0,0.0,0.0,-1.8605,-1.8823,-1.8668,-1.8093,-1.8093,-1.8093,-1.8093,-1.8093,-1.8038,-1.7875,-1.7875,-1.782,0.0,0.0,0.0,0.0,0.0,0.0,0.0,0.0,0.0,0.0,-1.9075,-1.9075,0.0,0.0,0.0,0.0,0.0,0.0,0.0,0.0,-2.0614,-2.0968,-2.1074,0.0,-1.8859,-1.8859,-1.87,-1.8647,0.0,-1.9002,-1.9268,0.0,0.0,-2.0421,-2.0509,-2.0775,-2.0979,-2.0979,-2.0439,0.0,0.0,0.0,0.0,0.0,0.0,-1.9361,-2.0017,-2.0078,-2.0189,-2.0522,-2.0719,-2.0925,-2.0925,-2.0925,-2.0925,-2.0925,-2.0925,-2.0925,-2.0925,-2.0925,-2.0925,-2.0925,-2.0925,-2.0925,-2.0925,-2.0925,-2.0925,-2.0925,-2.0925,-2.0925,-2.0925,-2.0925,-2.0925,-2.0925,-2.0925,-2.0925,-2.0925,-2.0925,-2.0925,-2.0925,0.0,0.0,0.0,0.0,0.0,0.0,0.0,0.0,0.0,0.0,0.0,-1.9075,-1.9075,-1.9075,0.0,0.0,0.0,0.0,0.0,0.0,0.0,0.0,0.0,-1.9649,-1.9513,-1.9571,-1.9437,-1.8898,-1.8898,-1.8898,-1.8898,-1.8898,-1.8738,-1.8483,-1.8201,-1.8093,-1.8093,0.0,0.0,0.0,-1.7202,0.0,0.0,0.0,0.0,0.0,-1.9075,-1.9075,0.0,-1.9075,-1.9075,-1.9075,0.0,0.0,0.0,0.0,-2.0752,-2.1217,-2.1683,-2.0847,-1.9816,-1.9816,-1.958,-1.9335,0.0,0.0,0.0,0.0,0.0,0.0,-2.0966,0.0,0.0,-2.1695,-2.1239,0.0,0.0,0.0,0.0,0.0,0.0,-2.0614,0.0,-2.1285,-2.1692,-2.2106,-2.1818,-2.1623,-2.1623,-2.1121,-2.0925,-2.0925,-2.0925,-2.0925,-2.0925,-2.0925,-2.0925,-2.0925,-2.0925,-2.0925,-2.0925,-2.0925,-2.0925,-2.0925,-2.0925,-2.0925,-2.0925,-2.0925,-2.0925,-2.0925,-2.0925,-2.0925,-2.0925,-2.0925,-2.0925,-2.0925,0.0,0.0,0.0,0.0,0.0,0.0,0.0,0.0,0.0,0.0,0.0,0.0,0.0,0.0,0.0,0.0,0.0,0.0,0.0,0.0,0.0,0.0,-2.0341,-2.0367,-2.0471,-2.0526,-2.0288,-1.9798,-1.9798,-1.9798,-1.9798,-1.9798,-1.9552,-1.9093,-1.859,-1.8363,-1.8363,-1.8363,0.0,0.0,-1.759,0.0,0.0,0.0,0.0,0.0,0.0,0.0,0.0,-1.9075,-1.9075,-1.9075,-1.9075,0.0,0.0,0.0,0.0,0.0,-2.1662,-2.1252,-2.0702,-2.0702,-2.0216,-1.9659,0.0,0.0,0.0,0.0,0.0,0.0,0.0,0.0,0.0,0.0,0.0,0.0,0.0,0.0,0.0,0.0,0.0,0.0,-2.2114,-2.2885,-2.3592,-2.4088,-2.3311,-2.2719,-2.2719,-2.192,-2.142,-2.142,-2.142,-2.142,-2.142,-2.1019,-2.0925,-2.0925,-2.0925,-2.0925,-2.0925,-2.0925,-2.0925,-2.0925,-2.1121,-2.1121,-2.1121,-2.1318,-2.142,-2.142,-2.142,-2.142,-2.142,-2.142,-2.142,-2.142,0.0,0.0,0.0,0.0,0.0,0.0,0.0,0.0,0.0,0.0,0.0,0.0,0.0,0.0,0.0,0.0,0.0,0.0,0.0,0.0,0.0,-2.1091,-2.0724,-2.0485,-2.0517,-2.0143,-1.9886,-1.9798,-1.9798,-1.9798,-1.9798,-1.9798,-1.9759,-1.9643,-1.9592,-1.954,-1.954,-1.954,-1.9482,-1.9428,-1.9428,0.0,0.0,0.0,0.0,0.0,0.0,0.0,0.0,-1.9075,-1.9075,-1.9075,-1.9075,0.0,0.0,0.0,0.0,0.0,-2.1569,-2.1721,-2.1568,-2.1568,-2.1492,-2.1405,0.0,0.0,0.0,0.0,0.0,0.0,0.0,0.0,0.0,0.0,0.0,0.0,0.0,0.0,0.0,0.0,0.0,-2.2817,-2.361,-2.3692,-2.3791,-2.4088,-2.3998,-2.3899,-2.3899,-2.3701,-2.3592,-2.3592,-2.3592,-2.3592,-2.3592,-2.1818,-2.0925,-2.0925,-2.0925,-2.0925,-2.0925,-2.0925,-2.0925,-2.0917,-2.1827,-2.2224,-2.2325,-2.3203,-2.3592,-2.3592,-2.3592,-2.3592,-2.3592,-2.3592,-2.3592,-2.3592,0.0,0.0,0.0,0.0,0.0,0.0,0.0,0.0,0.0,0.0,0.0,0.0,0.0,0.0,0.0,0.0,0.0,0.0,0.0,0.0,-2.1701,-2.1842,-2.1313,-2.0895,-2.06,-2.0067,-1.9798,-1.9798,-1.9798,-1.9862,-1.9926,-1.9965,-2.0016,-2.0029,-2.0294,-2.0393,-2.0406,-2.0643,-2.0526,-2.0234,0.0,0.0,0.0,0.0,0.0,0.0,0.0,0.0,0.0,0.0,-1.9649,-1.9584,-1.9198,0.0,0.0,0.0,0.0,0.0,-2.1559,-2.1807,-2.1807,-2.1807,-2.1807,-2.1807,0.0,0.0,0.0,0.0,0.0,0.0,0.0,0.0,0.0,0.0,0.0,0.0,0.0,0.0,0.0,0.0,0.0,-2.4248,-2.4692,-2.5187,-2.5586,-2.5771,-2.5285,-2.4992,-2.4992,-2.4384,-2.4088,-2.4088,-2.4088,-2.4088,-2.4088,-2.3103,-2.2601,-2.2601,-2.2601,-2.2601,-2.2601,-2.2601,-2.2601,-2.271,-2.3103,-2.3402,-2.3402,-2.389,-2.4088,-2.4088,-2.4088,-2.4088,-2.4088,-2.4088,-2.4088,-2.4088,0.0,0.0,0.0,0.0,0.0,0.0,0.0,0.0,0.0,0.0,0.0,0.0,0.0,0.0,0.0,0.0,0.0,0.0,0.0,0.0,-2.2246,-2.2191,-2.1693,-2.1214,-2.0743,-2.0164,-1.9862,-1.9901,-1.9901,-2.0041,-2.0283,-2.0374,-2.0502,-2.0656,-2.0945,-2.1094,-2.1132,-2.1373,-2.1319,-2.1006,0.0,0.0,0.0,0.0,0.0,0.0,0.0,0.0,0.0,0.0,0.0,0.0,0.0,0.0,0.0,-2.0292,-2.042,-2.0627,-2.1559,-2.1807,-2.1807,-2.1807,0.0,0.0,0.0,0.0,0.0,0.0,0.0,0.0,0.0,0.0,0.0,0.0,0.0,0.0,0.0,-2.454,-2.4425,-2.4379,-2.5057,-2.5685,-2.5769,-2.6476,-2.7081,-2.7262,-2.6572,-2.6081,-2.6081,-2.5285,-2.4875,-2.4875,-2.4875,-2.4875,-2.4875,-2.4875,-2.459,-2.4088,-2.4088,-2.4088,-2.4088,-2.4088,-2.4088,-2.4088,-2.4393,-2.4492,-2.4492,-2.4786,-2.4875,-2.4875,-2.4875,-2.4875,-2.4875,-2.4875,-2.4875,-2.4875,0.0,0.0,0.0,0.0,0.0,0.0,0.0,0.0,0.0,0.0,0.0,0.0,0.0,0.0,0.0,0.0,0.0,0.0,0.0,0.0,-2.2521,-2.1933,-2.1396,-2.1049,-2.0917,-2.0281,-2.0042,-2.0182,-2.0182,-2.045,-2.1002,-2.1002,-2.135,-2.1876,-2.1737,-2.164,-2.1652,-2.1524,-2.1782,-2.2189,-2.2189,0.0,0.0,0.0,0.0,0.0,0.0,0.0,0.0,0.0,0.0,0.0,0.0,0.0,-1.9318,-2.0162,-2.042,-2.0627,-2.1559,-2.1807,-2.1807,-2.1807,-2.1807,0.0,0.0,0.0,0.0,0.0,0.0,0.0,0.0,0.0,0.0,0.0,0.0,0.0,-2.454,0.0,-2.4784,-2.5681,-2.5785,-2.6237,-2.7074,-2.7262,-2.7262,-2.7262,-2.7262,-2.7156,-2.7156,-2.7156,-2.7061,-2.7061,-2.7061,-2.7061,-2.7061,-2.7061,-2.6071,-2.4088,-2.4088,-2.4088,-2.4088,-2.4088,-2.4088,-2.4187,-2.5187,-2.5596,-2.5684,-2.6668,-2.7061,-2.7061,-2.7061,-2.7061,-2.7061,-2.7061,-2.7156,-2.7347,0.0,0.0,0.0,0.0,0.0,0.0,0.0,0.0,0.0,0.0,0.0,0.0,0.0,0.0,0.0,0.0,0.0,0.0,0.0,-2.2783,-2.2373,-2.145,-2.1219,-2.095,-2.0643,-2.031,-2.0131,-2.0182,-2.0643,-2.1158,-2.1766,-2.1874,-2.2044,-2.2278,-2.2407,-2.2506,-2.2531,-2.2719,-2.2929,-2.3119,-2.3119,-2.3246,0.0,0.0,0.0,0.0,0.0,0.0,0.0,0.0,-2.1741,-2.1428,-2.0858,-2.1073,-2.1459,-2.1144,-2.1343,-2.1635,-2.1782,-2.1807,-2.1807,-2.1807,0.0,0.0,0.0,0.0,0.0,0.0,0.0,0.0,0.0,0.0,0.0,0.0,0.0,0.0,-2.454,-2.454,-2.4778,-2.5399,-2.572,-2.6123,-2.6765,-2.7086,-2.7262,-2.7262,-2.7262,-2.7262,-2.7262,-2.7262,-2.7262,-2.7262,-2.7262,-2.7262,-2.7262,-2.7262,-2.686,-2.6071,-2.6071,-2.6071,-2.6071,-2.6071,-2.6071,-2.6071,-2.6476,-2.6668,-2.6764,-2.7156,-2.7262,-2.7357,-2.7452,-2.7631,-2.7715,-2.7715,-2.7809,-2.7809,0.0,0.0,0.0,0.0,0.0,0.0,0.0,0.0,0.0,0.0,0.0,0.0,0.0,0.0,0.0,0.0,0.0,0.0,-2.2967,-2.2618,-2.2008,-2.1248,-2.1042,-2.0901,-2.0835,-2.0656,-2.0605,-2.0605,-2.1289,-2.1979,-2.2525,-2.2635,-2.2727,-2.2936,-2.3158,-2.3282,-2.3308,-2.3521,-2.3628,-2.3628,-2.3628,-2.3628,0.0,0.0,0.0,0.0,0.0,0.0,0.0,0.0,-2.2616,-2.2334,-2.1879,-2.2174,-2.2586,-2.2205,-2.222,-2.2306,-2.22,-2.1949,-2.1807,0.0,0.0,0.0,0.0,0.0,0.0,0.0,0.0,0.0,0.0,0.0,0.0,0.0,0.0,-2.454,-2.454,-2.454,-2.4705,-2.5171,-2.5492,-2.5854,-2.6299,-2.6641,-2.6827,-2.6827,-2.6827,-2.6827,-2.6827,-2.6827,-2.6827,-2.6827,-2.6827,-2.69,-2.7044,-2.7044,-2.7117,-2.7262,-2.7262,-2.7262,-2.7262,-2.7262,-2.7262,-2.7262,-2.7262,-2.7357,-2.7357,-2.7357,-2.7441,-2.7536,-2.7631,-2.7809,-2.7998,-2.7998,-2.8092,-2.8102,0.0,0.0,0.0,0.0,0.0,0.0,0.0,0.0,0.0,0.0,0.0,0.0,0.0,0.0,0.0,0.0,0.0,0.0,-2.3197,-2.2139,-2.1511,-2.1498,-2.1013,-2.0987,-2.1498,-2.1525,-2.1525,-2.1525,-2.2086,-2.2662,-2.3223,-2.3223,-2.3537,-2.4112,-2.3949,-2.3891,-2.3891,-2.3688,-2.3628,-2.3628,-2.3628,-2.3628,-2.3628,0.0,0.0,0.0,0.0,0.0,0.0,0.0,-2.3065,-2.253,-2.3067,-2.2638,-2.212,-2.3213,-2.2973,-2.2451,-2.287,-2.2402,0.0,0.0,0.0,0.0,0.0,0.0,0.0,0.0,0.0,0.0,0.0,0.0,0.0,-2.4395,-2.454,-2.454,-2.454,-2.454,-2.4705,-2.5171,-2.5233,-2.5399,-2.5834,-2.5875,-2.5875,-2.5875,-2.5875,-2.5875,-2.5875,-2.5875,-2.5875,-2.5875,-2.5875,-2.6092,-2.6558,-2.6558,-2.6796,-2.7251,-2.7251,-2.7251,-2.7262,-2.7262,-2.7262,-2.7262,-2.7262,-2.7452,-2.7631,-2.7631,-2.7726,-2.7998,-2.7998,-2.7998,-2.7998,-2.7998,-2.8196,-2.8395,0.0,0.0,0.0,0.0,0.0,0.0,0.0,0.0,0.0,0.0,0.0,0.0,0.0,0.0,0.0,0.0,0.0,0.0,-2.2073,-2.1694,-2.1328,-2.0923,-2.1132,-2.1342,-2.1511,-2.2296,-2.2714,-2.2714,-2.2884,-2.3263,-2.3851,-2.3851,-2.3942,-2.4112,-2.4067,-2.4067,-2.4067,-2.3995,-2.3936,-2.3936,-2.3936,-2.3936,-2.3936,0.0,0.0,0.0,0.0,0.0,0.0,0.0,0.0,0.0,-2.3904,-2.429,-2.462,-2.4273,-2.3921,-2.3503,-2.3106,-2.2402,0.0,0.0,0.0,0.0,0.0,0.0,0.0,0.0,0.0,0.0,0.0,0.0,0.0,-2.4498,-2.454,-2.454,-2.454,-2.454,-2.4592,-2.4726,-2.5037,-2.5285,-2.5409,-2.5699,-2.5875,-2.5875,-2.5875,-2.5875,-2.5875,-2.5875,-2.5875,-2.5875,-2.5875,-2.5947,-2.6082,-2.6082,-2.6154,-2.6289,-2.6816,-2.7139,-2.7262,-2.7262,-2.7357,-2.7536,-2.7536,-2.7631,-2.7904,-2.7904,-2.8008,-2.829,-2.829,-2.8384,-2.856,-2.856,-2.856,-2.8664,0.0,0.0,0.0,0.0,0.0,0.0,0.0,0.0,0.0,0.0,0.0,0.0,0.0,0.0,0.0,0.0,0.0,0.0,0.0,-2.1302,-2.1119,-2.1002,-2.1328,-2.1721,-2.2178,-2.3093,-2.3576,-2.3576,-2.3576,-2.3759,-2.4112,-2.4112,-2.4112,-2.4112,-2.4112,-2.4112,-2.4112,-2.4112,-2.4112,-2.4112,-2.4112,-2.4112,-2.4112,0.0,0.0,0.0,0.0,0.0,0.0,0.0,0.0,0.0,-2.5076,-2.5486,-2.5873,-2.5171,-2.4602,-2.4047,-2.3213,0.0,0.0,0.0,0.0,0.0,0.0,0.0,0.0,0.0,0.0,0.0,0.0,-2.3784,0.0,-2.4509,-2.454,-2.454,-2.454,-2.454,-2.454,-2.454,-2.4788,-2.4954,-2.4954,-2.5192,-2.5347,-2.5347,-2.5347,-2.5347,-2.5347,-2.5347,-2.5347,-2.5347,-2.5347,-2.544,-2.5616,-2.5616,-2.5799,-2.6055,-2.6438,-2.6823,-2.7013,-2.7369,-2.7631,-2.7726,-2.7914,-2.8008,-2.8186,-2.8279,-2.8373,-2.8571,-2.8932,-2.9024,-2.885,-2.9198,-2.9371,-2.9279,0.0,0.0,0.0,0.0,0.0,0.0,0.0,0.0,0.0,0.0,0.0,0.0,0.0,0.0,0.0,0.0,0.0,0.0,0.0,0.0,-2.104,-2.1603,-2.1629,-2.2178,-2.3276,-2.3838,-2.4112,-2.4112,-2.4112,-2.4112,-2.4112,-2.4112,-2.4112,-2.4112,-2.4112,-2.4112,-2.4112,-2.4112,-2.4151,-2.4191,-2.4191,-2.4217,-2.4184,-2.4269,0.0,0.0,0.0,0.0,0.0,0.0,0.0,0.0,-2.6259,-2.6335,-2.6212,-2.5852,-2.5134,-2.4204,0.0,0.0,0.0,0.0,0.0,0.0,0.0,0.0,0.0,0.0,0.0,0.0,0.0,-2.3629,-2.4074,-2.4478,-2.454,-2.454,-2.4625,-2.454,-2.454,-2.4625,-2.454,-2.454,-2.454,-2.454,-2.454,-2.4615,-2.454,-2.454,-2.4615,-2.454,-2.454,-2.454,-2.454,-2.4747,-2.5161,-2.5161,-2.5456,-2.6109,-2.6241,-2.6441,-2.6672,-2.7558,-2.7964,-2.8046,-2.8347,-2.8533,-2.8533,-2.88,-2.8914,-2.9039,-2.992,-2.9772,-2.9198,-2.9988,-3.0351,-3.017,0.0,0.0,0.0,0.0,0.0,0.0,0.0,0.0,0.0,0.0,0.0,0.0,0.0,0.0,0.0,0.0,0.0,0.0,0.0,0.0,-2.1772,-2.2773,-2.2855,-2.3184,-2.3903,-2.4047,-2.4112,-2.4112,-2.4112,-2.4112,-2.4112,-2.4112,-2.4112,-2.4112,-2.4112,-2.4112,-2.4112,-2.4112,-2.4374,-2.4792,-2.4792,-2.4853,-2.5016,-2.5344,-2.5244,0.0,0.0,0.0,0.0,0.0,0.0,0.0,-2.6388,-2.6738,-2.7046,-2.6756,-2.5639,-2.4337,0.0,0.0,0.0,0.0,0.0,0.0,0.0,0.0,0.0,0.0,0.0,0.0,-2.365,-2.4095,-2.4436,-2.4529,-2.454,-2.47,-2.5421,-2.4946,-2.4775,-2.5421,-2.4946,-2.454,-2.454,-2.454,-2.4775,-2.5505,-2.4861,-2.4775,-2.5505,-2.4861,-2.454,-2.454,-2.454,-2.4667,-2.4932,-2.4932,-2.5156,-2.5423,-2.6615,-2.722,-2.7339,-2.6993,-2.7342,-2.821,-2.9161,-2.9593,-2.9582,-2.9668,-2.9914,-3.0279,-3.0529,-3.079,-3.1045,-3.1223,-3.1311,-3.1223,0.0,0.0,0.0,0.0,0.0,0.0,0.0,0.0,0.0,0.0,0.0,0.0,0.0,0.0,0.0,0.0,0.0,0.0,0.0,0.0,-2.2565,-2.3191,-2.375,-2.4072,-2.4112,-2.4112,-2.4112,-2.4112,-2.4112,-2.4112,-2.4112,-2.4112,-2.4112,-2.4125,-2.44,-2.4517,-2.4543,-2.4818,-2.5105,-2.538,-2.538,-2.5322,-2.5189,-2.5405,-2.5506,-2.5545,-2.592,0.0,0.0,0.0,0.0,0.0,0.0,0.0,-2.7268,-2.6701,-2.5918,-2.504,0.0,0.0,0.0,0.0,0.0,0.0,0.0,0.0,0.0,0.0,0.0,0.0,-2.4341,-2.4483,-2.4615,-2.502,-2.5094,-2.5432,-2.6318,-2.5997,-2.5924,-2.64,-2.6008,-2.5757,-2.5757,-2.5757,-2.5924,-2.6412,-2.5997,-2.5924,-2.64,-2.608,-2.5924,-2.5924,-2.5997,-2.6152,-2.6318,-2.6318,-2.64,-2.6565,-2.7403,-2.7859,-2.7964,-2.8066,-2.8482,-2.9083,-2.9677,-2.993,-2.993,-2.993,-3.0085,-3.0337,-3.0845,-3.0931,-3.0831,-3.126,-3.1589,-3.181,0.0,0.0,0.0,0.0,0.0,0.0,0.0,0.0,0.0,0.0,0.0,0.0,0.0,0.0,0.0,0.0,0.0,0.0,0.0,0.0,0.0,-2.351,-2.4453,-2.4734,-2.4112,-2.4112,-2.4112,-2.4112,-2.4112,-2.4164,-2.4269,-2.4269,-2.4269,-2.4282,-2.4857,-2.5118,-2.5145,-2.5615,-2.5876,-2.5968,-2.5968,-2.5816,-2.5587,-2.5587,-2.5792,-2.6164,-2.6505,-2.6583,-2.6661,-2.7274,0.0,0.0,0.0,0.0,-2.7323,-2.6539,-2.6264,-2.5755,0.0,0.0,0.0,0.0,0.0,0.0,0.0,0.0,0.0,0.0,0.0,-2.4153,-2.5326,-2.5174,-2.5189,-2.5913,-2.5986,-2.6318,-2.7232,-2.7232,-2.7151,-2.7313,-2.7232,-2.7151,-2.7151,-2.7221,-2.7302,-2.7395,-2.7232,-2.7232,-2.7395,-2.7464,-2.7545,-2.7545,-2.7683,-2.7844,-2.7844,-2.7844,-2.7924,-2.8164,-2.8335,-2.8573,-2.8858,-2.9748,-2.9997,-2.9903,-2.9985,-3.0068,-3.0068,-3.0068,-3.0129,-3.0297,-3.1035,-3.1016,-3.0514,-3.1267,-3.1801,-3.211,0.0,0.0,0.0,0.0,0.0,0.0,0.0,0.0,0.0,0.0,0.0,0.0,0.0,0.0,0.0,0.0,0.0,0.0,-2.5387,0.0,0.0,-2.4813,-2.4908,-2.4734,-2.4112,-2.4112,-2.4112,-2.4112,-2.4112,-2.4374,0.0,0.0,-2.4857,-2.4883,-2.5458,-2.5707,-2.572,-2.5785,-2.6112,-2.6556,-2.6556,-2.6844,-2.7196,-2.7196,-2.7222,-2.7314,-2.7313,-2.7326,-2.7339,-2.7497,-2.7523,0.0,0.0,0.0,-2.7469,-2.7323,-2.6756,0.0,0.0,0.0,0.0,0.0,0.0,0.0,0.0,0.0,0.0,0.0,-2.6694,-2.6223,-2.6712,-2.6778,-2.6823,-2.6894,-2.6905,-2.7232,-2.8211,-2.7637,-2.7395,-2.8211,-2.7799,-2.7476,-2.7476,-2.7614,-2.7947,-2.8554,-2.7879,-2.7799,-2.8554,-2.7879,-2.7545,-2.7763,-2.7752,-2.7912,-2.8084,-2.8084,-2.8176,-2.8347,-2.9147,-2.9871,-3.0672,-3.0814,-3.0407,-2.9761,-3.0497,-3.0816,-3.0816,-3.0816,-3.11,-3.1552,-3.1708,-3.2006,-3.2354,-3.2434,-3.2566,-3.2631,0.0,0.0,0.0,0.0,0.0,0.0,0.0,0.0,0.0,0.0,0.0,0.0,0.0,0.0,0.0,-2.459,-2.516,-2.5754,-2.6323,-2.6887,-2.6563,-2.5061,-2.5272,-2.509,-2.4261,-2.4203,-2.4419,-2.482,-2.4761,0.0,0.0,-2.5897,-2.587,0.0,0.0,-2.6358,-2.6321,-2.6763,-2.6987,-2.7157,-2.7157,-2.7301,-2.7523,-2.7523,-2.7523,-2.7523,-2.7523,-2.7523,-2.7523,-2.7523,-2.7523,-2.7523,-2.7523,0.0,0.0,0.0,0.0,0.0,0.0,0.0,0.0,0.0,0.0,0.0,0.0,0.0,0.0,0.0,-2.8399,-2.8276,-2.7924,-2.7476,-2.7232,-2.7799,-2.7879,-2.8211,-2.9118,-2.8949,-2.8937,-2.9353,-2.925,-2.916,-2.916,-2.9225,-2.9394,-2.9651,-2.9328,-2.9316,-2.9664,-2.9406,-2.9316,-2.9394,-2.9537,-2.9614,-2.9691,-2.9691,-2.9781,-2.9858,-3.0266,-3.0659,-3.0986,-3.0986,-3.0823,-3.0419,-3.0823,-3.0986,-3.0986,-3.0986,-3.113,-3.1365,-3.1365,-3.1509,-3.1744,-3.1744,-3.194,-3.2215,0.0,0.0,0.0,0.0,0.0,0.0,0.0,0.0,0.0,0.0,0.0,0.0,0.0,0.0,0.0,0.0,-2.6404,-2.6887,-2.6901,-2.7255,-2.6864,-2.5536,-2.5632,-2.5342,-2.4624,-2.4553,-2.4858,-2.5369,0.0,0.0,-2.641,-2.6784,-2.6773,0.0,-2.6958,-2.7155,0.0,0.0,0.0,-2.7669,-2.759,-2.7577,-2.7497,-2.7523,-2.7523,-2.7523,-2.7523,-2.7523,-2.7523,-2.7523,-2.7523,-2.7523,-2.7523,-2.7523,0.0,0.0,0.0,0.0,0.0,0.0,0.0,0.0,0.0,0.0,0.0,0.0,0.0,0.0,-2.9631,-2.9767,-2.9106,-2.8291,-2.8051,-2.8712,-2.887,-2.9118,-2.9779,-3.0088,-3.0152,-3.0152,-3.0368,-3.0444,-3.0444,-3.052,-3.052,-3.0444,-3.0444,-3.0444,-3.0444,-3.0609,-3.0698,-3.0773,-3.0911,-3.0986,-3.0986,-3.0986,-3.0986,-3.0986,-3.0986,-3.0986,-3.0986,-3.0986,-3.0986,-3.0986,-3.0986,-3.0986,-3.0986,-3.0986,-3.0986,-3.0986,-3.0986,-3.0986,-3.0986,-3.0986,-3.1261,-3.1627,0.0,0.0,0.0,0.0,0.0,0.0,0.0,0.0,0.0,0.0,0.0,0.0,-2.5971,-2.6547,-2.6912,-2.6912,-2.7387,-2.7695,-2.756,-2.7188,-2.6901,-2.6797,-2.5932,0.0,-2.5342,-2.536,-2.5342,-2.5369,0.0,0.0,-2.712,-2.7147,-2.7466,-2.7986,-2.8026,-2.8039,-2.8039,0.0,0.0,0.0,-2.7855,-2.767,-2.7538,-2.7497,-2.7523,-2.7523,-2.7523,-2.7523,-2.7523,-2.7523,-2.7523,-2.7523,-2.7523,-2.7523,-2.7523,0.0,0.0,0.0,0.0,0.0,0.0,0.0,0.0,0.0,0.0,0.0,0.0,0.0,-3.0203,-3.0368,-3.0279,-2.9921,-2.9714,-2.9702,-2.9856,-2.9998,-3.0075,-3.0292,-3.0368,-3.0368,-3.0533,-3.0698,-3.0698,-3.0836,-3.0911,-3.0698,-3.0698,-3.0698,-3.0698,-3.0698,-3.0773,-3.0986,-3.0986,-3.0986,-3.0986,-3.0986,-3.0986,-3.0986,-3.0986,-3.0986,-3.0986,-3.0986,-3.0986,-3.0986,-3.0986,-3.0986,-3.0986,-3.0986,-3.0986,-3.0986,-3.0986,-3.0986,-3.0986,-3.0986,-3.0999,-3.1026,0.0,0.0,0.0,0.0,0.0,0.0,0.0,0.0,0.0,0.0,0.0,0.0,0.0,-2.723,-2.7689,-2.7771,-2.7951,-2.7989,-2.7855,-2.7675,-2.7306,-2.6549,-2.6924,-2.68,-2.6204,-2.6527,-2.7187,0.0,0.0,-2.7525,-2.8538,-2.8106,-2.8034,-2.8249,-2.8249,-2.8197,-2.8079,-2.8183,0.0,0.0,0.0,0.0,0.0,0.0,0.0,0.0,0.0,0.0,0.0,-2.7488,-2.7867,-2.8326,-2.8494,-2.8654,-2.8855,-2.8855,-2.8786,0.0,0.0,0.0,0.0,0.0,0.0,0.0,0.0,0.0,0.0,-3.0177,-3.0368,-3.0368,-3.0368,-3.0292,-3.0228,-3.0228,-3.0216,-3.0292,-3.0292,-3.0457,-3.0609,-3.0609,-3.0761,-3.0911,-3.0911,-3.0986,-3.0986,-3.0911,-3.0911,-3.0911,-3.0911,-3.0911,-3.0911,-3.0986,-3.0986,-3.0986,-3.0986,-3.0986,-3.0986,-3.0986,-3.0986,-3.0986,-3.0986,-3.0986,-3.0986,-3.0986,-3.0986,-3.0986,-3.0986,-3.0986,-3.0986,-3.0986,-3.0986,-3.0986,-3.0986,-3.0986,-3.0986,-3.0986,0.0,0.0,0.0,0.0,0.0,0.0,0.0,0.0,0.0,-2.5773,0.0,0.0,0.0,0.0,-2.8152,-2.8186,-2.8186,-2.8244,-2.8323,-2.8223,-2.7993,-2.7612,-2.8062,-2.8065,-2.7623,-2.7582,-2.8163,-2.9304,-2.8085,0.0,0.0,-2.8624,-2.843,-2.843,-2.843,-2.8314,0.0,0.0,0.0,-2.8052,0.0,0.0,-2.8266,0.0,0.0,0.0,0.0,0.0,0.0,0.0,-2.8673,-2.9162,-2.9416,-2.9578,-2.9684,-2.9684,-2.9614,-2.9526,-2.9483,0.0,0.0,0.0,0.0,0.0,0.0,0.0,0.0,-3.052,-3.052,-3.0596,-3.0596,-3.0596,-3.0596,-3.0444,-3.0444,-3.052,-3.052,-3.0685,-3.0773,-3.0773,-3.0911,-3.0986,-3.0986,-3.0986,-3.0986,-3.0986,-3.0986,-3.0986,-3.0986,-3.0986,-3.0986,-3.0986,-3.0986,-3.0986,-3.0986,-3.0986,-3.0986,-3.0986,-3.0986,-3.0986,-3.0986,-3.0986,-3.0986,-3.0986,-3.0986,-3.0986,-3.0986,-3.0986,-3.0986,-3.0986,-3.0986,-3.0986,-3.0986,-3.1061,-3.1136,-3.1163,0.0,0.0,0.0,0.0,0.0,0.0,0.0,0.0,-2.6336,-2.7086,0.0,0.0,0.0,0.0,0.0,-2.8266,-2.8217,-2.8458,-2.8991,-2.8681,-2.8952,-3.0158,-2.9287,-2.9013,-2.9619,-2.8454,-2.813,-2.8736,-2.8092,-2.803,-2.8651,-2.8587,-2.8587,-2.8587,-2.8614,-2.8627,-2.8627,0.0,-2.8614,-2.8614,0.0,-2.8944,-2.9767,0.0,0.0,0.0,-3.0017,-2.924,0.0,-2.9402,0.0,0.0,0.0,0.0,0.0,-2.9947,-2.9934,-2.9997,0.0,0.0,0.0,0.0,0.0,0.0,0.0,0.0,-3.0698,-3.0698,-3.0836,-3.0986,-3.0986,-3.0986,-3.0911,-3.052,-3.0609,-3.0698,-3.0698,-3.0911,-3.0986,-3.0986,-3.0986,-3.0986,-3.0986,-3.0986,-3.0986,-3.0986,-3.0986,-3.0986,-3.0986,-3.0986,-3.0986,-3.0986,-3.0986,-3.0986,-3.0986,-3.0986,-3.0986,-3.1061,-3.1061,-3.1061,-3.1048,-3.1061,-3.1061,-3.1048,-3.1061,-3.1048,-3.1061,-3.1061,-3.1061,-3.1048,-3.1048,-3.1061,-3.1123,-3.1272,-3.1347,-3.1527,0.0,0.0,0.0,0.0,0.0,-2.5678,-2.6229,-2.6688,-2.7072,0.0,0.0,0.0,-2.8381,-2.8411,-2.8596,-2.9039,-2.9085,-2.9327,-2.995,-2.9929,-2.9833,-2.975,-2.9913,-2.9873,-2.9633,-2.9194,-2.9355,-3.0024,-2.8886,-2.8652,-2.9219,-2.8817,-2.8587,0.0,-2.9048,-2.9224,-2.9224,-2.9224,0.0,0.0,-2.9578,-2.9713,0.0,0.0,0.0,0.0,0.0,-3.1375,-3.0953,0.0,-3.1568,-3.1508,0.0,0.0,0.0,-3.132,-3.1248,-3.1143,-3.1243,0.0,0.0,0.0,0.0,0.0,0.0,0.0,0.0,-3.0911,-3.0986,-3.0986,-3.0986,-3.0986,-3.0986,-3.0823,-3.0911,-3.0911,-3.0911,-3.0986,-3.0986,-3.0986,-3.0986,-3.0986,-3.0986,-3.0986,-3.0986,0.0,-3.0986,-3.0986,-3.0986,-3.0986,-3.0986,-3.0986,-3.0986,-3.1061,-3.1198,-3.1198,-3.1556,-3.22,-3.22,-3.2403,-3.2804,-3.2918,-3.2918,-3.2804,-3.2918,-3.2975,-3.2918,-3.2087,-3.216,-3.2804,-3.2804,-3.2861,-3.2989,-3.2989,-3.3311,-3.3774,0.0,0.0,0.0,0.0,0.0,-2.5926,-2.6704,-2.738,-2.7811,0.0,0.0,0.0,-2.8796,-2.8827,-2.9104,-2.9781,-2.9541,-2.9816,-3.0782,-3.0548,-3.0563,-3.0782,-3.1107,-3.1009,-3.0409,-2.9853,-2.974,-3.0072,-2.9122,-2.8823,-2.9107,-2.9256,-2.9214,-2.898,0.0,0.0,0.0,0.0,0.0,0.0,-3.0201,0.0,0.0,-3.0785,-3.1486,0.0,0.0,0.0,-3.2208,-3.2195,-3.2214,0.0,0.0,0.0,-3.2036,-3.2036,-3.1963,-3.1817,-3.1743,-3.1757,0.0,0.0,0.0,0.0,-3.136,-3.1272,-3.1272,-3.1061,-3.0986,-3.0986,-3.0986,-3.0986,-3.0986,-3.0986,-3.0986,-3.0986,-3.0986,-3.0986,-3.0986,-3.0986,-3.0986,-3.0986,-3.0986,-3.0986,-3.0986,-3.0986,-3.0986,-3.0986,-3.0986,-3.0986,-3.1061,-3.1123,-3.1123,-3.1211,-3.1434,-3.1703,-3.2128,-3.2704,-3.296,-3.3297,-3.3561,-3.3671,-3.3671,-3.3561,-3.3671,-3.3876,-3.4163,-3.3547,-3.3408,-3.3547,-3.3547,-3.3616,-3.3768,-3.4108,-3.4493,-3.4936,0.0,0.0,-2.4318,-2.5368,-2.5604,-2.6079,-2.7237,-2.7915,-2.8299,0.0,-2.8473,-2.875,-2.935,-2.9489,-2.9797,-3.0474,-2.9985,-3.015,-3.1459,-3.1,-3.1218,-3.2367,-3.2342,-3.2048,-3.148,-3.0294,-2.9604,-2.9504,-2.9069,-2.883,-2.8695,-2.9854,-3.0145,-2.9604,0.0,0.0,0.0,0.0,0.0,-3.0608,-3.0608,-3.0796,0.0,0.0,-3.1568,-3.2182,-3.2182,-3.2182,-3.2182,-3.2182,-3.2182,0.0,0.0,0.0,-3.2182,-3.2182,-3.2182,-3.2182,-3.1963,-3.1963,-3.189,0.0,0.0,0.0,-3.1421,-3.1347,-3.1272,-3.1136,-3.1061,-3.1061,-3.1198,-3.1198,-3.1198,-3.1259,-3.1198,-3.1123,-3.0986,-3.0986,-3.0986,-3.0986,-3.0986,-3.0986,-3.0986,-3.0986,-3.1048,-3.1123,-3.1123,-3.1123,-3.1123,-3.1198,-3.1272,-3.1542,-3.1542,-3.1629,-3.1877,-3.2489,-3.2903,-3.3044,-3.3616,-3.3945,-3.4013,-3.4013,-3.4013,-3.4013,-3.4013,-3.4432,-3.5088,-3.5088,-3.4647,-3.4013,-3.4013,-3.4056,-3.4185,-3.4969,-3.5343,-3.5689,0.0,0.0,-2.371,-2.4929,-2.5152,-2.5652,-2.7245,-2.759,-2.7845,-2.8348,-2.8889,-2.9258,-2.9396,-2.9904,-3.0489,-3.1136,-3.1075,-3.1351,-3.2151,-3.2087,-3.2149,-3.2382,-3.1936,-3.1595,-3.148,-3.0749,-3.0079,-2.9504,-2.9848,-2.9808,-2.9319,-3.0065,-3.0351,-3.0256,-3.0853,0.0,0.0,0.0,0.0,-3.1829,-3.1829,0.0,-3.1979,-3.1979,-3.206,-3.2182,-3.2182,-3.2182,-3.2182,-3.2182,-3.2182,-3.2182,0.0,0.0,0.0,-3.2182,-3.2182,-3.2182,-3.2182,0.0,0.0,0.0,0.0,0.0,-3.1817,-3.1817,-3.1743,-3.1522,-3.1447,-3.1656,-3.2273,-3.2345,-3.2533,-3.3059,-3.2563,-3.1882,-3.1136,-3.0986,-3.0986,-3.0986,-3.0986,-3.0986,-3.0986,-3.0986,-3.1259,-3.1809,-3.2042,-3.2114,-3.2101,-3.2259,-3.2605,-3.3185,-3.3255,-3.3339,-3.3561,-3.3685,-3.4109,-3.4861,-3.4993,-3.532,-3.5721,-3.5864,-3.5864,-3.5721,-3.5864,-3.6006,-3.6226,-3.6226,-3.6006,-3.5721,-3.5721,-3.6118,-3.6763,-3.6949,-3.7694,-3.8652,0.0,-2.4123,-2.4272,-2.4885,-2.5258,-2.5926,-2.7303,-2.7515,-2.7851,-2.8759,-2.9504,-2.994,-2.9932,-3.0547,-3.1166,-3.1828,-3.1601,-3.1753,-3.2437,-3.2007,-3.1823,-3.2033,-3.1537,-3.0999,-3.0495,-3.0463,-3.0247,-2.9728,-3.0871,-3.1183,-3.0769,-3.1517,-3.1864,-3.1893,-3.1789,0.0,0.0,0.0,-3.2182,-3.2182,-3.2182,0.0,-3.2171,-3.2171,-3.2189,-3.2221,-3.2221,-3.2205,-3.2171,-3.2171,-3.2236,0.0,0.0,-3.2182,-3.2182,0.0,-3.2182,-3.2182,0.0,0.0,0.0,-3.2182,0.0,0.0,0.0,-3.2155,-3.2345,-3.2155,-3.2403,-3.2747,-3.3157,-3.3213,-3.3283,-3.3671,-3.3073,-3.2533,-3.2376,-3.1542,-3.1061,-3.1123,-3.1123,-3.1211,-3.1299,-3.1299,-3.1643,-3.2318,-3.2804,-3.3073,-3.3059,-3.3143,-3.3422,-3.3822,-3.3876,-3.3959,-3.4163,-3.4499,-3.4912,-3.54,-3.58,-3.6085,-3.6352,-3.6429,-3.6414,-3.6352,-3.6492,-3.6492,-3.6522,-3.6861,-3.6921,-3.6842,-3.6842,-3.7136,-3.7584,-3.8262,-3.8939,-3.957,-2.4381,0.0,-2.501,-2.4992,-2.538,-2.6082,-2.721,-2.7365,-2.7794,-2.9082,-2.9922,-3.0426,-3.0503,-3.1165,-3.1797,-3.2407,-3.1992,-3.1951,-3.2578,-3.1667,-3.1306,-3.1766,-3.1367,-3.0833,-3.0059,-3.07,-3.0835,-3.0577,-3.2025,-3.26,-3.2321,-3.3187,-3.3558,-3.3483,-3.2835,0.0,0.0,0.0,0.0,-3.2212,0.0,-3.2187,-3.2289,-3.2849,-3.3002,-3.3047,-3.3015,-3.3036,-3.2918,-3.2389,-3.2189,-3.2191,-3.2214,-3.2441,0.0,0.0,0.0,0.0,0.0,0.0,0.0,0.0,0.0,-3.2372,0.0,0.0,0.0,-3.303,-3.3422,0.0,0.0,0.0,0.0,-3.4216,0.0,0.0,0.0,-3.2577,0.0,-3.175,-3.1556,-3.1508,-3.1803,-3.195,-3.2286,-3.2832,-3.3561,-3.3945,-3.3945,-3.4013,-3.4163,-3.4499,-3.4499,-3.4566,-3.4714,-3.532,-3.5608,-3.5608,-3.6226,-3.6492,-3.6492,-3.6492,-3.6492,-3.6492,-3.6492,-3.6569,-3.6722,-3.7277,-3.7584,-3.7692,-3.7692,-3.7769,-3.8015,-3.9108,-3.9601,-3.9801,-2.498,-2.4951,-2.4978,-2.5022,-2.5077,-2.5481,-2.6625,-2.678,-2.7214,-2.8419,-2.9692,-3.0473,-3.0492,0.0,0.0,0.0,0.0,0.0,-3.2578,-3.1894,-3.161,-3.1925,-3.193,-3.1944,-3.2154,-3.2778,-3.2919,-3.2654,-3.3524,-3.377,-3.3542,-3.4303,-3.4321,-3.3854,-3.3753,0.0,0.0,0.0,-3.2171,0.0,-3.2171,-3.2208,0.0,-3.5024,-3.6032,-3.6,-3.6037,-3.5993,-3.56,0.0,-3.218,-3.2165,0.0,-3.3266,-3.4185,-3.2626,0.0,0.0,0.0,0.0,0.0,0.0,-3.3087,0.0,0.0,0.0,-3.4109,-3.4109,0.0,0.0,0.0,0.0,0.0,0.0,0.0,0.0,-3.4898,-3.4081,-3.3394,-3.3394,-3.2331,-3.1803,-3.2503,-3.3185,-3.3575,-3.3602,-3.4461,-3.5008,-3.4978,-3.5109,-3.5529,-3.6211,-3.6226,-3.6226,-3.6289,-3.6352,-3.6367,-3.6367,-3.6492,-3.6492,-3.6492,-3.6492,-3.6492,-3.6492,-3.6492,-3.683,-3.7384,-3.7461,-3.7861,-3.84,-3.84,-3.8769,-3.9308,-3.9462,-3.9893,-4.0432,-2.5257,-2.5131,0.0,-2.5005,-2.5005,-2.5382,-2.6536,-2.7598,-2.8455,-2.877,-2.9958,-3.0732,0.0,0.0,0.0,0.0,0.0,-3.2748,0.0,0.0,-3.2695,-3.2972,-3.2931,-3.2824,-3.2655,-3.3339,-3.3743,-3.3898,-3.473,-3.5172,-3.5344,-3.5394,-3.5489,-3.5508,-3.3711,0.0,-3.4718,0.0,-3.4721,0.0,0.0,0.0,0.0,-3.4292,-3.5044,-3.655,-3.6965,-3.7103,-3.6923,0.0,-3.3907,0.0,0.0,0.0,0.0,-3.3632,0.0,0.0,0.0,0.0,0.0,0.0,0.0,0.0,-3.3754,0.0,-3.5029,0.0,0.0,0.0,0.0,0.0,0.0,0.0,-3.58,0.0,0.0,0.0,-3.4027,-3.3876,0.0,0.0,-3.296,-3.3644,-3.4109,-3.4027,-3.5204,-3.5958,-3.5928,-3.6006,-3.6148,-3.6492,-3.6492,-3.6492,-3.6492,-3.6492,-3.6492,-3.6492,-3.6492,-3.6492,-3.6492,-3.6492,-3.6707,-3.7076,-3.7076,-3.7461,-3.8123,-3.8639,-3.8963,-3.9323,-3.9807,-3.9833,-3.957,-4.009,-4.0415,-4.0662,-2.5578,0.0,0.0,0.0,-2.5197,-2.5666,-2.6942,-2.8381,-2.9331,-2.916,0.0,0.0,-3.0389,-3.1379,0.0,0.0,-3.2468,-3.3053,0.0,0.0,-3.3401,-3.3879,-3.3758,0.0,-3.3181,-3.3864,-3.4396,-3.4584,-3.5495,-3.6133,-3.6492,-3.6383,-3.6552,-3.6861,0.0,-3.4525,-3.6763,0.0,-3.6667,-3.6561,-3.7044,-3.7342,-3.7235,-3.4663,-3.4953,-3.6859,-3.7353,-3.7497,-3.7483,-3.7497,-3.5764,0.0,-3.4728,-3.4404,-3.3801,0.0,0.0,0.0,-3.4216,0.0,0.0,0.0,0.0,0.0,0.0,0.0,0.0,0.0,0.0,0.0,0.0,0.0,-3.6631,-3.6631,0.0,-3.6006,0.0,-3.5737,0.0,0.0,0.0,0.0,0.0,-3.4312,-3.4714,-3.4927,-3.5879,-3.6492,-3.6492,-3.6492,-3.6492,-3.6492,-3.6492,-3.6492,-3.6492,-3.6492,-3.6492,-3.6492,-3.6492,-3.6492,-3.6492,-3.6676,-3.7093,-3.7571,-3.7756,-3.8299,-3.8963,-3.959,-3.9967,-4.0184,-4.0831,-4.0588,-3.9998,-4.0628,-4.0882,-4.0882,-2.6176,-2.5591,0.0,0.0,0.0,0.0,-2.7892,0.0,0.0,0.0,0.0,0.0,0.0,0.0,0.0,0.0,0.0,-3.3232,-3.4038,0.0,-3.3269,-3.4442,-3.4286,-3.4193,0.0,-3.4797,-3.5073,-3.4905,-3.5593,-3.6133,-3.6492,-3.7165,-3.7492,-3.7405,-3.626,-3.6399,-3.7432,-3.7437,-3.7091,-3.6487,-3.6502,-3.693,-3.7471,0.0,-3.739,-3.7487,-3.7503,0.0,0.0,-3.7499,-3.7436,-3.7123,-3.6024,0.0,0.0,0.0,0.0,0.0,0.0,0.0,0.0,-3.5642,0.0,0.0,0.0,0.0,-3.6938,0.0,0.0,0.0,-3.6999,-3.6999,-3.6999,-3.6999,-3.6938,0.0,0.0,0.0,0.0,0.0,0.0,0.0,0.0,-3.5335,-3.5672,-3.6367,-3.6492,-3.6492,-3.6492,-3.6492,-3.6492,-3.6492,-3.6492,-3.6492,-3.6492,-3.6492,-3.6492,-3.6492,-3.6492,-3.6492,-3.6507,-3.7169,-3.7604,-3.7856,-3.8508,-3.9271,-4.0056,-4.0088,-4.0478,-4.1086,-4.1102,-4.1102,-4.1086,-4.1102,-4.1117,-4.1117,0.0,0.0,0.0,0.0,0.0,0.0,0.0,-2.8998,0.0,0.0,0.0,0.0,0.0,-3.1879,-3.2527,0.0,0.0,-3.4203,-3.542,-3.5294,0.0,0.0,0.0,-3.6352,0.0,0.0,-3.6708,-3.6646,-3.6831,-3.7029,-3.7165,-3.7421,-3.7506,-3.7468,0.0,-3.6935,0.0,0.0,0.0,0.0,0.0,-3.7285,-3.7531,0.0,-3.7506,-3.7528,-3.7528,-3.7512,-3.7496,-3.749,-3.7513,-3.7452,-3.7049,-3.6595,-3.6349,-3.6538,-3.6384,-3.6104,-3.6087,-3.6305,-3.6415,-3.5721,0.0,0.0,0.0,0.0,0.0,0.0,0.0,0.0,0.0,-3.7015,-3.7015,-3.7015,-3.7015,-3.7015,0.0,-3.7015,0.0,0.0,0.0,0.0,0.0,0.0,-3.5578,-3.5737,-3.6211,-3.6492,-3.6492,-3.6492,-3.6492,-3.6492,-3.6492,-3.6492,-3.6492,-3.6616,-3.66,-3.6662,-3.7251,-3.7515,-3.7546,-3.8261,-3.8821,-3.9336,-3.9554,-4.0068,-4.0774,-4.0876,-4.1002,-4.1272,-4.1406,-4.1406,-4.1406,-4.1272,-4.1205,-4.1272,-2.5918,0.0,0.0,0.0,0.0,0.0,0.0,0.0,0.0,0.0,-3.097,0.0,-3.1694,0.0,-3.3048,0.0,-3.4154,-3.5077,-3.6185,-3.6321,0.0,-3.715,-3.7285,0.0,0.0,0.0,0.0,0.0,-3.7089,-3.7225,-3.7225,-3.7405,-3.7531,-3.7479,0.0,-3.7225,-3.6906,0.0,-3.7487,0.0,0.0,-3.7515,0.0,0.0,-3.7294,-3.7528,-3.7496,-3.748,-3.748,-3.748,-3.7506,-3.7527,-3.7515,-3.697,-3.6503,-3.7272,-3.7058,-3.6646,-3.6892,-3.7225,-3.7285,-3.6368,-3.6831,-3.7345,-3.6631,0.0,-3.727,0.0,0.0,0.0,0.0,-3.7181,-3.7181,-3.7181,-3.7181,-3.7181,0.0,-3.7181,0.0,0.0,0.0,0.0,0.0,-3.6039,-3.5991,-3.58,-3.6274,-3.6554,-3.6492,-3.6554,-3.6538,-3.6538,-3.6616,-3.6693,-3.6693,-3.7033,-3.7142,-3.7142,-3.7966,-3.8372,-3.8387,-3.9105,-3.9732,-4.0219,-4.0388,-4.0814,-4.1288,-4.139,-4.139,-4.139,-4.1522,-4.1588,-4.1588,-4.1456,-4.139,-4.1456,0.0,0.0,0.0,0.0,-2.8783,0.0,0.0,0.0,-3.0401,0.0,-3.1366,-3.1424,-3.1537,-3.2874,-3.3661,-3.3361,-3.4623,-3.5742,-3.6437,-3.631,0.0,0.0,-3.7329,-3.7074,-3.6723,0.0,0.0,0.0,0.0,-3.6723,-3.6723,-3.7285,-3.748,-3.748,-3.7515,0.0,-3.748,-3.7515,-3.75,-3.748,-3.748,-3.748,-3.7433,-3.6786,-3.7006,-3.7689,-3.7543,-3.7512,-3.7619,-3.7543,-3.7634,-3.765,-3.7591,-3.7575,-3.7575,-3.7575,-3.7575,-3.7575,-3.7575,-3.7575,-3.7575,-3.7575,-3.7559,-3.7528,-3.7528,-3.7555,-3.7539,0.0,0.0,0.0,0.0,-3.7539,-3.748,-3.748,-3.748,-3.748,-3.748,-3.748,-3.748,0.0,0.0,0.0,0.0,-3.6862,-3.6877,-3.6554,-3.66,-3.6662,0.0,-3.6662,-3.6723,-3.6723,-3.6877,-3.703,-3.7062,-3.767,-3.7997,-3.8044,-3.8841,-3.9185,-3.92,-3.9888,-4.025,-4.0381,-4.1041,-4.139,-4.1588,-4.1588,-4.1588,-4.1588,-4.1588,-4.1588,-4.1588,-4.1588,-4.1588,-4.1588,-2.7502,-2.9001,-3.0089,0.0,-2.9935,-2.9972,0.0,0.0,0.0,0.0,-3.2204,-3.2852,-3.3497,-3.4391,-3.5147,-3.5535,-3.5928,0.0,0.0,0.0,0.0,-3.7464,-3.7464,-3.7405,-3.7285,-3.7285,0.0,-3.7089,0.0,-3.7285,-3.7285,-3.7421,-3.748,-3.748,0.0,0.0,-3.748,-3.7512,-3.7496,-3.748,-3.748,-3.7528,-3.75,0.0,-3.8623,-4.0251,-3.8245,-3.8138,-3.8941,-3.8581,-3.893,-3.9467,-3.9122,-3.8981,-3.8981,-3.8981,-3.8981,-3.8981,-3.8981,-3.8981,-3.8981,-3.8981,-3.8602,-3.8239,-3.8239,-3.8007,-3.7786,-3.7786,-3.7786,-3.7786,-3.7786,-3.7626,-3.748,-3.748,-3.748,-3.748,-3.748,0.0,0.0,-3.748,0.0,0.0,-3.7074,-3.7044,-3.6877,-3.6662,-3.6662,-3.6662,-3.6662,-3.68,-3.6938,-3.6938,-3.6938,-3.7249,-3.7732,-3.8044,-3.8451,-3.9,-3.9801,-4.0196,-4.0228,-4.0905,-4.1254,-4.127,-4.1444,-4.1522,-4.1588,-4.1588,-4.1588,-4.1588,-4.1588,-4.1588,-4.1588,-4.1588,-4.1588,-4.1588,-2.8333,0.0,0.0,-3.0568,0.0,0.0,-3.0568,-3.08,0.0,-3.1913,-3.2836,0.0,-3.4341,-3.5282,-3.5995,-3.639,-3.6706,0.0,-3.7449,0.0,0.0,-3.748,-3.748,-3.748,-3.748,-3.748,0.0,-3.748,0.0,-3.748,-3.748,-3.748,-3.748,-3.748,0.0,-3.748,-3.748,-3.748,-3.748,-3.748,-3.748,-3.7515,0.0,-3.749,-3.8819,-4.0574,-3.962,-3.9511,-3.9736,-3.9499,-3.9612,-3.9849,-3.955,-3.9503,-3.9503,-3.9503,-3.9503,-3.9503,-3.9503,-3.9503,-3.9503,-3.9503,-3.9218,-3.9011,-3.9134,-3.8982,-3.8857,-3.9033,-3.8808,-3.8599,-3.8599,-3.8067,-3.7642,-3.7539,-3.748,-3.748,0.0,0.0,0.0,0.0,-3.748,-3.7464,-3.7329,-3.715,-3.7044,-3.6862,-3.68,-3.68,0.0,-3.6984,-3.7246,-3.7574,-3.7635,-3.7949,-3.867,-3.9078,-3.9487,-3.9865,-4.0639,-4.1035,-4.1035,-4.1415,-4.1588,-4.1588,-4.1588,-4.1588,-4.1588,-4.1588,-4.1588,-4.1588,-4.1588,-4.1588,-4.1588,-4.1588,-4.1588,-4.1588,0.0,0.0,0.0,0.0,0.0,0.0,0.0,-3.1285,0.0,-3.2122,0.0,-3.4285,-3.4713,-3.5833,-3.6564,-3.6564,0.0,-3.748,-3.748,-3.748,-3.748,-3.748,-3.748,-3.748,-3.748,-3.748,-3.748,0.0,0.0,-3.748,-3.748,-3.748,-3.748,0.0,0.0,0.0,0.0,-3.748,-3.7496,-3.7543,-3.79,-3.8033,-3.801,-3.801,-3.8747,-3.996,-4.1149,-4.0991,-4.0229,-4.0229,-4.0056,-3.9771,-3.9771,-3.9771,-3.9771,-3.9771,-3.9771,-3.9771,-3.9771,-3.9834,-3.9834,-3.9834,-3.9834,-3.9817,-4.0126,-4.0184,-4.0224,-4.0524,-4.0128,-3.968,-3.968,-3.8898,-3.8142,-3.7725,-3.7666,0.0,0.0,0.0,0.0,0.0,0.0,0.0,-3.748,-3.7329,-3.715,-3.706,-3.6999,0.0,0.0,0.0,-3.7726,-3.8449,-3.8588,-3.8965,-3.9645,-4.0277,-4.064,-4.0735,-4.132,-4.1588,-4.1588,-4.1588,-4.1588,-4.1588,-4.1588,-4.1588,-4.1588,-4.1588,-4.1654,-4.1654,-4.1704,-4.1704,-4.1704,-4.1704,-4.1704,-4.172,0.0,0.0,0.0,0.0,0.0,-3.0937,-3.1886,-3.2063,-3.2198,-3.2198,-3.406,-3.5424,-3.5515,-3.6554,-3.7291,-3.7291,-3.7401,0.0,0.0,0.0,0.0,-3.748,-3.748,-3.748,-3.748,-3.748,-3.748,0.0,-3.748,-3.748,-3.748,-3.748,-3.748,0.0,0.0,0.0,-3.748,-3.748,0.0,-3.7681,-3.9978,-4.09,-4.0862,-4.0862,-4.1055,-4.1294,-4.1518,-4.1151,-4.0546,-4.0546,-4.0814,-4.1225,-4.1225,-4.1225,-4.1225,-4.1225,-4.1225,-4.1225,-4.1225,-4.1404,-4.1678,-4.1678,-4.1435,-4.1249,-4.1326,-4.1037,-4.0867,-4.0909,-4.0827,-4.0745,-4.0745,-4.0365,-3.9763,-3.8786,-3.8706,0.0,0.0,0.0,0.0,0.0,0.0,-3.7727,-3.7539,-3.7329,-3.7194,-3.7134,0.0,0.0,0.0,0.0,-3.8572,-3.9251,-3.9329,-3.9677,-4.0403,-4.0546,-4.0877,-4.1415,-4.1525,-4.1588,-4.1588,-4.1588,-4.1588,-4.1588,-4.1588,-4.1588,-4.1588,-4.1588,-4.1785,-4.2045,-4.2349,-4.2396,-4.2396,-4.2396,-4.2396,-4.2333,0.0,0.0,0.0,0.0,0.0,0.0,0.0,-3.3517,-3.397,-3.3683,-3.4881,-3.5892,-3.6167,-3.6961,-3.748,-3.748,-3.748,-3.748,-3.748,-3.748,-3.748,-3.748,-3.748,-3.748,-3.748,-3.748,-3.748,-3.748,-3.748,-3.748,-3.748,-3.748,-3.748,-3.748,0.0,-3.748,0.0,0.0,-3.8941,-3.9777,-4.1094,-4.1578,-4.1597,-4.1597,-4.1614,-4.1627,-4.1627,-4.1419,-4.1114,-4.1114,-4.132,-4.1588,-4.1588,-4.1588,-4.1588,-4.1588,-4.1588,-4.1654,-4.1785,-4.198,-4.2174,-4.2349,-4.2217,-4.2161,-4.2362,-4.2206,-4.2157,-4.2334,-4.2038,-4.1601,-4.1123,-4.0733,-4.0351,-3.9817,0.0,0.0,0.0,0.0,-3.9253,0.0,0.0,0.0,0.0,0.0,0.0,0.0,0.0,0.0,0.0,0.0,-3.8981,-4.004,-4.0072,-4.0403,-4.1099,-4.1114,-4.1272,-4.1588,-4.1588,-4.1588,-4.1588,-4.1588,-4.1588,-4.1588,-4.1588,-4.1588,-4.1588,-4.1785,-4.2045,-4.2349,-4.2539,-4.2601,-4.2585,-4.2585,-4.2601,-4.2539,0.0,-3.0684,0.0,0.0,-3.1951,0.0,-3.3513,-3.4653,-3.5293,-3.5049,-3.569,-3.6383,-3.6662,-3.7165,-3.748,-3.748,-3.748,-3.748,-3.748,-3.748,-3.748,-3.748,-3.748,-3.748,-3.748,-3.748,-3.748,0.0,0.0,-3.748,-3.748,-3.748,-3.748,-3.748,0.0,0.0,-3.8011,-3.9036,-4.0315,-4.1604,-4.1594,-4.1629,-4.1596,-4.1596,-4.1561,-4.1588,-4.1588,-4.1588,-4.1588,-4.1588,-4.1588,-4.1588,-4.1588,-4.1588,-4.1588,-4.172,-4.172,-4.1785,-4.2109,-4.2238,-4.2365,-4.2648,-4.2772,-4.2912,-4.3174,-4.3235,-4.3295,-4.3568,-4.3164,-4.2468,-4.1599,-4.1308,-4.1065,-4.0767,-4.0571,0.0,0.0,0.0,0.0,0.0,0.0,0.0,-3.9392,-3.9554,0.0,0.0,0.0,0.0,-3.977,-3.9296,-3.9518,-4.0896,-4.0943,-4.1181,-4.1835,-4.1835,-4.1835,-4.1835,-4.172,-4.172,-4.1835,-4.172,-4.172,-4.1835,-4.1835,-4.1835,-4.1851,-4.2158,-4.2476,-4.271,-4.2805,-4.2805,-4.2834,-4.2834,-4.2789,-4.2805,0.0,0.0,0.0,0.0,0.0,-3.2996,-3.4621,-3.4585,-3.4505,-3.4926,-3.6335,-3.715,-3.6723,-3.7165,-3.748,-3.748,-3.748,-3.748,-3.748,-3.748,-3.748,-3.748,-3.748,-3.748,-3.748,-3.748,-3.748,0.0,0.0,-3.748,-3.748,-3.748,-3.748,-3.748,-3.748,-3.8169,-3.932,-3.9431,-4.0338,-4.1582,-4.1598,-4.1612,-4.1623,-4.1623,-4.1573,-4.1588,-4.1588,-4.1588,-4.1588,-4.1588,-4.1588,-4.1588,-4.1588,-4.1588,-4.1654,-4.198,-4.2045,-4.2109,-4.2459,-4.2772,-4.3035,-4.3052,-4.3295,-4.3492,-4.3568,-4.3568,-4.3552,-4.3568,-4.3578,-4.3376,-4.2993,-4.3114,-4.2884,-4.161,-4.1694,-4.1629,0.0,0.0,-4.0925,-4.0925,0.0,0.0,-4.041,-4.041,0.0,0.0,-3.9718,0.0,0.0,-4.061,-4.0864,-4.1933,-4.1949,-4.2173,-4.2522,-4.2522,-4.2522,-4.2522,-4.2222,-4.2222,-4.2522,-4.2158,-4.2222,-4.2522,-4.2522,-4.2539,-4.2492,-4.2867,-4.3035,-4.3096,-4.3372,-4.3509,-4.3492,-4.3492,-4.3509,-4.3509,0.0,0.0,0.0,0.0,0.0,0.0,0.0,-3.5907,-3.6229,-3.6487,-3.6796,-3.7029,-3.7165,-3.7345,-3.748,-3.748,-3.748,-3.748,-3.748,-3.748,-3.748,-3.748,-3.748,-3.748,-3.748,-3.748,-3.748,0.0,-3.748,-3.748,-3.748,-3.7685,-3.8083,-3.8691,-3.8691,-3.9012,-3.9546,-4.0389,-4.1271,-4.2028,-4.1933,-4.1771,-4.1588,-4.1588,-4.1588,-4.1588,-4.1588,-4.1588,-4.1638,-4.2126,-4.2013,-4.1654,-4.2077,-4.2269,-4.2427,-4.2892,-4.2925,-4.288,-4.3246,-4.3202,-4.3174,-4.3372,-4.3492,-4.3628,-4.3628,-4.3628,-4.3628,-4.3628,-4.3628,-4.3568,-4.3432,-4.3372,-4.3213,-4.2797,-4.2747,-4.2649,-4.2532,0.0,0.0,-4.2574,0.0,-4.2275,0.0,-4.1589,0.0,0.0,0.0,0.0,0.0,-4.1482,-4.1578,-4.238,-4.2412,-4.2459,-4.2585,-4.2585,-4.2585,-4.2585,-4.2459,-4.2476,-4.2618,-4.2476,-4.2459,-4.2585,-4.2585,-4.2726,-4.2929,-4.3035,-4.3235,-4.3432,-4.3568,-4.3628,-4.3628,-4.3628,-4.3628,-4.3628,-3.1438,0.0,-3.2445,0.0,-3.448,-3.5319,-3.6041,-3.6769,-3.7364,-3.7749,-3.7463,-3.7402,-3.772,-3.7607,-3.7559,-3.7765,-3.7591,-3.748,-3.748,-3.748,-3.748,-3.748,-3.748,0.0,-3.748,-3.748,-3.7524,-3.7642,-3.7642,-3.77,-3.7759,-3.8184,-3.8898,-3.9768,-3.9768,-3.9903,-4.0172,-4.1209,-4.1905,-4.2393,-4.219,-4.2045,-4.19,-4.1654,-4.1835,-4.2077,-4.1835,-4.1948,-4.2348,-4.2802,-4.2661,-4.2348,-4.2847,-4.3075,-4.324,-4.3773,-4.3789,-4.3706,-4.4054,-4.3898,-4.368,-4.3789,-4.3805,-4.3789,-4.3628,-4.3628,-4.3628,-4.3628,-4.3628,-4.3628,-4.3628,-4.3432,-4.3295,-4.3432,-4.3372,-4.3312,-4.3432,-4.3568,0.0,-4.3628,-4.3628,-4.3294,-4.2588,-4.2716,0.0,0.0,0.0,0.0,-4.2892,-4.2301,-4.2161,-4.2694,-4.2772,-4.2772,-4.2912,-4.2912,-4.2912,-4.2912,-4.2772,-4.2789,-4.2883,-4.2912,-4.2912,-4.2912,-4.2912,-4.3035,-4.3235,-4.3235,-4.3372,-4.3628,-4.3628,-4.3628,-4.3628,-4.3628,-4.3628,-4.3628,-3.1526,-3.2556,-3.3638,-3.414,-3.4723,-3.5544,-3.6523,-3.6723,-3.7156,-3.8351,-3.8507,-3.8507,-3.8507,-3.7891,-3.7749,-3.8444,-3.7875,-3.748,-3.748,-3.748,-3.748,0.0,0.0,-3.748,-3.748,-3.748,-3.7626,-3.7886,-3.7886,-3.8075,-3.8424,-3.9136,-3.9816,-4.0491,-4.0491,-4.0913,-4.1549,-4.1565,-4.197,-4.2585,-4.2222,-4.2285,-4.2522,-4.1835,-4.2333,-4.3185,-4.2349,-4.2847,-4.3797,-4.3393,-4.3555,-4.3855,-4.3913,-4.3913,-4.397,-4.4305,-4.4378,-4.4434,-4.4783,-4.491,-4.4801,-4.4406,-4.4293,-4.4196,-4.3687,-4.3628,-4.3628,-4.3628,-4.3628,-4.3628,-4.3628,-4.3628,-4.3492,-4.3174,-4.3372,-4.3492,-4.3174,-4.3372,0.0,-4.3628,-4.3628,-4.3628,-4.3552,-4.3611,0.0,0.0,0.0,0.0,-4.3781,-4.2986,-4.2772,-4.3096,-4.3096,-4.3235,-4.3552,-4.3568,-4.3568,-4.3552,-4.3235,-4.3235,-4.3568,-4.3568,-4.3568,-4.3568,-4.3568,-4.3568,-4.3568,-4.3568,-4.3628,-4.3628,-4.3628,-4.3628,-4.3628,-4.3628,-4.3628,-4.3687,-3.324,-3.3667,-3.4273,-3.5217,-3.5854,-3.6474,-3.725,-3.7716,-3.8229,-3.9092,-3.9187,-3.9376,-3.9882,-3.9281,-3.895,0.0,-3.8981,-3.8665,0.0,-3.8191,-3.797,-3.7496,-3.7685,-3.7786,-3.7786,-3.7992,-3.8164,-3.8262,-3.8262,-3.8375,-3.8672,-3.9446,-4.0279,-4.114,-4.1634,-4.2275,-4.2966,-4.2966,-4.2961,-4.2912,-4.2789,-4.2726,-4.2585,-4.2694,-4.3003,-4.329,-4.3317,-4.3564,-4.397,-4.4418,-4.4584,-4.4804,-4.5303,-4.5144,-4.4804,-4.5337,-4.5354,-4.5232,-4.5354,-4.5125,-4.4855,-4.4763,-4.4502,-4.4253,-4.4138,-4.3848,-4.3628,-4.3628,-4.3628,-4.3628,-4.3628,-4.3628,-4.3568,-4.3432,-4.3509,-4.3552,-4.3432,-4.3552,-4.3628,-4.3628,-4.3628,-4.3628,-4.3628,-4.3628,0.0,0.0,0.0,-4.3611,-4.3654,-4.3416,-4.3312,-4.3432,-4.3432,-4.3492,-4.3628,-4.3628,-4.3628,-4.3628,-4.3492,-4.3492,-4.3628,-4.3628,-4.3628,-4.3628,-4.3628,-4.3628,-4.3628,-4.3628,-4.3628,-4.3628,-4.3628,-4.3628,-4.3628,-4.3628,-4.3789,-4.408,-3.443,-3.47,-3.5127,-3.6041,-3.6723,-3.7282,-3.7904,-3.8512,-3.9139,-3.9819,-3.9914,-4.0182,-4.0893,-4.0561,-4.0182,-3.9945,-3.9661,-3.9329,-3.8902,-3.8886,-3.8742,-3.8435,-3.8567,-3.8616,-3.8476,-3.8739,-3.8724,-3.8544,-3.8672,-3.8969,-3.9397,-3.9857,-4.071,-4.1856,-4.2303,-4.2932,-4.3628,-4.3628,-4.3492,-4.3295,-4.3339,-4.3323,-4.3262,-4.3453,-4.3806,-4.4152,-4.4118,-4.4384,-4.4841,-4.5161,-4.539,-4.5615,-4.6055,-4.5887,-4.5615,-4.5955,-4.5972,-4.5803,-4.5803,-4.5632,-4.5337,-4.5178,-4.4981,-4.4725,-4.4558,-4.4276,-4.4047,-4.3906,-4.3848,-4.3789,-4.3611,-4.3628,-4.3628,-4.3628,-4.3628,-4.3628,-4.3628,-4.3628,-4.3628,-4.3628,-4.3628,-4.3628,-4.3628,-4.3628,-4.373,-4.4023,0.0,-4.3628,-4.3628,-4.3628,-4.3628,-4.3628,-4.3628,-4.3628,-4.3628,-4.3628,-4.3628,-4.3628,-4.3628,-4.3628,-4.3628,-4.3628,-4.3628,-4.3628,-4.3628,-4.3628,-4.3628,-4.3628,-4.3628,-4.3628,-4.3789,-4.3848,-4.3906,-4.4047,-4.4276,-4.4558,-3.5125,-3.555,-3.6133,-3.6708,-3.7359,-3.7935,-3.8572,-3.9187,-3.9835,-4.0577,-4.0672,-4.0909,-4.1591,-4.1654,-4.1401,-4.0784,-4.004,-3.9629,-3.9629,-3.9629,-3.9737,-3.9998,-4.0059,-3.9951,-3.9615,-3.9567,-3.9333,-3.886,-3.9148,-3.962,-4.0299,-4.0348,-4.1094,-4.2386,-4.2485,-4.2899,-4.3545,-4.3611,-4.3628,-4.3611,-4.3739,-4.403,-4.4293,-4.4061,-4.4695,-4.5529,-4.4766,-4.5267,-4.6122,-4.5752,-4.5905,-4.6172,-4.6172,-4.6172,-4.6172,-4.6172,-4.6172,-4.6172,-4.6172,-4.6172,-4.6122,-4.5752,-4.5632,-4.5477,-4.5018,-4.491,-4.4801,-4.4406,-4.435,-4.4179,-4.3789,-4.3671,-4.3671,-4.3628,-4.3628,-4.3628,-4.3628,-4.3628,-4.3628,-4.3628,-4.3628,-4.3628,-4.3628,-4.3628,-4.3628,-4.3628,0.0,-4.3628,-4.3628,-4.3628,-4.3628,-4.3628,-4.3628,-4.3628,-4.3628,-4.3628,-4.3628,-4.3628,-4.3628,-4.3628,-4.3628,-4.3628,-4.3628,-4.3628,-4.3628,-4.3628,-4.3628,-4.3628,-4.3628,-4.3671,-4.4179,-4.435,-4.4406,-4.4746,-4.491,-4.5018,-3.6276,-3.6415,-3.6817,-3.7916,-3.8213,-3.8731,-3.9945,-4.0245,-4.0577,-4.1257,-4.1351,-4.1546,-4.1964,-4.198,-4.2029,-4.2108,-4.1501,-4.0991,-4.072,-4.0751,-4.0619,-4.0421,-4.0615,-4.0727,-4.0622,-4.0311,-3.9853,-3.9164,-3.9272,-3.9371,-3.9537,-4.0117,-4.0564,-4.0928,-4.2038,-4.2618,-4.2816,-4.338,-4.3628,-4.3611,-4.4006,-4.4236,-4.435,-4.4964,-4.5354,-4.5632,-4.5735,-4.5955,-4.6189,-4.6073,-4.6122,-4.6172,-4.6172,-4.6172,-4.6172,-4.6172,-4.6172,-4.6172,-4.6172,-4.6172,-4.6172,-4.6073,-4.5854,-4.5477,-4.5018,-4.491,-4.4855,-4.4801,-4.4746,-4.4691,-4.4635,-4.458,-4.4485,-4.4179,-4.4121,-4.4023,-4.3628,-4.3628,-4.3628,-4.3628,-4.3628,-4.3628,-4.3628,-4.3628,-4.3628,-4.3628,-4.3628,-4.3628,-4.3628,-4.3628,-4.3628,-4.3628,-4.3628,-4.3628,-4.3628,-4.3628,-4.3628,-4.3628,-4.3628,-4.3628,-4.3628,-4.3628,-4.3628,-4.3628,-4.3628,-4.3628,-4.3628,-4.3964,-4.4121,-4.4179,-4.4597,-4.4746,-4.4746,-4.4855,-4.5125,-4.5477,-3.7238,-3.7506,-3.8033,-3.8806,-3.9518,-4.019,-4.0974,-4.1167,-4.1501,-4.1997,-4.1916,-4.198,-4.2285,-4.2365,-4.2429,-4.2585,-4.2269,-4.1997,-4.1802,-4.1786,-4.1795,-4.1694,-4.1874,-4.1862,-4.1708,-4.1501,-4.0845,-3.9785,-3.9454,-3.9272,-3.9288,-3.9686,-4.005,-4.0415,-4.1193,-4.1905,-4.2551,-4.2949,-4.3431,-4.3964,-4.439,-4.4725,-4.4944,-4.5632,-4.5854,-4.5905,-4.6122,-4.6172,-4.6172,-4.6172,-4.6172,-4.6172,-4.6172,-4.6172,-4.6172,-4.6172,-4.6172,-4.6172,-4.6172,-4.6172,-4.6172,-4.6172,-4.6023,-4.5803,-4.5563,-4.5511,-4.5459,-4.5249,-4.5249,-4.5125,-4.4964,-4.491,-4.4855,-4.4597,-4.4541,-4.4446,-4.3964,-4.3906,-4.3848,-4.3763,-4.3763,-4.3763,-4.3763,-4.3763,-4.3822,-4.3906,-4.373,-4.373,-4.4006,-4.373,-4.3628,-4.3628,-4.3628,-4.3628,-4.3628,-4.3628,-4.3628,-4.3628,-4.3628,-4.3628,-4.3628,-4.3628,-4.3628,-4.3628,-4.3628,-4.373,-4.3964,-4.4179,-4.4406,-4.4614,-4.5035,-4.5249,-4.5249,-4.5407,-4.5684,-4.5854,-3.803,-3.8659,-3.9216,-3.9752,-4.0788,-4.1598,-4.1711,-4.1979,-4.2302,-4.2555,-4.2365,-4.2285,-4.2648,-4.268,-4.268,-4.2726,-4.2772,-4.271,-4.2648,-4.2648,-4.2851,-4.3174,-4.3174,-4.3015,-4.27,-4.2585,-4.1823,-4.0382,-3.9752,-3.9388,-3.9272,-3.9272,-3.9603,-4.0216,-4.0332,-4.1044,-4.222,-4.2435,-4.3098,-4.4198,-4.4712,-4.5178,-4.5632,-4.6073,-4.6172,-4.6172,-4.6172,-4.6172,-4.6172,-4.6172,-4.6172,-4.6172,-4.6172,-4.6172,-4.6172,-4.6172,-4.6172,-4.6172,-4.6172,-4.6172,-4.6172,-4.6172,-4.6172,-4.6172,-4.6172,-4.6172,-4.6122,-4.5735,-4.5684,-4.558,-4.5178,-4.5125,-4.5108,-4.491,-4.5001,-4.4947,-4.4446,-4.4446,-4.4406,-4.4196,-4.4155,-4.4155,-4.4155,-4.4155,-4.4253,-4.4502,-4.4162,-4.4162,-4.4652,-4.4105,-4.3831,-4.3931,-4.373,-4.3628,-4.3628,-4.3628,-4.3628,-4.3628,-4.3628,-4.3628,-4.3628,-4.3671,-4.3687,-4.373,-4.3789,-4.4006,-4.4406,-4.4463,-4.4725,-4.5072,-4.5511,-4.5684,-4.5752,-4.6073,-4.6172,-4.6172,-3.9069,-3.9337,-3.979,-4.1047,-4.1419,-4.1759,-4.2342,-4.252,-4.2522,-4.2585,-4.2522,-4.2648,-4.2974,-4.3035,-4.3113,-4.3432,-4.3432,-4.3295,-4.3035,-4.3035,-4.3174,-4.3492,-4.3492,-4.3502,-4.3446,-4.2833,-4.1823,-4.0382,-4.0266,-3.9885,-3.9272,-3.9272,-3.9338,-3.9471,-4.01,-4.0498,-4.0796,-4.2005,-4.2872,-4.3457,-4.449,-4.5178,-4.5632,-4.6073,-4.6172,-4.6172,-4.6172,-4.6172,-4.6172,-4.6172,-4.6172,-4.6172,-4.6172,-4.6172,-4.6172,-4.6172,-4.6172,-4.6172,-4.6172,-4.6172,-4.6172,-4.6172,-4.6172,-4.6172,-4.6172,-4.6172,-4.6172,-4.6122,-4.6122,-4.6073,-4.6005,-4.6186,-4.6003,-4.5072,-4.5563,-4.5732,-4.4695,-4.5074,-4.5459,-4.5407,-4.5407,-4.5407,-4.5407,-4.5407,-4.5459,-4.5459,-4.5407,-4.539,-4.5511,-4.5001,-4.4892,-4.5338,-4.4202,-4.3628,-4.3628,-4.3628,-4.3628,-4.3628,-4.3628,-4.3628,-4.3628,-4.4023,-4.4196,-4.4179,-4.4541,-4.4746,-4.4855,-4.5249,-4.5424,-4.5529,-4.5955,-4.6122,-4.6122,-4.6172,-4.6172,-4.6172,-3.9568,-4.0368,-4.1161,-4.1933,-4.2436,-4.2797,-4.3125,-4.2974,-4.2912,-4.3096,-4.2974,-4.2974,-4.3355,-4.3372,-4.3432,-4.3568,-4.3628,-4.3552,-4.3372,-4.3372,-4.3432,-4.3568,-4.3628,-4.3628,-4.3628,-4.2899,-4.2005,-4.0945,-4.0564,-4.0001,-3.9272,-3.9272,-3.9272,-3.9288,-3.9636,-4.0001,-4.047,-4.1283,-4.237,-4.3603,-4.4334,-4.5148,-4.5955,-4.6122,-4.6172,-4.6172,-4.6172,-4.6172,-4.6172,-4.6172,-4.6172,-4.6172,-4.6172,-4.6172,-4.6172,-4.6172,-4.6172,-4.6172,-4.6172,-4.6172,-4.6172,-4.6172,-4.6172,-4.6221,-4.635,-4.6416,-4.6464,-4.6607,-4.6655,-4.6655,-4.6655,-4.6749,-4.6619,-4.6102,-4.6394,-4.6442,-4.563,-4.5783,-4.595,-4.58,-4.58,-4.58,-4.58,-4.58,-4.585,-4.6,-4.58,-4.5817,-4.6116,-4.5597,-4.5459,-4.58,-4.5127,-4.4712,-4.4712,-4.4712,-4.4712,-4.4712,-4.4712,-4.4674,-4.4507,-4.4746,-4.4746,-4.4652,-4.4801,-4.5018,-4.5302,-4.5529,-4.5752,-4.5955,-4.6122,-4.6172,-4.6221,-4.6368,-4.6319,-4.6221,-4.0385,-4.1395,-4.2334,-4.2692,-4.3247,-4.3628,-4.3628,-4.3372,-4.3295,-4.3568,-4.3372,-4.3295,-4.3568,-4.3628,-4.3628,-4.3628,-4.3628,-4.3628,-4.3628,-4.3628,-4.3628,-4.3628,-4.3628,-4.3628,-4.3628,-4.3065,-4.2402,-4.1674,-4.0961,-4.0249,-3.952,-3.9355,-3.9272,-3.9272,-3.9272,-3.9587,-4.0188,-4.0682,-4.1796,-4.3339,-4.4078,-4.5003,-4.5975,-4.6151,-4.6172,-4.6172,-4.6172,-4.6172,-4.6172,-4.6172,-4.6172,-4.6172,-4.6172,-4.6172,-4.6221,-4.627,-4.6319,-4.6368,-4.6221,-4.6221,-4.627,-4.627,-4.6319,-4.6464,-4.6655,-4.6684,-4.6731,-4.6934,-4.6998,-4.6998,-4.6998,-4.7025,-4.7025,-4.687,-4.7025,-4.7007,-4.6472,-4.6519,-4.6548,-4.6358,-4.631,-4.631,-4.631,-4.631,-4.6406,-4.6613,-4.6358,-4.6358,-4.6753,-4.6262,-4.6017,-4.6098,-4.585,-4.5699,-4.5699,-4.5699,-4.5699,-4.5699,-4.5699,-4.5614,-4.5407,-4.5511,-4.5407,-4.5214,-4.5267,-4.5546,-4.5938,-4.5837,-4.6055,-4.6368,-4.6368,-4.6368,-4.6416,-4.659,-4.6542,-4.6464,-4.1972,-4.2394,-4.2675,-4.3429,-4.3595,-4.3628,-4.3628,-4.3568,-4.3568,-4.3628,-4.3568,-4.3568,-4.3628,-4.3628,-4.3628,-4.3628,-4.3628,-4.3628,-4.3628,-4.3628,-4.3628,-4.3628,-4.3628,-4.3628,-4.3628,-4.3578,-4.3181,-4.2435,-4.1707,-4.0978,-4.0282,-3.9587,-3.9272,-3.9272,-3.9272,-3.9305,-3.9458,-4.0464,-4.1221,-4.1902,-4.3664,-4.4689,-4.5256,-4.5958,-4.6172,-4.6172,-4.6172,-4.6172,-4.6172,-4.6172,-4.6172,-4.6172,-4.6172,-4.6172,-4.627,-4.6495,-4.6749,-4.6842,-4.6319,-4.635,-4.659,-4.659,-4.6749,-4.6952,-4.6998,-4.698,-4.6998,-4.6998,-4.6998,-4.6998,-4.6998,-4.7143,-4.7062,-4.6454,-4.7062,-4.7407,-4.6753,-4.7214,-4.7615,-4.7554,-4.7572,-4.7572,-4.7572,-4.7572,-4.7572,-4.7615,-4.7554,-4.7554,-4.7615,-4.7107,-4.6817,-4.6817,-4.6098,-4.5699,-4.5699,-4.5699,-4.5699,-4.5699,-4.5699,-4.5699,-4.5699,-4.6067,-4.6213,-4.6213,-4.6411,-4.6637,-4.6888,-4.6637,-4.6684,-4.6952,-4.6952,-4.6952,-4.6934,-4.6934,-4.6952,-4.6952,-4.2344,-4.2883,-4.3297,-4.3578,-4.3628,-4.3628,-4.3628,-4.3628,-4.3628,-4.3628,-4.3628,-4.3628,-4.3628,-4.3628,-4.3628,-4.3628,-4.3628,-4.3628,-4.3628,-4.3628,-4.3628,-4.3628,-4.3628,-4.3628,-4.3628,-4.3628,-4.3264,-4.2518,-4.2237,-4.1508,-4.0365,-4.0083,-3.9719,-3.9272,-3.9272,-3.9432,-3.9694,-4.0341,-4.1117,-4.2109,-4.3506,-4.4498,-4.5185,-4.594,-4.6319,-4.6416,-4.627,-4.6416,-4.6655,-4.6495,-4.656,-4.6702,-4.6702,-4.6702,-4.6702,-4.6842,-4.6934,-4.6952,-4.6749,-4.6749,-4.6842,-4.6842,-4.6934,-4.7025,-4.7143,-4.7187,-4.7232,-4.7399,-4.7443,-4.7443,-4.7443,-4.7486,-4.745,-4.7214,-4.7468,-4.7615,-4.7363,-4.7554,-4.7717,-4.7717,-4.7717,-4.7717,-4.7717,-4.7717,-4.7717,-4.7717,-4.7717,-4.7717,-4.7717,-4.7511,-4.7407,-4.7407,-4.7107,-4.6954,-4.6954,-4.6954,-4.6954,-4.6954,-4.6954,-4.6845,-4.6707,-4.6863,-4.688,-4.676,-4.6824,-4.6888,-4.6998,-4.6888,-4.6888,-4.6998,-4.6998,-4.6998,-4.7043,-4.716,-4.7116,-4.7025,-4.2816,-4.328,-4.3628,-4.3628,-4.3628,-4.3628,-4.3628,-4.3628,-4.3628,-4.3628,-4.3628,-4.3628,-4.3628,-4.3628,-4.3628,-4.3628,-4.3628,-4.3628,-4.3628,-4.3628,-4.3628,-4.3628,-4.3628,-4.3628,-4.3628,-4.3628,-4.338,-4.2866,-4.2709,-4.2079,-4.1156,-4.0691,-4.0209,-3.9711,-3.9531,-3.9537,-3.9798,-4.0385,-4.1016,-4.1843,-4.3465,-4.4406,-4.4976,-4.6028,-4.656,-4.6684,-4.6512,-4.6702,-4.698,-4.6795,-4.6842,-4.6998,-4.6998,-4.7025,-4.7116,-4.7116,-4.716,-4.7223,-4.7223,-4.7223,-4.7223,-4.7116,-4.716,-4.7249,-4.7407,-4.7425,-4.7468,-4.7657,-4.7717,-4.7717,-4.7717,-4.7717,-4.7717,-4.7717,-4.7717,-4.7717,-4.7717,-4.7717,-4.7717,-4.7717,-4.7717,-4.7717,-4.7717,-4.7717,-4.7717,-4.7717,-4.7717,-4.7717,-4.7717,-4.7717,-4.7717,-4.7717,-4.7717,-4.7717,-4.7717,-4.7717,-4.7717,-4.7717,-4.7717,-4.7615,-4.7425,-4.7425,-4.7338,-4.7223,-4.7116,-4.716,-4.7205,-4.7116,-4.716,-4.7223,-4.7223,-4.7223,-4.7267,-4.7363,-4.7338,-4.7267,-4.3479,-4.3628,-4.3628,-4.3628,-4.3628,-4.3628,-4.3628,-4.3628,-4.3628,-4.3628,-4.3628,-4.3628,-4.3628,-4.3628,-4.3628,-4.3628,-4.3628,-4.3628,-4.3628,-4.3628,-4.3628,-4.3628,-4.3628,-4.3628,-4.3628,-4.3628,-4.3628,-4.3628,-4.309,-4.2798,-4.2748,-4.1448,-4.0745,-4.0588,-3.996,-3.9659,-3.9606,-4.058,-4.0866,-4.0862,-4.3509,-4.4493,-4.4511,-4.63,-4.6998,-4.698,-4.6998,-4.698,-4.6998,-4.698,-4.698,-4.6998,-4.6998,-4.7143,-4.7302,-4.7302,-4.7511,-4.7717,-4.7717,-4.7717,-4.7615,-4.7363,-4.7511,-4.7717,-4.7717,-4.7717,-4.7717,-4.7717,-4.7717,-4.7717,-4.7717,-4.7717,-4.7717,-4.7717,-4.7717,-4.7717,-4.7717,-4.7717,-4.7717,-4.7717,-4.7717,-4.7717,-4.7717,-4.7717,-4.7717,-4.7717,-4.7717,-4.7717,-4.7717,-4.7717,-4.7717,-4.7717,-4.7717,-4.7717,-4.7717,-4.7717,-4.7717,-4.7717,-4.7717,-4.7717,-4.7717,-4.7717,-4.7717,-4.7675,-4.7407,-4.745,-4.7657,-4.7407,-4.7468,-4.7717,-4.7717,-4.7717,-4.7717,-4.7717,-4.7717,-4.7717,-4.3578,-4.3628,-4.3628,-4.3628,-4.3628,-4.3628,-4.3628,-4.3628,-4.3628,-4.3628,-4.3628,-4.3628,-4.3628,-4.3628,-4.3628,-4.3628,-4.3628,-4.3628,-4.3628,-4.3628,-4.3628,-4.3628,-4.3628,-4.3628,-4.3628,-4.3763,-4.3822,-4.3822,-4.3706,-4.3454,-4.2919,-4.254,-4.2055,-4.1481,-4.1301,-4.1379,-4.1644,-4.2324,-4.2745,-4.3039,-4.4778,-4.5427,-4.5446,-4.6587,-4.707,-4.7187,-4.707,-4.7223,-4.7486,-4.7276,-4.7338,-4.7486,-4.7486,-4.7529,-4.7572,-4.7572,-4.7615,-4.7717,-4.7717,-4.7717,-4.7657,-4.7615,-4.7657,-4.7717,-4.7717,-4.7717,-4.7717,-4.7717,-4.7717,-4.7717,-4.7717,-4.7717,-4.7717,-4.7717,-4.7717,-4.7717,-4.7717,-4.7717,-4.7717,-4.7717,-4.7717,-4.7717,-4.7717,-4.7717,-4.7717,-4.7717,-4.7717,-4.7717,-4.7717,-4.7717,-4.7717,-4.7717,-4.7717,-4.7717,-4.7717,-4.7717,-4.7717,-4.7717,-4.7717,-4.7717,-4.7717,-4.7717,-4.7717,-4.7717,-4.7615,-4.7615,-4.7699,-4.7615,-4.7615,-4.7717,-4.7717,-4.7717,-4.7717,-4.7717,-4.7717,-4.7717,-4.3628,-4.3628,-4.3628,-4.3628,-4.3628,-4.3628,-4.3628,-4.3628,-4.3628,-4.3628,-4.3628,-4.3628,-4.3628,-4.3628,-4.3628,-4.3628,-4.3628,-4.3628,-4.3704,-4.3628,-4.3687,-4.3805,-4.3763,-4.3704,-4.3704,-4.3881,-4.3998,-4.3998,-4.4097,-4.3977,-4.3524,-4.3278,-4.2891,-4.24,-4.2405,-4.2481,-4.2689,-4.3502,-4.3898,-4.4188,-4.5551,-4.6047,-4.605,-4.6944,-4.7338,-4.7468,-4.7294,-4.7443,-4.7675,-4.7511,-4.7572,-4.7717,-4.7717,-4.7717,-4.7717,-4.7717,-4.7717,-4.7717,-4.7717,-4.7717,-4.7717,-4.7717,-4.7717,-4.7717,-4.7717,-4.7717,-4.7717,-4.7717,-4.7717,-4.7717,-4.7717,-4.7717,-4.7717,-4.7717,-4.7717,-4.7717,-4.7717,-4.7717,-4.7717,-4.7717,-4.7717,-4.7717,-4.7717,-4.7717,-4.7717,-4.7717,-4.7717,-4.7717,-4.7717,-4.7717,-4.7717,-4.7717,-4.7717,-4.7717,-4.7717,-4.7717,-4.7717,-4.7717,-4.7717,-4.7717,-4.7717,-4.7717,-4.7717,-4.7717,-4.7717,-4.7717,-4.7717,-4.7717,-4.7717,-4.7717,-4.7717,-4.7717,-4.7717,-4.7717,-4.7717,-4.7717,-4.3628,-4.3628,-4.3628,-4.3628,-4.3628,-4.3628,-4.3628,-4.3628,-4.3628,-4.3628,-4.3628,-4.3628,-4.3628,-4.3628,-4.3628,-4.3628,-4.3628,-4.3747,-4.3898,-4.3763,-4.3805,-4.4097,-4.3998,-4.3956,-4.3956,-4.4056,-4.4097,-4.4097,-4.4253,-4.431,-4.4293,-4.3826,-4.3504,-4.3305,-4.3374,-4.3251,-4.32,-4.4304,-4.4698,-4.4636,-4.6038,-4.6488,-4.6434,-4.7343,-4.7717,-4.7717,-4.7717,-4.7717,-4.7717,-4.7717,-4.7717,-4.7717,-4.7717,-4.7717,-4.7717,-4.7717,-4.7717,-4.7717,-4.7717,-4.7717,-4.7717,-4.7717,-4.7717,-4.7717,-4.7717,-4.7717,-4.7717,-4.7717,-4.7717,-4.7717,-4.7717,-4.7717,-4.7717,-4.7717,-4.7717,-4.7717,-4.7717,-4.7717,-4.7717,-4.7717,-4.7717,-4.7717,-4.7717,-4.7717,-4.7717,-4.7717,-4.7717,-4.7717,-4.7717,-4.7717,-4.7717,-4.7717,-4.7717,-4.7717,-4.7717,-4.7717,-4.7717,-4.7717,-4.7717,-4.7717,-4.7717,-4.7717,-4.7717,-4.7717,-4.7717,-4.7717,-4.7717,-4.7717,-4.7717,-4.7717,-4.7717,-4.7717,-4.7717,-4.7717,-4.7717,-4.7717,-4.3628,-4.3628,-4.3628,-4.3628,-4.3628,-4.3628,-4.3628,-4.3628,-4.3628,-4.3628,-4.3628,-4.3628,-4.3628,-4.3763,-4.3822,-4.3822,-4.3923,-4.3981,-4.4039,-4.4039,-4.4039,-4.4097,-4.4138,-4.4196,-4.4196,-4.4253,-4.4253,-4.4253,-4.444,-4.4514,-4.457,-4.4756,-4.4687,-4.4316,-4.5095,-4.5212,-4.4872,-4.5959,-4.6364,-4.6381,-4.7126,-4.7404,-4.738,-4.7603,-4.7717,-4.7717,-4.7717,-4.7717,-4.7717,-4.7717,-4.7717,-4.7717,-4.7717,-4.7717,-4.7717,-4.7717,-4.7717,-4.7717,-4.7717,-4.7717,-4.7717,-4.7717,-4.7717,-4.7717,-4.7717,-4.7717,-4.7717,-4.7717,-4.7717,-4.7717,-4.7717,-4.7717,-4.7717,-4.7717,-4.7717,-4.7717,-4.7717,-4.7717,-4.7717,-4.7717,-4.7717,-4.7717,-4.7717,-4.7717,-4.7717,-4.7717,-4.7717,-4.7717,-4.7717,-4.7717,-4.7717,-4.7717,-4.7717,-4.7717,-4.7717,-4.7717,-4.7717,-4.7717,-4.7717,-4.7717,-4.7717,-4.7717,-4.7717,-4.7717,-4.7717,-4.7717,-4.7717,-4.7717,-4.7717,-4.7717,-4.7717,-4.7717,-4.7717,-4.7717,-4.7717,-4.7717,-4.3628,-4.3628,-4.3628,-4.3628,-4.3628,-4.3628,-4.3704,-4.3763,-4.3763,-4.3805,-4.3864,-4.3864,-4.3864,-4.3923,-4.3998,-4.3998,-4.4056,-4.4155,-4.4196,-4.4155,-4.4155,-4.4344,-4.431,-4.4367,-4.444,-4.444,-4.444,-4.444,-4.457,-4.472,-4.4944,-4.5161,-4.532,-4.5337,-4.6116,-4.631,-4.6116,-4.6954,-4.7258,-4.732,-4.7615,-4.7717,-4.7717,-4.7717,-4.7717,-4.7717,-4.7717,-4.7717,-4.7717,-4.7717,-4.7717,-4.7717,-4.7717,-4.7717,-4.7717,-4.7717,-4.7717,-4.7717,-4.7717,-4.7717,-4.7717,-4.7717,-4.7717,-4.7717,-4.7717,-4.7717,-4.7717,-4.7717,-4.7717,-4.7717,-4.7717,-4.7717,-4.7717,-4.7717,-4.7717,-4.7717,-4.7717,-4.7717,-4.7717,-4.7717,-4.7717,-4.7717,-4.7717,-4.7717,-4.7717,-4.7717,-4.7717,-4.7717,-4.7717,-4.7717,-4.7717,-4.7717,-4.7717,-4.7717,-4.7717,-4.7717,-4.7717,-4.7717,-4.7717,-4.7717,-4.7717,-4.7717,-4.7717,-4.7717,-4.7717,-4.7717,-4.7717,-4.7717,-4.7717,-4.7717,-4.7717,-4.7717,-4.7717,-4.7717,-4.7717,-4.7717,-4.3628,-4.3628,-4.3628,-4.3628,-4.3628,-4.3704,-4.3898,-4.3956,-4.3939,-4.4114,-4.4097,-4.4097,-4.4097,-4.4097,-4.4155,-4.4155,-4.4155,-4.4212,-4.4367,-4.427,-4.4344,-4.4587,-4.4536,-4.4575,-4.472,-4.4814,-4.4776,-4.4587,-4.4587,-4.4852,-4.5303,-4.5407,-4.5648,-4.6116,-4.6753,-4.7017,-4.6954,-4.7468,-4.7717,-4.7717,-4.7717,-4.7717,-4.7717,-4.7717,-4.7717,-4.7717,-4.7717,-4.7717,-4.7717,-4.7717,-4.7717,-4.7717,-4.7717,-4.7717,-4.7717,-4.7717,-4.7717,-4.7717,-4.7717,-4.7717,-4.7717,-4.7717,-4.7717,-4.7717,-4.7717,-4.7717,-4.7717,-4.7717,-4.7717,-4.7717,-4.7717,-4.7717,-4.7717,-4.7717,-4.7717,-4.7717,-4.7717,-4.7717,-4.7717,-4.7717,-4.7717,-4.7717,-4.7717,-4.7717,-4.7717,-4.7717,-4.7717,-4.7717,-4.7717,-4.7717,-4.7717,-4.7717,-4.7717,-4.7717,-4.7717,-4.7717,-4.7717,-4.7717,-4.7717,-4.7717,-4.7717,-4.7717,-4.7717,-4.7717,-4.7717,-4.7717,-4.7717,-4.7717,-4.7717,-4.7717,-4.7717,-4.7717,-4.7717,-4.7717,-4.7717,-4.7717,-4.3628,-4.3628,-4.3628,-4.3822,-4.3839,-4.3881,-4.4056,-4.4039,-4.4097,-4.4097,-4.4097,-4.4097,-4.4097,-4.4196,-4.431,-4.4514,-4.4514,-4.4514,-4.457,-4.4514,-4.457,-4.4587,-4.4981,-4.5161,-4.5214,-4.5665,-4.5494,-4.4587,-4.4587,-4.4852,-4.5303,-4.5749,-4.6,-4.6147,-4.7169,-4.7302,-4.6954,-4.7468,-4.7717,-4.7717,-4.7717,-4.7717,-4.7717,-4.7717,-4.7717,-4.7717,-4.7717,-4.7717,-4.7717,-4.7717,-4.7717,-4.7717,-4.7717,-4.7717,-4.7717,-4.7717,-4.7717,-4.7717,-4.7717,-4.7717,-4.7717,-4.7717,-4.7717,-4.7717,-4.7717,-4.7717,-4.7717,-4.7717,-4.7717,-4.7717,-4.7717,-4.7717,-4.7717,-4.7717,-4.7717,-4.7717,-4.7717,-4.7717,-4.7717,-4.7717,-4.7717,-4.7717,-4.7717,-4.7717,-4.7717,-4.7717,-4.7717,-4.7717,-4.7717,-4.7717,-4.7717,-4.7717,-4.7717,-4.7717,-4.7717,-4.7717,-4.7717,-4.7717,-4.7717,-4.7717,-4.7717,-4.7717,-4.7717,-4.7717,-4.7717,-4.7717,-4.7717,-4.7717,-4.7717,-4.7717,-4.7717,-4.7717,-4.7717,-4.7717,-4.7717,-4.7717,-4.3628,-4.3687,-4.3763,-4.3898,-4.3956,-4.4056,-4.4196,-4.4196,-4.4253,-4.4327,-4.44,-4.44,-4.44,-4.444,-4.4497,-4.457,-4.4587,-4.472,-4.4998,-4.4998,-4.5142,-4.5442,-4.5614,-4.5767,-4.5767,-4.595,-4.5868,-4.5442,-4.5442,-4.5683,-4.6213,-4.6454,-4.6707,-4.6999,-4.7511,-4.7554,-4.7363,-4.7615,-4.7717,-4.7717,-4.7717,-4.7717,-4.7717,-4.7717,-4.7717,-4.7717,-4.7717,-4.7717,-4.7717,-4.7717,-4.7717,-4.7717,-4.7717,-4.7717,-4.7717,-4.7717,-4.7717,-4.7717,-4.7717,-4.7717,-4.7717,-4.7717,-4.7717,-4.7717,-4.7717,-4.7717,-4.7717,-4.7717,-4.7717,-4.7717,-4.7717,-4.7717,-4.7717,-4.7717,-4.7717,-4.7717,-4.7717,-4.7717,-4.7717,-4.7717,-4.7717,-4.7717,-4.7717,-4.7717,-4.7717,-4.7717,-4.7717,-4.7717,-4.7717,-4.7717,-4.7717,-4.7717,-4.7717,-4.7717,-4.7717,-4.7717,-4.7717,-4.7717,-4.7717,-4.7717,-4.7717,-4.7717,-4.7717,-4.7717,-4.7717,-4.7717,-4.7717,-4.7717,-4.7717,-4.7717,-4.7717,-4.7717,-4.7717,-4.7717,-4.7759,-4.7819]}]]